[[{"header":{"parameterUnit":"m.s-1","parameterCategory":1,"la1":30.6,"la2":29.2853,"lo1":-89.7004,"lo2":-87.6739,"dy":0.0162,"dx":0.0183,"nx":112,"ny":82,"refTime":"2026-05-24T00:00:00:Z","depth":0,"parameterNumber":2,"parameterNumberName":"U-component_of_WINDS"},"data":[0.0,0.0,0.0,0.0,0.0,0.0,0.0,0.0,0.0,0.0,0.0,0.0,0.0,0.0,0.0,0.0,0.0,0.0,0.0,0.0,0.0,0.0,0.0,0.0,0.0,0.0,0.0,0.0,0.0,0.0,0.0,0.0,0.0,0.0,0.0,0.0,0.0,0.0,0.0,0.0,0.0,0.0,0.0,0.0,0.0,0.0,0.0,0.0,0.0,0.0,0.0,0.0,0.0,0.0,0.0,0.0,0.0,0.0,0.0,0.0,0.0,0.0,0.0,0.0,0.0,0.0,0.0,0.0,0.0,0.0,0.0,0.0,0.0,0.0,0.0,0.0,0.0,0.0,0.0,0.0,0.0,0.0,0.0,0.0,0.0,0.0,0.0,0.0,0.0,0.0,-5.0585,-5.2287,-5.5049,-5.6868,-5.6983,-5.5972,-5.3664,-4.9856,0.0,0.0,0.0,0.0,0.0,0.0,0.0,0.0,0.0,0.0,0.0,0.0,0.0,0.0,0.0,0.0,0.0,0.0,0.0,0.0,0.0,0.0,0.0,0.0,0.0,0.0,0.0,0.0,0.0,0.0,0.0,0.0,0.0,0.0,0.0,0.0,0.0,0.0,0.0,0.0,0.0,0.0,0.0,0.0,0.0,0.0,0.0,0.0,0.0,0.0,0.0,0.0,0.0,0.0,0.0,0.0,0.0,0.0,0.0,0.0,0.0,0.0,0.0,0.0,0.0,0.0,0.0,0.0,0.0,0.0,0.0,0.0,0.0,0.0,0.0,0.0,0.0,0.0,0.0,0.0,0.0,0.0,0.0,0.0,0.0,0.0,0.0,0.0,0.0,0.0,0.0,0.0,0.0,0.0,0.0,0.0,0.0,0.0,0.0,0.0,0.0,0.0,0.0,0.0,-5.0646,-5.4682,-5.5588,-5.6214,-5.6945,-5.4895,-5.2702,-5.0635,0.0,0.0,0.0,0.0,0.0,0.0,0.0,0.0,0.0,0.0,0.0,0.0,0.0,0.0,0.0,0.0,0.0,0.0,0.0,0.0,0.0,0.0,0.0,0.0,0.0,0.0,0.0,0.0,0.0,0.0,0.0,0.0,0.0,0.0,0.0,0.0,0.0,0.0,0.0,0.0,0.0,0.0,0.0,0.0,0.0,0.0,0.0,0.0,0.0,0.0,0.0,0.0,0.0,0.0,0.0,0.0,0.0,0.0,0.0,0.0,0.0,0.0,0.0,0.0,0.0,0.0,0.0,0.0,0.0,0.0,0.0,0.0,0.0,0.0,0.0,0.0,0.0,0.0,0.0,0.0,0.0,0.0,0.0,0.0,0.0,0.0,0.0,0.0,0.0,0.0,0.0,0.0,0.0,0.0,0.0,0.0,0.0,0.0,0.0,0.0,0.0,0.0,0.0,-4.9207,-5.1332,-5.4968,-5.5387,-5.554,-5.5923,-5.4046,-5.2131,-5.0424,-4.7503,0.0,0.0,0.0,0.0,0.0,0.0,0.0,0.0,0.0,0.0,0.0,0.0,0.0,0.0,0.0,0.0,0.0,0.0,0.0,0.0,0.0,0.0,0.0,0.0,0.0,0.0,0.0,0.0,0.0,0.0,0.0,0.0,0.0,0.0,0.0,0.0,0.0,0.0,0.0,0.0,0.0,0.0,0.0,0.0,0.0,0.0,0.0,0.0,0.0,0.0,0.0,0.0,0.0,0.0,0.0,0.0,0.0,0.0,0.0,0.0,0.0,0.0,0.0,0.0,0.0,0.0,0.0,0.0,0.0,0.0,0.0,0.0,0.0,0.0,0.0,0.0,0.0,0.0,0.0,0.0,0.0,0.0,0.0,0.0,0.0,0.0,0.0,0.0,0.0,0.0,0.0,0.0,0.0,0.0,0.0,0.0,0.0,0.0,0.0,0.0,0.0,0.0,-5.0515,-5.1964,-5.4676,-5.4947,-5.4947,-5.4947,-5.3248,-5.1561,-5.01,-4.6672,0.0,0.0,0.0,0.0,0.0,0.0,0.0,0.0,0.0,0.0,0.0,0.0,0.0,0.0,0.0,0.0,0.0,0.0,0.0,0.0,0.0,0.0,0.0,0.0,0.0,0.0,0.0,0.0,0.0,0.0,0.0,0.0,0.0,0.0,0.0,0.0,0.0,0.0,0.0,0.0,0.0,0.0,0.0,0.0,0.0,0.0,0.0,0.0,0.0,0.0,0.0,0.0,0.0,0.0,0.0,0.0,0.0,0.0,0.0,0.0,0.0,0.0,0.0,0.0,0.0,0.0,0.0,0.0,0.0,0.0,0.0,0.0,0.0,0.0,0.0,0.0,0.0,0.0,0.0,0.0,0.0,0.0,0.0,0.0,0.0,0.0,0.0,0.0,0.0,0.0,0.0,0.0,0.0,0.0,0.0,0.0,0.0,0.0,0.0,0.0,0.0,0.0,-5.04,-5.2194,-5.4295,-5.4532,-5.4532,-5.4532,-5.2319,-5.0647,-5.005,-4.615,0.0,0.0,0.0,0.0,0.0,0.0,0.0,0.0,0.0,0.0,0.0,0.0,0.0,0.0,0.0,0.0,0.0,0.0,0.0,0.0,0.0,0.0,0.0,0.0,0.0,0.0,0.0,0.0,0.0,0.0,0.0,0.0,0.0,0.0,0.0,0.0,0.0,0.0,0.0,0.0,0.0,0.0,0.0,0.0,0.0,0.0,0.0,0.0,0.0,0.0,0.0,0.0,0.0,0.0,0.0,0.0,0.0,0.0,0.0,0.0,0.0,0.0,0.0,0.0,0.0,0.0,0.0,0.0,0.0,0.0,0.0,0.0,0.0,0.0,0.0,0.0,0.0,0.0,0.0,0.0,0.0,0.0,0.0,0.0,0.0,0.0,0.0,0.0,0.0,0.0,0.0,0.0,0.0,0.0,0.0,0.0,0.0,0.0,0.0,0.0,0.0,0.0,-4.927,-5.1065,0.0,-5.3766,-5.3841,-5.3372,-5.1986,-5.0215,-4.7882,0.0,0.0,0.0,0.0,0.0,0.0,0.0,0.0,0.0,0.0,0.0,0.0,0.0,0.0,0.0,0.0,0.0,0.0,0.0,0.0,0.0,0.0,0.0,0.0,0.0,0.0,0.0,0.0,0.0,0.0,0.0,0.0,0.0,0.0,0.0,0.0,0.0,0.0,0.0,0.0,0.0,0.0,0.0,0.0,0.0,0.0,0.0,0.0,0.0,0.0,0.0,0.0,0.0,0.0,0.0,0.0,0.0,0.0,0.0,0.0,0.0,0.0,0.0,0.0,0.0,0.0,0.0,0.0,0.0,0.0,0.0,0.0,0.0,0.0,0.0,0.0,0.0,0.0,0.0,0.0,0.0,0.0,0.0,0.0,0.0,0.0,0.0,0.0,0.0,0.0,0.0,0.0,0.0,0.0,0.0,0.0,0.0,0.0,0.0,0.0,0.0,0.0,-4.6452,-4.8416,-5.0225,0.0,-5.253,-5.2641,-5.2085,-5.0805,-4.8984,-4.6557,0.0,0.0,0.0,0.0,0.0,0.0,0.0,0.0,0.0,0.0,0.0,0.0,0.0,0.0,0.0,0.0,0.0,0.0,0.0,0.0,0.0,0.0,0.0,0.0,0.0,0.0,0.0,0.0,0.0,0.0,0.0,0.0,0.0,0.0,0.0,0.0,0.0,0.0,0.0,0.0,0.0,0.0,0.0,0.0,0.0,0.0,0.0,0.0,0.0,0.0,0.0,0.0,0.0,0.0,0.0,0.0,0.0,0.0,0.0,0.0,0.0,0.0,0.0,0.0,0.0,0.0,0.0,0.0,0.0,0.0,0.0,0.0,0.0,0.0,0.0,0.0,0.0,0.0,0.0,0.0,0.0,0.0,0.0,0.0,0.0,0.0,0.0,0.0,0.0,0.0,0.0,0.0,0.0,0.0,0.0,0.0,0.0,0.0,0.0,0.0,0.0,0.0,-4.5773,-4.8068,-4.9904,-5.0692,-5.0802,-5.0802,-5.0802,-4.8507,-4.691,0.0,0.0,0.0,0.0,0.0,0.0,0.0,0.0,0.0,0.0,0.0,0.0,0.0,0.0,0.0,0.0,0.0,0.0,0.0,0.0,0.0,0.0,0.0,0.0,0.0,0.0,0.0,0.0,0.0,0.0,0.0,0.0,0.0,0.0,0.0,0.0,0.0,0.0,0.0,0.0,0.0,0.0,0.0,0.0,0.0,0.0,0.0,0.0,0.0,0.0,0.0,0.0,0.0,0.0,0.0,0.0,0.0,0.0,0.0,0.0,0.0,0.0,0.0,0.0,0.0,0.0,0.0,0.0,0.0,0.0,0.0,0.0,0.0,0.0,0.0,0.0,0.0,0.0,0.0,0.0,0.0,0.0,0.0,0.0,0.0,0.0,0.0,0.0,0.0,0.0,0.0,0.0,0.0,0.0,0.0,0.0,0.0,0.0,0.0,0.0,0.0,0.0,0.0,-4.4966,-4.7719,-4.9684,-4.9941,-5.0472,-5.0582,-4.9994,-4.871,-4.693,-4.4495,0.0,0.0,0.0,0.0,0.0,0.0,0.0,0.0,0.0,0.0,0.0,0.0,0.0,0.0,0.0,0.0,0.0,0.0,0.0,0.0,0.0,0.0,0.0,0.0,0.0,0.0,0.0,0.0,0.0,0.0,0.0,0.0,0.0,0.0,0.0,0.0,0.0,0.0,0.0,0.0,0.0,0.0,0.0,0.0,0.0,0.0,0.0,0.0,0.0,0.0,0.0,0.0,0.0,0.0,0.0,0.0,0.0,0.0,0.0,0.0,0.0,0.0,0.0,0.0,0.0,0.0,0.0,0.0,0.0,0.0,0.0,0.0,0.0,0.0,0.0,0.0,0.0,0.0,0.0,0.0,0.0,0.0,0.0,0.0,0.0,0.0,0.0,0.0,0.0,0.0,0.0,0.0,0.0,0.0,0.0,0.0,0.0,0.0,0.0,0.0,0.0,0.0,-4.4158,-4.7058,-4.9077,-4.9077,-4.9517,-4.9627,-4.9114,-4.8012,-4.625,-4.3662,0.0,0.0,0.0,0.0,0.0,0.0,0.0,0.0,0.0,0.0,0.0,0.0,0.0,0.0,0.0,0.0,0.0,0.0,0.0,0.0,0.0,0.0,0.0,0.0,0.0,0.0,0.0,0.0,0.0,0.0,0.0,0.0,0.0,0.0,0.0,0.0,0.0,0.0,0.0,0.0,0.0,0.0,0.0,0.0,0.0,0.0,0.0,0.0,0.0,0.0,0.0,0.0,0.0,0.0,0.0,0.0,0.0,0.0,0.0,0.0,0.0,0.0,0.0,0.0,0.0,0.0,0.0,0.0,0.0,0.0,0.0,0.0,0.0,0.0,0.0,0.0,0.0,0.0,0.0,0.0,0.0,0.0,0.0,0.0,0.0,0.0,0.0,0.0,0.0,0.0,0.0,0.0,0.0,0.0,0.0,0.0,0.0,0.0,0.0,0.0,0.0,0.0,-4.3515,-4.6324,-4.8306,-4.8306,-4.8306,-4.8269,-4.8196,-4.6764,-4.5223,-4.3625,0.0,0.0,0.0,0.0,0.0,0.0,0.0,0.0,0.0,0.0,0.0,0.0,0.0,0.0,0.0,0.0,0.0,0.0,0.0,0.0,0.0,0.0,0.0,0.0,0.0,0.0,0.0,0.0,0.0,0.0,0.0,0.0,0.0,0.0,0.0,0.0,0.0,0.0,0.0,0.0,0.0,0.0,0.0,0.0,0.0,0.0,0.0,0.0,0.0,0.0,0.0,0.0,0.0,0.0,0.0,0.0,0.0,0.0,0.0,0.0,-4.6838,0.0,0.0,0.0,0.0,0.0,0.0,0.0,0.0,0.0,0.0,0.0,0.0,0.0,0.0,0.0,0.0,0.0,0.0,0.0,0.0,0.0,0.0,0.0,0.0,0.0,0.0,0.0,0.0,0.0,0.0,0.0,0.0,0.0,0.0,0.0,0.0,0.0,0.0,0.0,0.0,0.0,-4.3515,-4.6324,-4.8306,-4.8306,-4.8306,-4.8049,-4.7406,-4.6471,-4.5223,-4.3625,-4.1846,0.0,0.0,0.0,0.0,0.0,0.0,0.0,0.0,0.0,0.0,0.0,0.0,0.0,0.0,0.0,0.0,0.0,0.0,0.0,0.0,0.0,0.0,0.0,0.0,0.0,0.0,0.0,0.0,0.0,0.0,0.0,0.0,0.0,0.0,0.0,0.0,0.0,0.0,0.0,0.0,0.0,0.0,0.0,0.0,0.0,0.0,0.0,0.0,0.0,0.0,0.0,0.0,0.0,0.0,0.0,0.0,0.0,0.0,0.0,0.0,-4.8122,0.0,0.0,0.0,0.0,0.0,0.0,0.0,0.0,0.0,0.0,0.0,0.0,0.0,0.0,0.0,0.0,0.0,0.0,0.0,0.0,0.0,0.0,0.0,0.0,0.0,0.0,0.0,0.0,0.0,0.0,0.0,0.0,0.0,0.0,0.0,0.0,0.0,0.0,0.0,0.0,-4.3441,-4.5957,-4.7846,-4.8269,-4.7976,-4.7553,-4.7149,-4.603,-4.4819,-4.3588,-4.1992,0.0,0.0,0.0,0.0,0.0,0.0,0.0,0.0,0.0,0.0,0.0,0.0,0.0,0.0,0.0,0.0,0.0,0.0,0.0,0.0,0.0,0.0,0.0,0.0,0.0,0.0,0.0,0.0,0.0,0.0,0.0,0.0,0.0,0.0,0.0,0.0,0.0,0.0,0.0,0.0,0.0,0.0,0.0,0.0,0.0,0.0,0.0,0.0,0.0,0.0,0.0,0.0,0.0,-5.2234,-5.2637,-5.2637,-5.2637,-5.2527,-5.2344,-5.1006,-5.0545,-5.0729,0.0,0.0,0.0,0.0,0.0,0.0,0.0,0.0,0.0,0.0,0.0,0.0,0.0,0.0,0.0,0.0,0.0,0.0,0.0,0.0,0.0,0.0,0.0,0.0,0.0,-4.5626,-4.5333,0.0,0.0,0.0,0.0,0.0,0.0,0.0,0.0,0.0,0.0,0.0,0.0,-4.3387,-4.548,-4.7149,-4.7829,-4.7315,-4.6819,-4.6672,-4.5461,-4.4378,-4.3551,-4.2139,-4.0655,0.0,0.0,0.0,0.0,0.0,0.0,0.0,0.0,0.0,0.0,0.0,0.0,0.0,0.0,0.0,0.0,0.0,0.0,0.0,0.0,0.0,0.0,0.0,0.0,0.0,0.0,0.0,0.0,0.0,0.0,0.0,0.0,-4.8685,-4.9422,0.0,0.0,0.0,0.0,0.0,0.0,0.0,0.0,0.0,0.0,0.0,0.0,0.0,-5.183,-5.183,-5.3225,-5.3922,-5.3922,-5.473,-5.5155,-5.5155,-5.5155,-5.473,-5.4069,-5.3849,0.0,-5.0729,-4.9941,0.0,0.0,0.0,0.0,0.0,0.0,0.0,0.0,0.0,0.0,0.0,0.0,0.0,0.0,0.0,0.0,0.0,0.0,0.0,0.0,0.0,0.0,-4.7645,-4.6966,-4.6856,-4.6636,0.0,-4.3718,-4.2249,-4.2029,-4.1515,0.0,0.0,0.0,0.0,0.0,0.0,0.0,-4.3387,-4.5002,-4.6104,-4.6214,-4.6104,-4.5773,-4.5058,-4.4801,-4.4378,-4.3551,-4.2653,-4.1735,-4.0802,-3.935,0.0,0.0,0.0,0.0,0.0,0.0,0.0,0.0,0.0,0.0,0.0,0.0,0.0,0.0,0.0,0.0,0.0,0.0,0.0,0.0,0.0,0.0,0.0,0.0,0.0,0.0,0.0,0.0,0.0,-4.8123,-4.9189,-4.9073,-4.9758,-4.9884,0.0,0.0,0.0,0.0,0.0,0.0,0.0,0.0,0.0,-5.2784,-5.3151,-5.3555,-5.3995,-5.473,-5.506,-5.506,-5.5904,-5.6271,-5.6271,-5.5794,-5.539,-5.5023,-5.4106,-5.3151,-5.2087,-5.1279,-5.0418,-4.95,0.0,0.0,0.0,0.0,-4.5993,-4.548,-4.6324,-4.6562,0.0,0.0,0.0,0.0,0.0,0.0,0.0,0.0,0.0,0.0,0.0,0.0,0.0,-4.7736,-4.7773,-4.7682,-4.7315,-4.57,-4.4048,0.0,-4.269,-4.1919,-4.0194,0.0,0.0,0.0,0.0,-4.258,-4.3387,-4.4525,-4.5406,-4.5847,-4.5516,-4.5076,-4.4728,-4.4305,-4.3864,-4.3515,-4.3167,-4.2616,-4.1809,-4.0655,-3.9313,0.0,0.0,0.0,0.0,0.0,0.0,0.0,0.0,0.0,0.0,0.0,0.0,0.0,0.0,0.0,0.0,0.0,0.0,0.0,0.0,0.0,0.0,0.0,0.0,0.0,0.0,0.0,0.0,-4.9055,-4.9934,-4.9469,-5.0778,-5.1059,0.0,0.0,0.0,0.0,0.0,0.0,-5.2564,-5.2601,-5.3261,-5.4656,-5.4913,-5.5317,-5.5904,-5.6088,-5.6198,-5.6198,-5.6822,-5.7116,-5.7079,-5.6271,-5.5794,-5.5522,-5.4106,-5.3408,-5.3151,-5.2344,-5.1279,-5.0124,-4.926,-4.7939,-4.6544,-4.6764,-4.6691,-4.6617,-4.7462,-4.7755,-4.7755,-4.7755,0.0,-4.6214,-4.6214,0.0,0.0,0.0,0.0,-4.6397,-4.7186,-4.7406,-4.7553,-4.8159,-4.8306,-4.8306,-4.8306,-4.7205,-4.5773,0.0,-4.3754,-4.2854,-4.0855,0.0,0.0,0.0,0.0,-4.258,-4.3387,-4.4011,-4.4635,-4.5223,-4.4745,-4.4378,-4.4378,-4.3828,-4.3515,-4.3515,-4.3515,-4.3204,-4.2616,-4.1846,-4.0728,-3.935,0.0,0.0,0.0,0.0,0.0,0.0,0.0,0.0,0.0,0.0,0.0,0.0,0.0,0.0,0.0,0.0,0.0,0.0,0.0,0.0,0.0,0.0,0.0,0.0,0.0,0.0,0.0,0.0,0.0,-5.186,-5.328,0.0,0.0,0.0,0.0,-5.194,-5.2637,-5.3445,-5.4252,-5.4289,-5.4656,-5.55,-5.6271,-5.6712,-5.6748,-5.7483,-5.7886,-5.7886,-5.7923,-5.7923,-5.7923,-5.7116,-5.6308,-5.5559,-5.4693,-5.3922,-5.3151,-5.2344,-5.194,-5.1793,-5.0986,-4.9664,-4.8269,-4.9133,-4.8893,-4.8306,-4.915,-4.9463,-4.9463,-4.9463,-4.8379,-4.7039,-4.7039,-4.6507,0.0,0.0,-4.7039,-4.7223,-4.8049,-4.8233,-4.8269,-4.8306,-4.8306,-4.8306,-4.8306,-4.7626,-4.6782,0.0,-4.4525,-4.3204,-4.2323,0.0,-4.2213,-4.2176,-4.2249,-4.258,-4.3387,-4.3551,-4.3588,-4.3625,-4.3588,-4.3534,-4.3534,-4.3515,-4.3515,-4.3515,-4.3515,-4.3478,-4.3441,-4.2653,-4.1846,-4.0985,-3.9423,0.0,0.0,0.0,0.0,0.0,0.0,0.0,0.0,0.0,0.0,0.0,0.0,0.0,0.0,0.0,0.0,0.0,0.0,0.0,0.0,0.0,0.0,0.0,0.0,0.0,0.0,0.0,0.0,-5.2131,-5.3938,0.0,-5.2931,-5.3518,-5.3849,-5.3555,-5.4289,-5.5097,-5.5904,-5.5941,-5.6308,-5.7116,-5.7409,-5.7556,-5.7556,-5.785,-5.7997,-5.7997,-5.7997,-5.7997,-5.796,-5.7189,-5.6345,-5.5537,-5.473,-5.3959,-5.3167,-5.2894,-5.2454,-5.1977,-5.1683,-5.0875,-4.9958,-5.0251,-5.0178,-4.9958,-5.0251,-5.0362,-5.0288,-4.9757,-4.882,-4.7846,-4.7846,-4.7682,-4.7498,-4.7792,-4.7846,-4.792,-4.8233,-4.8306,-4.8306,-4.8306,-4.8306,-4.8306,-4.8306,-4.7663,-4.7003,-4.6709,-4.5369,-4.3864,-4.2543,-4.2727,-4.291,-4.2396,-4.2727,-4.3167,-4.3478,-4.3515,-4.3515,-4.3515,-4.3515,-4.3515,-4.3515,-4.3515,-4.3515,-4.3515,-4.3515,-4.3515,-4.3515,-4.3204,-4.2433,-4.1132,-4.0545,-3.8946,0.0,0.0,0.0,0.0,0.0,0.0,0.0,0.0,0.0,0.0,0.0,0.0,0.0,0.0,0.0,0.0,0.0,0.0,0.0,0.0,0.0,0.0,0.0,0.0,0.0,0.0,-5.3074,-5.2996,-5.5027,-5.5757,-5.4179,-5.4987,-5.55,-5.5244,-5.5941,-5.6638,-5.7189,-5.7189,-5.7446,-5.796,-5.7997,-5.7997,-5.7997,-5.7997,-5.7997,-5.7997,-5.7997,-5.7997,-5.796,-5.7189,-5.6345,-5.5537,-5.473,-5.3959,-5.3203,-5.3203,-5.2894,-5.2417,-5.2417,-5.1903,-5.1206,-5.1206,-5.1206,-5.1206,-5.1206,-5.1022,-5.0655,-4.9867,-4.9003,-4.8306,-4.8306,-4.8306,-4.8306,-4.8306,-4.8306,-4.8306,-4.8306,-4.8306,-4.8306,-4.8306,-4.8306,-4.8306,-4.8306,-4.7883,-4.7406,-4.7149,-4.5792,-4.4378,-4.3277,-4.3314,-4.3331,-4.28,-4.3167,-4.3515,-4.3515,-4.3515,-4.3515,-4.3515,-4.3515,-4.3515,-4.3515,-4.324,-4.3135,-4.3232,-4.2739,-4.2519,-4.2794,-4.2556,-4.1987,-4.1132,-4.0377,-3.8834,-3.6425,0.0,0.0,0.0,0.0,0.0,0.0,0.0,0.0,0.0,0.0,0.0,0.0,0.0,0.0,0.0,0.0,0.0,0.0,0.0,0.0,0.0,0.0,0.0,-4.993,-5.2608,-5.4503,-5.4528,-5.6551,-5.735,-5.5794,-5.7116,-5.7703,-5.6932,-5.7593,-5.8033,-5.8033,-5.7997,-5.7997,-5.7997,-5.7997,-5.7997,-5.7997,-5.7997,-5.7997,-5.7997,-5.7997,-5.7997,-5.796,-5.7189,-5.6381,-5.5537,-5.4766,-5.3959,-5.3203,-5.3203,-5.3203,-5.3203,-5.3203,-5.2711,-5.205,-5.205,-5.205,-5.205,-5.205,-5.1499,-5.0692,-4.9904,-4.904,-4.8343,-4.8306,-4.8306,-4.8306,-4.8306,-4.8306,-4.8306,-4.8306,-4.8306,-4.8306,-4.8306,-4.8306,-4.8306,-4.8306,-4.8306,-4.8086,-4.7296,-4.5865,-4.4764,-4.4709,-4.4048,-4.3551,-4.3515,-4.3515,0.0,-4.3515,-4.3515,-4.3515,-4.3515,-4.3515,-4.3515,-4.3515,-4.28,-4.2446,-4.2676,-4.1232,-4.0691,-4.1357,-4.0708,-4.0563,-4.1046,-3.893,-3.7462,-3.6725,0.0,0.0,0.0,0.0,0.0,0.0,0.0,0.0,0.0,0.0,0.0,0.0,0.0,0.0,0.0,0.0,0.0,0.0,0.0,0.0,0.0,-4.9289,-5.0672,-5.0825,-5.2528,-5.4176,-5.5237,-5.6433,-5.7219,-5.7327,-5.829,-5.8804,-5.8561,-5.8744,-5.8877,-5.8877,-5.8327,-5.7997,-5.7997,-5.7997,-5.7997,-5.7997,-5.7997,-5.7997,-5.7997,-5.7997,-5.7997,-5.7997,-5.7776,-5.6895,-5.5574,-5.5354,-5.4473,-5.3203,-5.3203,-5.3203,-5.3203,-5.3203,-5.3078,-5.2858,-5.2858,-5.2858,-5.2858,-5.2858,-5.2344,-5.1536,-5.0729,-4.9921,-4.9114,-4.8489,-4.8306,-4.8306,-4.8306,-4.8306,-4.8306,-4.8306,-4.8306,-4.8306,-4.8306,-4.8306,-4.8306,-4.8306,-4.8306,-4.8233,-4.8012,-4.7149,-4.6049,-4.4911,-4.4525,-4.4158,-4.3571,-4.3515,0.0,-4.3515,-4.3515,-4.3515,-4.3515,-4.3515,-4.3515,-4.3515,-4.3294,-4.3048,-4.2732,-4.2296,-4.171,-4.0927,-4.0713,-4.0415,-3.9997,-3.7665,-3.6648,0.0,0.0,0.0,0.0,0.0,0.0,0.0,0.0,0.0,0.0,0.0,0.0,0.0,0.0,0.0,0.0,0.0,0.0,0.0,0.0,0.0,0.0,-5.0439,-5.1792,-5.2131,-5.3456,-5.4741,-5.5596,-5.6982,-5.8033,-5.8464,-5.9245,-5.9551,-5.9221,-5.9184,-5.9038,-5.8731,-5.8253,-5.7997,-5.7997,-5.7997,-5.7997,-5.7997,-5.7997,-5.7997,-5.7997,-5.7997,-5.7997,-5.7997,-5.7997,-5.7116,0.0,-5.5596,-5.4693,-5.3203,-5.3203,-5.3203,0.0,0.0,0.0,0.0,0.0,-5.3203,-5.3203,-5.3203,-5.2454,-5.1426,-5.0949,-4.9994,-4.8967,-4.8453,-4.8306,-4.8306,-4.8306,-4.8306,-4.8306,-4.8306,-4.8306,-4.8306,-4.8306,-4.8306,-4.8306,-4.8306,-4.8306,-4.8306,-4.8306,-4.7626,0.0,-4.5443,-4.4929,-4.4452,-4.3608,-4.3515,-4.3515,-4.3515,-4.3515,-4.3515,-4.3515,-4.3515,-4.3428,-4.3178,-4.2832,0.0,0.0,0.0,-4.0465,-3.9399,-3.9287,0.0,0.0,0.0,0.0,0.0,0.0,0.0,0.0,-3.6621,-3.6946,0.0,0.0,0.0,0.0,0.0,0.0,0.0,0.0,0.0,0.0,0.0,0.0,0.0,0.0,0.0,0.0,-5.1454,-5.2672,-5.3416,-5.4699,-5.561,-5.5695,-5.7614,-5.9005,-5.9184,-6.0015,-6.0236,-5.9515,-5.9368,-5.9001,-5.8327,0.0,0.0,0.0,0.0,-5.7997,-5.7997,-5.7997,-5.7997,-5.7997,-5.7997,-5.7997,-5.7997,-5.7923,-5.7042,-5.5574,-5.55,-5.4583,-5.3203,-5.3203,-5.3203,-5.3203,-5.3203,-5.3203,-5.3203,-5.3203,-5.3203,-5.3203,-5.3203,0.0,0.0,-5.0839,-4.9738,-4.8416,-4.8343,-4.8306,-4.8306,-4.8306,-4.8306,-4.8306,-4.8306,-4.8306,-4.8306,-4.8306,-4.8306,-4.8306,-4.8306,-4.8306,-4.8269,-4.8196,-4.759,-4.6819,-4.592,-4.5186,-4.4452,-4.3608,-4.3515,-4.3515,-4.3515,-4.3515,-4.3515,-4.3515,0.0,0.0,-4.2732,-4.195,-4.1299,-4.092,-3.941,-3.8225,-3.7569,-3.7201,-3.702,-3.702,-3.656,-3.6346,-3.645,-3.645,-3.6498,-3.6554,-3.5563,-3.5879,0.0,0.0,0.0,0.0,0.0,0.0,0.0,0.0,0.0,0.0,0.0,0.0,0.0,0.0,0.0,-5.0845,-5.2266,-5.3315,-5.3484,-5.4264,-5.5024,-5.5638,-5.668,-5.781,-5.9089,-6.0529,-6.13,-6.1153,-6.0529,-6.0089,-5.9942,-5.8694,-5.7997,-5.7997,-5.7997,-5.7997,-5.7997,-5.7997,-5.7997,-5.7997,0.0,0.0,-5.796,-5.7336,-5.6528,-5.5537,-5.4913,-5.4106,-5.3203,-5.3203,-5.3203,-5.3203,-5.3203,-5.3203,-5.3203,-5.3203,-5.3203,-5.3203,-5.3203,-5.2564,-5.1646,-5.1022,-5.0141,-4.9243,-4.8526,-4.8306,0.0,-4.8306,-4.8306,-4.8306,-4.8306,-4.8306,-4.8306,-4.8306,-4.8306,-4.8306,-4.8306,-4.8306,-4.8122,-4.7443,-4.7223,-4.6636,-4.5186,-4.4819,-4.4452,-4.3608,-4.3515,-4.3515,-4.3515,-4.3515,-4.3515,-4.3515,-4.3124,-4.2808,-4.2693,-4.2119,-4.1505,-4.0932,-3.911,-3.7986,-3.7817,-3.6604,-3.592,-3.592,-3.581,-3.605,-3.6718,-3.6718,-3.7024,-3.7602,-3.7609,-3.7787,0.0,0.0,0.0,0.0,0.0,0.0,0.0,0.0,0.0,0.0,0.0,-4.7699,-4.8815,0.0,-5.0879,-5.1623,-5.2739,-5.3518,-5.3518,-5.3816,-5.4451,-5.5581,-5.712,-5.8529,-5.97,-6.1263,-6.2034,-6.163,-6.086,-6.0236,-5.9808,-5.8657,-5.7997,-5.7997,-5.7997,-5.7997,-5.7997,-5.7997,-5.7997,-5.7997,-5.7997,-5.7997,-5.796,-5.7189,-5.6345,-5.5537,-5.473,-5.3959,-5.3203,-5.3203,-5.3203,-5.3203,-5.3203,-5.3203,-5.3203,-5.3203,-5.3203,-5.3203,-5.3203,-5.2417,-5.1316,-5.0949,-4.9958,-4.8857,-4.8416,-4.8306,-4.8306,-4.8306,-4.8306,-4.8306,-4.8306,-4.8306,-4.8306,-4.8306,-4.8306,-4.8306,-4.8306,-4.7976,-4.759,-4.7186,-4.6452,-4.5645,-4.4838,-4.4378,-4.3975,-4.3534,-4.3515,-4.3515,-4.3515,-4.3515,-4.3374,-4.3142,-4.2846,-4.2478,-4.1853,-4.1263,-4.0838,-4.0504,-3.92,-3.8294,-3.7922,-3.6806,-3.6197,-3.6197,-3.6197,-3.6569,-3.7347,-3.7347,-3.755,-3.7889,-3.8425,-3.8451,0.0,0.0,0.0,0.0,0.0,0.0,0.0,-4.6244,-4.6718,-4.8071,-4.8413,-4.8951,-5.027,-5.1014,-5.1657,-5.2401,-5.3078,-5.3518,-5.3518,-5.3518,-5.4076,-5.5524,-5.7699,-5.9401,-6.0297,-6.1887,-6.2548,-6.1887,-6.0933,-6.0126,-5.9478,-5.851,-5.7997,-5.7997,-5.7997,-5.7997,-5.7997,-5.7997,-5.7997,-5.7997,-5.7997,-5.7923,-5.774,-5.6932,-5.6124,-5.5317,-5.4509,-5.3812,-5.3203,-5.3203,-5.3203,-5.3203,-5.3203,-5.3203,-5.3203,-5.3203,-5.3203,-5.3167,-5.3041,-5.2013,-5.0765,-5.0618,-4.9554,-4.8306,-4.8306,-4.8306,-4.8306,-4.8306,-4.8306,-4.8306,-4.8306,-4.8306,-4.8306,-4.8306,-4.8306,-4.8306,-4.8306,-4.7663,-4.7039,-4.6892,-4.5682,-4.4654,-4.4488,-4.3938,-4.3515,-4.3515,-4.3515,-4.3515,-4.3515,-4.3428,-4.3178,-4.2732,-4.2518,-4.1916,-4.0827,-4.0343,-4.0045,-3.991,-3.9174,-3.8464,-3.7719,-3.7134,-3.6795,-3.6795,-3.6931,-3.7381,-3.8125,-3.8125,-3.8193,-3.8328,-3.8937,-3.8802,-4.4784,-4.4615,-4.4784,-4.5399,-4.5635,-4.6041,0.0,-4.8173,-4.8849,-4.9661,-5.0371,-5.1082,-5.1894,-5.2131,-5.2435,-5.3247,-5.345,-5.3518,-5.3518,-5.3518,-5.4076,-5.5524,-5.7255,-5.8874,-6.026,-6.1839,-6.2768,-6.267,-6.1263,-6.0382,-6.0272,-5.8841,-5.7997,-5.7997,-5.7997,-5.7997,-5.7997,-5.7997,-5.7997,-5.7997,-5.7997,-5.7629,-5.6932,-5.6088,-5.528,-5.4473,-5.3702,-5.3277,-5.3203,-5.3203,-5.3203,-5.3203,-5.3203,-5.3203,-5.3203,-5.3203,-5.3203,-5.3093,-5.238,-5.1536,-5.0692,-4.9978,-4.9077,-4.8306,-4.8306,-4.8306,-4.8306,-4.8306,-4.8306,-4.8306,-4.8306,-4.8306,-4.8306,-4.8306,-4.8306,-4.8306,-4.8306,-4.7663,-4.6892,-4.6177,-4.5333,-4.4488,-4.3754,-4.3551,-4.3515,-4.3515,-4.3515,-4.3515,-4.3515,-4.3087,-4.2751,-4.2693,-4.1803,-4.0943,-4.0254,-4.0129,-3.9842,-3.914,-3.843,-3.7686,-3.6965,-3.6829,-3.6795,-3.6795,-3.7449,-3.8125,-3.887,-3.887,-3.9208,-3.9876,-3.9943,-3.9605,-4.4682,-4.4891,-4.5297,-4.5635,-4.6007,-4.6616,-4.7665,-4.8142,-4.8815,-5.0405,-5.1014,-5.1589,-5.2773,-5.301,-5.3112,-5.345,-5.3856,-5.3991,-5.3551,-5.3856,-5.4529,-5.5571,-5.7187,-5.8788,-6.0264,-6.186,-6.278,-6.278,-6.13,-6.0419,-6.0419,-5.8877,-5.7997,-5.7997,-5.7997,-5.7997,-5.7997,-5.7997,-5.7997,-5.7997,-5.7997,-5.7813,-5.7446,-5.6161,-5.4913,-5.3702,-5.3371,-5.3203,-5.3203,-5.3203,-5.3203,-5.3203,-5.3203,-5.3203,-5.3203,-5.3203,-5.3203,-5.3078,-5.227,-5.1463,-5.0655,-4.9867,-4.9003,-4.8306,-4.8306,-4.8306,-4.8306,-4.8306,-4.8306,-4.8306,-4.8306,-4.8306,-4.8306,-4.8306,-4.8035,-4.7858,-4.8229,-4.7029,-4.5892,-4.5902,-4.4856,-4.3901,-4.3551,-4.3515,-4.3515,-4.3515,-4.3232,-4.305,-4.305,-4.2521,-4.2041,-4.1703,-4.0955,-4.0377,-4.0138,-4.0113,-3.9977,-3.9673,-3.8937,-3.8193,-3.7483,-3.7032,-3.6795,-3.6795,-3.7516,-3.8261,-3.9005,-3.9411,-3.9808,-4.0113,-4.0113,-3.9943,-4.4615,-4.4993,-4.5399,-4.5399,-4.594,-4.6684,-4.7428,-4.7936,-4.8748,-5.0541,-5.1217,-5.186,-5.2976,-5.3348,-5.3585,-5.3788,-5.4262,-5.4465,-5.416,-5.4397,-5.5042,-5.6217,-5.7444,-5.8864,-6.0555,-6.1998,-6.278,-6.278,-6.13,-6.0419,-6.0419,-5.8877,-5.7997,-5.7997,-5.7997,-5.7997,-5.7997,-5.7997,-5.7997,-5.7997,-5.7997,-5.7886,-5.7593,-5.5978,-5.4509,-5.3203,-5.3203,-5.3203,-5.3203,-5.3203,-5.3203,-5.3203,-5.3203,-5.3203,-5.3203,-5.3203,-5.3203,-5.3078,-5.227,-5.161,-5.0949,-4.9941,-4.915,-4.86,-4.8379,-4.8306,-4.8306,-4.8306,-4.8306,-4.8306,-4.8306,-4.8306,-4.8306,-4.8306,-4.7838,-4.7591,-4.8153,-4.658,-4.518,-4.5792,-4.4599,-4.3515,-4.3515,-4.3515,-4.3463,-4.3303,-4.2808,-4.2518,-4.2674,-4.2021,-4.1353,-4.0733,-4.0319,-4.0113,-4.0113,-4.0113,-3.9943,-3.9537,-3.8971,-3.8261,-3.7313,-3.6975,-3.6795,-3.6795,-3.7719,-3.8464,-3.9005,-3.974,-4.0113,-4.0113,-4.0113,-4.0113,-4.4615,-4.4615,-4.4649,-4.4649,-4.5196,-4.594,-4.665,-4.7936,-4.9187,-4.9965,-5.1251,-5.2266,-5.2334,-5.2976,-5.3721,-5.4431,-5.4566,-5.4837,-5.5547,-5.504,-5.5446,-5.7751,-5.8125,-5.9107,-6.1324,-6.2328,-6.278,-6.278,-6.13,-6.0419,-6.0419,-5.8877,-5.7997,-5.7997,-5.7997,-5.7997,-5.7997,-5.7997,-5.7997,-5.7997,-5.7997,-5.7593,-5.6785,-5.517,-5.3995,-5.3203,-5.3203,-5.3203,-5.3203,-5.3203,-5.3203,-5.3203,-5.3203,-5.3203,-5.3203,-5.3203,-5.3203,-5.3078,-5.227,-5.1977,-5.1683,-5.0124,-4.9574,-4.939,-4.8563,-4.8306,-4.8306,-4.8306,-4.8306,-4.8306,-4.8306,-4.8306,-4.8306,-4.8306,-4.7838,-4.7591,-4.8153,-4.658,-4.518,-4.5792,-4.4599,-4.3515,-4.3515,-4.3515,-4.3321,-4.2789,-4.2221,-4.2041,-4.2616,-4.1682,-4.0709,-4.0179,-4.0113,-4.0113,-4.0113,-4.0113,-3.9503,-3.8058,-3.7956,-3.7246,-3.5735,-3.64,-3.6795,-3.6795,-3.8251,-3.8971,-3.9005,-3.974,-4.0113,-4.0113,-4.0113,-4.0113,-4.4615,-4.4615,-4.4716,-4.5196,-4.5534,-4.5906,-4.6616,-4.7564,-4.8477,-4.9221,-5.0135,-5.098,-5.1488,-5.2198,-5.2976,-5.3754,-5.4702,-5.5446,-5.5683,-5.5919,-5.6337,-5.7146,-5.8231,-5.9437,-6.0665,-6.152,0.0,-6.2768,-6.0799,-5.9832,-6.0382,-5.8877,-5.7997,-5.7997,-5.7997,-5.7997,-5.7997,-5.7997,-5.7997,-5.7997,-5.7997,-5.7593,-5.6785,-5.5684,-5.4766,-5.3959,-5.3424,-5.3203,-5.3203,-5.3203,-5.3203,-5.3203,-5.3203,-5.3203,-5.3203,-5.3203,-5.3203,-5.3078,-5.227,-5.1977,-5.172,-5.0124,-4.961,-4.9463,-4.8563,-4.8306,-4.8306,-4.8306,-4.8306,-4.8306,-4.8306,-4.8306,-4.8209,-4.7797,-4.7198,-4.6796,-4.6999,-4.5726,-4.4857,-4.5915,-4.4808,-4.3832,-4.4234,-4.3561,-4.277,-4.22,-4.1617,-4.115,-4.1001,-4.0601,-4.0294,-4.0138,-4.0113,-4.0113,-4.0113,-4.0113,-3.991,-3.9402,-3.8903,-3.8193,-3.7155,-3.6907,-3.6795,-3.6795,-3.7753,-3.8497,-3.9005,-3.974,-4.0113,-4.0113,-4.0113,-4.0113,-4.4615,-4.4615,-4.4716,-4.5196,-4.5297,-4.55,-4.6244,-4.6786,-4.7327,-4.8071,-4.8781,-4.9458,-4.99,-5.1034,-5.2181,-5.2942,-5.4533,-5.5894,-5.644,-5.6918,-5.7561,-5.8407,-5.9209,-6.0148,-6.1166,-6.1227,0.0,-6.2707,-6.0835,-5.9869,-6.0382,-5.8877,-5.7997,-5.7997,-5.7997,-5.7997,-5.7997,-5.7997,-5.7997,-5.7997,-5.7997,-5.7446,-5.6345,-5.5831,-5.4987,-5.3959,-5.3445,-5.3203,-5.3203,-5.3203,-5.3203,-5.3203,-5.3203,-5.3203,-5.3203,-5.3203,-5.3203,-5.3151,-5.2601,-5.2254,-5.1828,-5.0493,-4.9872,-4.9471,-4.8612,-4.8314,-4.8306,-4.8306,-4.8306,-4.8306,-4.8306,-4.8134,-4.7858,-4.747,-4.6728,-4.6161,-4.6342,-4.5296,-4.4708,-4.5939,-4.489,-4.3907,-4.4363,-4.312,-4.1916,-4.1552,-4.099,-4.0552,-4.0417,-4.0229,-4.0113,-4.0113,-4.0113,-4.0113,-4.0113,-4.0113,-4.0011,-3.974,-3.9242,-3.8667,-3.7922,-3.7449,-3.7178,-3.7178,-3.7922,-3.8531,-3.9005,-3.974,-4.0113,-4.0113,-4.0113,-4.0113,-4.4649,-4.4649,-4.4615,-4.4615,-4.4615,-4.4784,-4.5466,-4.5698,-4.5964,-4.6583,-4.7357,-4.7898,-4.7868,-4.9683,-5.1464,-5.2194,-5.4244,-5.6275,-5.7863,-5.807,-5.899,-6.1256,-6.0946,-6.1134,-6.2583,-6.141,0.0,-6.267,0.0,-6.0309,-6.0419,-5.8877,-5.7997,-5.7997,-5.7997,-5.7997,-5.7997,-5.7997,-5.7997,-5.7997,-5.7997,-5.7189,-5.5721,-5.5633,-5.4766,-5.3314,-5.3261,-5.3203,-5.3203,-5.3203,-5.3203,-5.3203,-5.3203,-5.3203,-5.3203,-5.3203,-5.3203,-5.3167,-5.3146,-5.2702,-5.1945,-5.1164,-5.0371,-4.9613,-4.8717,-4.839,-4.8323,-4.8267,-4.8287,-4.8306,-4.8306,-4.7838,-4.7385,-4.7363,-4.6401,-4.5648,-4.6209,-4.5257,-4.4669,-4.5925,-4.4937,-4.3876,-4.3824,-4.2233,-4.0932,-4.0874,-4.0441,-4.0303,-4.0803,-4.0417,-4.0113,-4.0113,-4.0113,-4.0113,-4.0113,-4.0113,-3.9808,-3.9073,-3.9039,-3.8734,-3.799,-3.7956,-3.7956,-3.7956,-3.8633,-3.9005,-3.9039,-3.9774,-4.0113,-4.0113,-4.0113,-4.0113,-4.5263,-4.5026,-4.4615,-4.4615,-4.4615,-4.4649,-4.4852,-4.5651,-4.6309,-4.6021,-4.6914,-4.7626,-4.7145,-4.9399,-5.1494,-5.2194,-5.523,-5.7798,-5.8692,-5.9391,-6.0033,-6.0636,-6.1063,-6.147,-6.1875,-6.2071,0.0,0.0,-6.0199,-5.9134,-6.0346,-5.8877,-5.7997,-5.7997,-5.7997,-5.7997,-5.7997,-5.7997,-5.7997,-5.7997,-5.7997,-5.7776,-5.7336,-5.6147,-5.5354,-5.4913,-5.3739,-5.3203,-5.3203,-5.3203,-5.3203,-5.3203,-5.3203,-5.3203,-5.3203,-5.3203,-5.3203,-5.3124,-5.2576,-5.2266,-5.1945,-5.1164,-5.0767,-5.0266,-4.8378,-4.8511,-4.9055,-4.7938,-4.7975,-4.8306,-4.8306,-4.7838,-4.7277,-4.6774,-4.6063,-4.5425,-4.5115,-4.4797,-4.4734,-4.5511,-4.5235,-4.4369,-4.281,-4.2114,-4.1447,-4.047,-4.0179,-4.0129,-4.0303,-4.0179,-4.0113,-4.0113,-4.0113,-4.0113,-4.0113,-4.0113,-4.0011,-3.9842,-3.9842,-3.9503,-3.8734,-3.8734,-3.8734,-3.8734,-3.8903,-3.9276,-3.9842,-4.0011,-4.0113,-4.0113,-4.0113,-4.0113,-4.6075,-4.5872,-4.5495,-4.5162,-4.506,-4.4993,-4.4682,-4.5158,-4.5706,-4.5631,-4.5994,-4.633,-4.6246,-4.8737,-5.1032,-5.1768,-5.5367,-5.8452,-5.9562,-6.0391,-6.1056,-6.1405,-6.1848,-6.2115,-6.2132,-6.2218,-6.2438,0.0,-6.0493,-5.9465,-6.0346,-5.8877,-5.7997,-5.7997,-5.7997,-5.7997,-5.7997,-5.7997,-5.7997,-5.7997,-5.7997,-5.7813,-5.7446,-5.6528,-5.5941,-5.5537,0.0,-5.3739,-5.3702,-5.3371,-5.3203,-5.3203,-5.3203,-5.3203,-5.3203,-5.3203,-5.3203,-5.3103,-5.2358,-5.1922,-5.1522,-5.0769,-5.0277,-4.9791,-4.8901,-4.8662,-4.8692,-4.8447,-4.7928,-4.7533,-4.7818,-4.7255,-4.6472,-4.6088,-4.5545,-4.5008,-4.4665,-4.4615,-4.4674,-4.4932,-4.4903,-4.4246,-4.2399,-4.1867,-4.133,-4.0265,-4.0113,-4.0113,-4.0113,-4.0113,-4.0113,-4.0113,-4.0113,-4.0113,-4.0113,-4.0113,-4.0113,-4.0113,-4.0113,-3.991,-3.9503,-3.9503,-3.9503,-3.9503,-3.9503,-3.9706,-4.0113,-4.0113,-4.0113,-4.0113,-4.0113,-4.0113,-4.6786,-4.6718,-4.6481,-4.5737,-4.5568,-4.5399,-4.475,-4.4637,-4.4852,-4.5399,-4.5169,-4.4981,-4.552,-4.8136,-5.0474,-5.1361,-5.516,-5.8579,-6.0251,-6.1136,-6.1914,-6.2693,-6.278,-6.278,-6.278,-6.2181,-6.1998,-6.2622,-6.1263,-6.0419,-6.0419,-5.8877,-5.7997,-5.7997,-5.7997,-5.7997,-5.7997,-5.7997,-5.7997,-5.7997,-5.7997,-5.7629,-5.6969,-5.6748,-5.6271,-5.5537,0.0,0.0,-5.4179,-5.3592,-5.3298,-5.3203,-5.3203,-5.3203,-5.3203,-5.3082,-5.306,-5.2937,-5.2112,-5.1444,-5.085,-5.023,-4.9526,-4.9021,-4.9495,-4.8751,-4.7951,-4.8908,-4.7845,-4.6507,-4.711,-4.6401,-4.5494,-4.5494,-4.5035,-4.4615,-4.4615,-4.4615,-4.4544,-4.4362,-4.4406,-4.3973,-4.2516,-4.1758,-4.1102,-4.0383,-4.018,-4.0113,-4.0113,-4.0113,-4.0113,-4.0113,-4.0113,-4.0113,-4.0113,-4.0113,-4.0113,-4.0113,-4.0113,-4.0113,-4.0113,-4.0113,-4.0113,-4.0113,-4.0113,-4.0113,-4.0113,-4.0113,-4.0113,-4.0113,-4.0113,-4.0113,-4.6786,-4.6346,-4.5703,-4.4959,-4.4818,-4.4784,-4.4649,-4.5015,-4.5372,-4.5468,-4.579,-4.6136,-4.6198,-4.8734,-5.112,-5.1927,-5.5408,-5.8592,-6.0178,-6.1101,-6.191,-6.2707,-6.278,-6.278,-6.278,-6.267,0.0,0.0,-6.0933,-6.0419,-6.0419,-5.8877,-5.7997,-5.7997,-5.7997,-5.7997,-5.7997,-5.7997,-5.7997,-5.7997,-5.7997,-5.7923,-5.774,-5.6418,-5.5721,-5.5537,-5.473,0.0,-5.3445,-5.3995,-5.3812,-5.3203,-5.3203,-5.3203,-5.3124,-5.2531,-5.2312,-5.2112,-5.0823,-5.0279,-5.0174,-5.0061,-4.9901,-4.9608,-4.8538,-4.841,-4.8381,-4.7397,-4.6748,-4.6413,-4.653,-4.6039,-4.5494,-4.5494,-4.5035,-4.4615,-4.4615,-4.4615,-4.4609,-4.455,-4.4544,-4.4272,-4.3328,-4.2569,-4.1847,-4.1136,-4.0493,-4.0113,-4.0113,-4.0113,-4.0113,-4.0113,-4.0113,-4.0113,-4.0113,-4.0113,-4.0113,-4.0113,-4.0113,-4.0113,-4.0113,-4.0113,-4.0113,-4.0113,-4.0113,-4.0113,-4.0113,-4.0113,-4.0113,-4.0113,-4.0113,-4.0113,-4.827,-4.7656,-4.6684,-4.5906,-4.5432,-4.4959,-4.4147,-4.4788,-4.539,-4.5034,-4.5709,-4.6389,-4.6389,-4.8318,-5.0294,-5.1483,-5.4251,-5.7085,-5.9545,-6.05,-6.1447,-6.2658,-6.278,-6.278,-6.278,-6.278,-6.2475,-6.1667,-6.086,-6.0236,-5.9795,-5.8657,-5.7997,-5.7997,-5.7997,-5.7997,-5.7997,-5.7997,-5.7997,-5.7997,-5.7997,-5.7997,-5.796,-5.6785,-5.6235,-5.6139,-5.4529,0.0,-5.3791,-5.3375,-5.32,-5.3203,-5.3203,-5.2959,-5.2576,-5.2206,-5.1898,-5.1419,-5.0397,-5.0039,-4.9947,-4.9576,-4.9492,-4.9423,-4.911,-4.8408,-4.7765,-4.7744,-4.6621,-4.552,-4.584,-4.5468,-4.5008,-4.5008,-4.4797,-4.4615,-4.4615,-4.4615,-4.4615,-4.4615,-4.4615,-4.4316,-4.3511,-4.2794,-4.2049,-4.1305,-4.0561,-4.0113,-4.0113,-4.0113,-4.0113,-4.0113,-4.0113,-4.0113,-4.0113,-4.0113,-4.0113,-4.0113,-4.0113,-4.0113,-4.0113,-4.0113,-4.0113,-4.0113,-4.0113,-4.0113,-4.0113,-4.0113,-4.0113,-4.0113,-4.0113,-4.0113,-4.951,-4.9097,-4.8046,-4.6874,-4.6334,-4.5747,-4.4218,-4.4793,-4.5575,-4.5121,-4.5906,-4.6646,-4.6761,-4.8031,-4.9579,-5.1129,-5.2906,-5.5256,-5.8631,-5.9589,-6.0567,-6.234,-6.267,-6.278,-6.278,-6.2633,0.0,-6.141,-6.0456,0.0,-5.8988,-5.8327,-5.7997,-5.7997,-5.7997,-5.7997,-5.7997,-5.7997,-5.7997,-5.7997,-5.7997,-5.7923,-5.7703,-5.6759,-5.6237,-5.5935,-5.3942,0.0,0.0,-5.2746,-5.2608,-5.298,-5.3124,-5.2747,-5.2089,-5.1946,-5.1444,-5.077,-5.0096,-4.9844,-4.9693,-4.9199,-4.9018,-4.9107,-4.9605,-4.8407,-4.7014,-4.8102,-4.6546,-4.4692,-4.5196,-4.4961,-4.4615,-4.4615,-4.4615,-4.4615,-4.4615,-4.4615,-4.4547,-4.4378,-4.4316,-4.4079,-4.3301,-4.2557,-4.188,-4.1305,-4.0561,-4.0113,-4.0113,-4.0113,-4.0113,-4.0113,-4.0113,-4.0113,-4.0113,-4.0113,-4.0113,-4.0113,-4.0113,-4.0113,-4.0113,-4.0113,-4.0113,-4.0113,-4.0113,-4.0113,-4.0113,-4.0113,-4.0113,-4.0113,-4.0113,-4.0113,-4.9124,-4.9388,-4.9162,-4.6482,-4.6661,-4.7146,-4.5649,-4.583,-4.6483,-4.7016,-4.7205,-4.747,-4.8035,-4.8902,-5.0057,-5.1648,-5.2168,-5.3699,-5.7601,-5.8287,-5.9241,-6.1471,-6.2365,-6.278,-6.278,-6.2144,-6.1374,-6.0566,0.0,0.0,-5.8107,-5.8033,-5.7997,-5.7997,-5.7997,-5.7997,-5.7997,-5.7997,-5.7997,-5.7997,-5.7997,-5.7629,-5.6873,-5.5461,-5.4363,-5.3556,-5.2768,0.0,0.0,-5.2713,-5.281,-5.2289,-5.2937,-5.2747,-5.2042,-5.1419,-5.0743,-5.0004,-4.9346,-4.9077,-4.9077,-4.9049,-4.9018,-4.8984,-4.9077,-4.803,-4.6815,-4.6927,-4.5818,-4.4615,-4.4665,-4.4637,-4.4615,-4.4615,-4.4615,-4.4615,-4.4615,-4.4615,-4.4378,-4.3673,-4.3511,-4.3267,-4.2523,-4.1779,-4.1271,-4.1204,-4.0561,-4.0113,-4.0113,-4.0113,-4.0113,-4.0113,-4.0113,-4.0113,-4.0113,-4.0113,-4.0113,-4.0113,-4.0113,-4.0113,-4.0113,-4.0113,-4.0113,-4.0113,-4.0113,-4.0113,-4.0113,-4.0113,-4.0113,-4.0113,-4.0113,-4.0113,-4.9952,-5.0044,-4.9629,-4.7972,-4.7623,-4.7274,-4.5738,-4.6211,-4.6834,-4.628,-4.7124,-4.7879,-4.7777,-4.8031,-4.8669,-4.9847,-5.0056,-5.1173,-5.4269,-5.5089,-5.6606,-5.9859,-6.0555,-6.1292,0.0,0.0,-6.108,-5.9795,0.0,0.0,-5.7997,-5.7997,-5.7997,-5.7997,-5.7997,-5.7997,-5.7997,-5.7997,-5.7776,-5.7299,-5.7299,-5.6639,-5.5449,-5.4315,-5.3421,-5.2636,-5.1438,0.0,0.0,-5.1247,-5.1386,-5.1519,-5.1825,-5.1469,-5.0788,-5.0527,-5.0004,-4.9376,-4.9077,-4.9018,-4.9018,-4.9018,-4.9018,-4.8917,-4.8477,-4.7631,-4.6718,-4.6244,-4.5399,-4.4615,-4.4615,-4.4615,-4.4615,-4.4615,-4.4615,-4.4615,-4.4615,-4.4215,-4.3775,-4.3443,-4.3064,-4.2625,-4.2354,-4.1677,-4.1204,-4.1204,-4.0561,-4.0113,-4.0113,-4.0113,-4.0113,-4.0113,-4.0113,-4.0113,-4.0113,-4.0113,-4.0113,-4.0113,-4.0113,-4.0113,-4.0113,-4.0113,-4.0113,-4.0113,-4.0113,-4.0113,-4.0113,-4.0113,-4.0113,-4.0113,-4.0113,-4.035,-5.0469,-5.0736,-5.0295,-4.9086,-4.871,-4.8146,-4.6355,-4.6823,-4.7388,-4.6392,-4.7336,-4.8153,-4.7756,-4.7674,-4.7882,-4.8556,-4.8876,-4.9781,-5.1815,-5.2886,-5.4634,-5.7639,-5.8232,-5.9184,-6.1233,-6.1129,-6.0309,0.0,0.0,0.0,-5.7997,-5.7997,-5.7997,-5.7997,-5.7997,-5.7997,-5.7997,-5.7997,-5.7593,-5.6822,-5.6822,-5.5879,-5.4194,-5.3385,-5.2503,-5.1552,0.0,0.0,0.0,-5.0146,-5.0307,-5.0796,-5.1008,-5.0635,-5.0004,-5.0004,-4.958,-4.9018,-4.9018,-4.9018,-4.9018,-4.9018,-4.9018,-4.8815,-4.7868,-4.7225,-4.665,-4.5906,-4.5162,-4.4615,-4.4615,-4.4615,-4.4615,-4.4615,-4.4615,-4.4547,-4.4282,-4.3809,-4.3274,-4.2834,-4.232,-4.1914,-4.1677,-4.1204,-4.0865,-4.0865,-4.0451,-4.0113,-4.0113,-4.0113,-4.0113,-4.0113,-4.0113,-4.0113,-4.0113,-4.0113,-4.0113,-4.0113,-4.0113,-4.0113,-4.0113,-4.0113,-4.0113,-4.0113,-4.0113,-4.0113,-4.0113,-4.0113,-4.0113,-4.0113,-4.0316,-4.0933,-5.0421,-5.1435,-5.1448,-4.9305,-4.9767,-5.0163,-4.7874,-4.7838,-4.8287,-4.8287,-4.8287,-4.8306,-4.8287,-4.8287,-4.8387,-4.8555,-4.9203,-5.0042,-5.1089,-5.2537,-5.3814,-5.465,-5.5431,-5.6553,-5.8083,-5.8835,-5.8914,0.0,0.0,0.0,-5.7997,-5.7997,-5.7997,-5.7997,-5.7997,-5.7997,-5.7997,-5.7997,-5.7593,-5.6822,-5.6822,-5.5574,-5.3267,-5.262,-5.1454,0.0,0.0,0.0,0.0,-4.9722,-5.0004,-5.009,-5.0823,-5.0635,-5.0004,-5.0004,-4.958,-4.9018,-4.9018,-4.9018,-4.9018,-4.9018,-4.9018,-4.8748,-4.7259,-4.6786,-4.665,-4.5906,-4.5162,-4.4615,-4.4615,-4.4615,-4.4615,-4.4615,-4.4615,-4.4378,-4.3606,-4.3409,-4.2997,-4.1508,-4.1238,-4.0967,-4.0248,-4.0113,-4.0113,-4.0113,-4.0113,-4.0113,-4.0113,-4.0113,-4.0113,-4.0113,-4.0113,-4.0113,-4.0113,-4.0113,-4.0113,-4.0113,-4.0113,-4.0113,-4.0113,-4.0113,-4.0113,-4.0113,-4.0113,-4.0113,-4.0113,-4.0113,-4.0113,-4.0113,-4.0832,-4.1982,-4.9699,-5.0586,-5.0867,-4.9637,-4.9679,-4.9625,-4.8311,-4.8153,-4.8306,-4.8306,-4.8306,-4.8306,-4.8306,-4.8306,-4.8393,-4.8615,-4.8852,-4.919,-4.9631,-5.0553,-5.1894,-5.3737,-5.6017,-5.7647,0.0,0.0,-5.8323,0.0,0.0,0.0,-5.7997,-5.7997,-5.7997,-5.7997,-5.7997,-5.7997,-5.7997,-5.7997,-5.7299,-5.5978,-5.553,-5.4061,-5.1775,-5.1041,0.0,0.0,0.0,0.0,0.0,-4.9226,-4.9316,-4.9346,-4.958,-4.9521,-4.9316,-4.9316,-4.9165,-4.9018,-4.9018,-4.9018,-4.9018,-4.9018,-4.868,-4.8071,-4.709,-4.6786,-4.6515,-4.5297,-4.4784,-4.4615,-4.4615,-4.4615,-4.4615,-4.4615,-4.4181,-4.3707,-4.3443,-4.2625,-4.1779,-4.1305,-4.0798,-4.0383,-4.0146,-4.0113,-4.0113,-4.0113,-4.0113,-4.0113,-4.0113,-4.0113,-4.0113,-4.0113,-4.0113,-4.0113,-4.0113,-4.0113,-4.0113,-4.0113,-4.0113,-4.0113,-4.0113,-4.0113,-4.0113,-4.0113,-4.0113,-4.0113,-4.0113,-4.0113,-4.0383,-4.0865,-4.161,-4.2489,-4.928,-4.9978,-5.0215,-4.9721,-4.961,-4.939,-4.8489,-4.8306,-4.8306,-4.8306,-4.8306,-4.8306,-4.8306,-4.8114,-4.8031,-4.8269,-4.8523,-4.8776,-4.8995,-4.9872,-5.107,-5.2547,-5.4904,0.0,0.0,-5.6885,0.0,0.0,0.0,0.0,-5.7997,-5.7997,-5.7997,-5.7997,-5.7997,-5.785,-5.7556,-5.7556,-5.6598,-5.4748,-5.4315,-5.2895,-5.0662,-5.023,0.0,0.0,0.0,0.0,0.0,-4.9018,-4.9018,-4.9018,-4.9018,-4.9018,-4.9018,-4.9018,-4.9018,-4.9018,-4.9018,-4.9018,-4.9018,-4.9018,-4.8308,-4.7361,-4.6616,-4.6177,-4.5771,-4.4852,-4.4615,-4.4615,-4.4615,-4.4615,-4.4615,-4.4615,-4.3978,-4.3308,-4.3064,-4.2049,-4.1136,-4.0832,-4.0417,-4.0113,-4.0113,-4.0113,-4.0113,-4.0113,-4.0113,-4.0113,-4.0113,-4.0113,-4.0113,-4.0113,-4.0113,-4.0113,-4.0113,-4.0113,-4.0113,-4.0113,-4.0113,-4.0113,-4.0113,-4.0113,-4.0113,-4.0113,-4.0113,-4.0113,-4.0113,-4.0383,-4.0865,-4.1644,-4.2354,-4.3132,0.0,-4.95,-4.95,-4.95,-4.95,-4.9317,-4.8489,-4.8306,0.0,-4.8306,-4.8306,-4.8343,-4.8379,-4.7834,-4.7499,-4.7725,-4.83,-4.8776,-4.8954,-5.0266,-5.124,-5.1349,-5.2632,0.0,-5.3567,-5.4811,0.0,0.0,0.0,0.0,-5.7797,-5.7867,-5.7904,-5.7844,-5.7831,-5.751,-5.6822,-5.6703,-5.5527,-5.3291,-5.3195,-5.2064,-5.0004,-4.9947,0.0,0.0,0.0,0.0,0.0,-4.9018,-4.9018,-4.9018,-4.9018,-4.9018,-4.9018,-4.9018,-4.9018,-4.9018,-4.9018,-4.9018,-4.8984,-4.8883,-4.7902,-4.665,-4.5872,-4.5128,-4.4615,-4.4615,-4.4615,-4.4615,-4.4615,-4.4615,-4.4615,-4.4615,-4.3978,-4.32,-4.2455,-4.1711,-4.1001,-4.0316,-4.018,-4.018,-4.018,-4.018,-4.018,-4.0113,-4.0113,-4.0113,-4.0113,-4.0113,-4.0113,-4.0113,-4.0113,-4.0113,-4.0113,-4.0113,-4.0113,-4.0113,-4.0113,-4.0113,-4.0113,-4.0113,-4.0113,-4.0113,-4.0146,-4.0146,-4.0113,-4.0899,-4.1644,-4.232,-4.3064,-4.3842,-4.8489,0.0,-4.86,-4.86,-4.86,-4.8563,0.0,-4.8306,-4.8306,-4.8306,-4.8306,-4.8489,-4.915,-4.8254,-4.7811,-4.9,-4.8494,-4.8174,-4.8747,-5.0218,-5.1613,-5.2807,-5.3278,-5.3705,-5.4267,0.0,0.0,0.0,0.0,-5.6059,-5.6223,-5.6825,-5.6876,-5.625,-5.6299,-5.649,-5.6799,-5.5665,-5.4508,-5.3291,-5.2254,-5.1193,-5.0074,-4.9496,0.0,0.0,0.0,0.0,-4.9018,-4.9018,-4.9018,-4.9018,-4.9018,-4.9018,-4.9018,-4.9018,-4.9018,-4.9018,-4.9018,-4.9018,-4.8815,-4.7665,-4.709,-4.6549,-4.5229,-4.475,-4.4615,-4.4615,-4.4615,-4.4615,-4.4615,-4.4615,-4.4615,-4.4615,-4.3978,-4.32,-4.2455,-4.1711,-4.117,-4.0967,-4.0933,-4.0933,-4.0933,-4.0933,-4.073,-4.018,-4.0113,-4.0113,-4.0113,-4.0113,-4.0113,-4.0113,-4.0113,-4.0113,-4.0113,-4.0113,-4.0113,-4.0113,-4.0113,-4.0113,-4.0113,-4.0113,-4.0113,-4.0113,-4.0629,-4.0663,-4.0113,-4.1407,-4.2117,-4.232,-4.3064,-4.3842,-4.8306,-4.86,-4.8893,-4.8893,-4.8893,-4.8893,-4.8893,-4.86,-4.8306,-4.8306,-4.8306,-4.8453,-4.893,-4.8436,-4.8235,-4.9102,-4.8687,-4.8515,-4.9306,-5.0453,-5.1657,-5.2807,-5.2942,-5.3277,0.0,0.0,0.0,0.0,0.0,-5.535,-5.5695,-5.6087,-5.5999,-5.5221,-5.4857,-5.4856,-5.5243,-5.4101,-5.2947,-5.1792,-5.1046,-5.031,-4.9585,-4.9168,-4.9018,0.0,0.0,0.0,-4.9018,-4.9018,-4.9018,-4.9018,-4.9018,-4.9018,-4.9018,-4.9018,-4.9018,-4.9018,-4.9018,-4.9018,-4.8748,-4.7259,-4.6786,-4.6515,-4.5055,-4.4615,-4.4615,-4.4615,-4.4615,-4.4615,-4.4615,-4.4615,-4.4615,-4.4615,-4.3978,-4.3274,-4.2895,-4.2219,-4.1711,-4.1711,-4.1711,-4.1711,-4.1711,-4.1711,-4.1576,-4.1162,-4.1128,-4.0993,-4.0629,-4.0595,-4.0485,-4.0146,-4.0113,-4.0113,-4.0113,-4.0113,-4.0113,-4.0113,-4.0113,-4.0113,-4.0113,-4.0113,-4.0113,-4.0113,-4.0832,-4.1001,-4.0595,-4.2083,-4.2794,-4.2828,-4.3606,-4.4181,-4.8269,-4.904,-4.9721,-4.9463,-4.95,-4.9574,-4.9427,-4.882,-4.8306,-4.8306,-4.8306,-4.8379,-4.8636,-4.8634,-4.8731,-4.9138,-4.9109,-4.9337,-5.0125,-5.0811,-5.1522,-5.2367,-5.2469,0.0,0.0,0.0,0.0,0.0,0.0,-5.4695,-5.532,-5.5466,-5.5142,-5.4275,-5.3619,-5.3133,-5.2881,-5.2278,-5.1302,-5.0004,-4.989,-4.9551,-4.9018,-4.9018,-4.9018,0.0,0.0,0.0,-4.9018,-4.9018,-4.9018,-4.9018,-4.9018,-4.9018,-4.9018,-4.9018,-4.9018,-4.9018,-4.9018,-4.8951,-4.8612,-4.7225,-4.6718,-4.638,-4.5021,-4.4615,-4.4615,-4.4615,-4.4615,-4.4615,-4.4615,-4.4615,-4.4615,-4.4615,-4.4079,-4.3572,-4.3409,-4.2929,-4.2455,-4.2455,-4.2455,-4.2455,-4.2455,-4.2455,-4.2422,-4.232,-4.2286,-4.2049,-4.1441,-4.1373,-4.1136,-4.0519,-4.0451,-4.0451,-4.0451,-4.035,-4.0282,-4.0282,-4.018,-4.0113,-4.0113,-4.0113,-4.0146,-4.0282,-4.1001,-4.1373,-4.1373,-4.2861,-4.3511,-4.3409,-4.4215,-4.4615,-4.8122,-4.9444,-5.0288,-4.8857,-4.904,-4.9427,-4.8673,-4.8416,-4.8306,-4.8306,-4.8306,-4.8746,-5.0141,-4.9419,-4.9235,-5.1186,-5.0498,-5.0041,0.0,0.0,-5.1758,-5.3145,0.0,0.0,0.0,0.0,0.0,0.0,0.0,-5.3717,-5.3849,-5.4419,-5.4102,-5.2689,-5.2615,-5.1919,-5.0608,-5.0414,-5.0222,-5.0004,-4.9402,-4.9107,-4.9018,-4.9018,-4.9018,0.0,0.0,-4.9018,-4.9018,-4.9018,-4.9018,-4.9018,-4.9018,-4.9018,-4.9018,-4.9018,-4.9018,-4.9018,-4.9018,-4.8612,-4.7936,-4.709,-4.638,-4.5703,-4.4886,-4.4615,-4.4615,-4.4615,-4.4615,-4.4615,-4.4615,-4.4615,-4.4615,-4.4615,-4.4513,-4.4215,-4.3572,-4.3308,-4.3234,-4.3234,-4.3234,-4.3234,-4.3234,-4.3234,-4.3031,-4.2388,-4.2286,-4.2252,-4.2151,-4.2117,-4.2083,-4.1948,-4.1948,-4.1948,-4.1948,-4.1373,-4.1035,-4.1035,-4.0451,-4.0113,-4.0113,-4.0113,-4.0392,-4.1035,-4.1745,-4.2117,-4.2117,-4.3667,-4.4079,-4.3409,-4.4215,-4.4615,-4.6911,-4.8196,-4.926,-4.8489,-4.9591,-5.0785,-5.0398,-4.9958,-4.9517,-4.9077,-4.9003,-4.9224,-4.9994,-4.9939,-5.0301,-5.1849,-5.127,-5.0771,-5.114,-5.0879,-5.115,0.0,0.0,0.0,0.0,0.0,0.0,0.0,0.0,0.0,-5.2875,-5.3168,-5.2654,-5.1182,-5.1154,-5.0639,-4.9526,-4.9487,-4.9462,-4.9462,-4.9168,-4.9018,-4.9018,-4.9018,-4.9018,-4.9018,0.0,-4.9018,-4.9018,-4.9018,-4.9018,-4.9018,-4.9018,-4.9018,-4.9018,-4.9018,-4.9018,-4.9018,-4.9018,-4.8545,-4.78,-4.7022,-4.6312,-4.5568,-4.4818,-4.4615,-4.4615,-4.4615,-4.4615,-4.4615,-4.4615,-4.4615,-4.4615,-4.4615,-4.4615,-4.4513,-4.4113,-4.4045,-4.4045,-4.4045,-4.4045,-4.4045,-4.4045,-4.4045,-4.391,-4.3599,-4.3565,-4.3369,-4.2963,-4.2895,-4.2726,-4.232,-4.2286,-4.2286,-4.2286,-4.1982,-4.1441,-4.0663,-4.0282,-4.0113,-4.0113,-4.0485,-4.0832,-4.1204,-4.232,-4.2895,-4.2895,-4.4012,-4.4412,-4.4045,-4.4445,-4.4615,-4.5847,-4.7058,-4.8269,-4.8086,-4.9591,-5.1242,-5.161,-5.0949,-5.0141,-4.9941,-4.9904,-4.9941,-5.0124,-5.0802,-5.1544,-5.2075,-5.1657,-5.124,-5.1222,-5.0566,-5.0642,-5.2131,0.0,0.0,0.0,0.0,0.0,0.0,0.0,0.0,-5.2334,-5.2131,-5.1454,-5.0135,-5.0101,-4.9729,-4.9018,-4.9018,-4.9018,-4.9018,-4.9018,-4.9018,-4.9018,-4.9018,-4.9018,-4.9018,-4.9018,-4.9018,-4.9018,-4.9018,-4.9018,-4.9018,-4.9018,-4.9018,-4.9018,-4.9018,-4.9018,-4.9018,-4.9018,-4.8545,-4.7804,-4.7259,-4.6447,-4.5602,-4.5026,-4.475,-4.4615,-4.4615,-4.4615,-4.4615,-4.4615,-4.4615,-4.4615,-4.4615,-4.4615,-4.4615,-4.4615,-4.4615,-4.4615,-4.4615,-4.4615,-4.4615,-4.4615,-4.4615,-4.4615,-4.4615,-4.4615,-4.4378,-4.3775,-4.3673,-4.347,-4.2895,-4.2855,-4.276,-4.2557,-4.2557,-4.1982,-4.0688,-4.062,-4.062,-4.062,-4.117,-4.1542,-4.1711,-4.2801,-4.3477,-4.3673,-4.4282,-4.4615,-4.4615,-4.4615,-4.4615,-4.57,-4.7058,-4.8122,-4.7369,-4.7883,-4.8967,-5.0545,-4.9627,-4.8893,-5.0398,-5.0729,-5.0949,-5.1683,-5.2491,-5.2827,-5.2208,-5.154,-5.1122,-5.1176,0.0,-5.0642,0.0,0.0,0.0,0.0,0.0,0.0,0.0,0.0,0.0,-5.23,-5.1657,0.0,-5.0101,-5.0101,-4.9729,-4.9018,-4.9018,-4.9018,-4.9018,-4.9018,-4.9018,-4.9018,-4.9018,-4.9018,-4.9018,-4.9018,-4.9018,-4.9018,-4.9018,-4.9018,-4.9018,-4.9018,-4.9018,-4.9018,-4.9018,-4.9018,-4.9018,-4.9018,-4.8545,-4.7872,-4.7838,-4.6887,-4.5703,-4.5635,-4.5128,-4.4615,-4.4615,-4.4615,-4.4615,-4.4615,-4.4615,-4.4615,-4.4615,-4.4615,-4.4615,-4.4615,-4.4615,-4.4615,-4.4615,-4.4615,-4.4615,-4.4615,-4.4615,-4.4615,-4.4615,-4.4615,-4.4581,-4.4513,-4.4513,-4.4513,-4.4445,-4.4445,-4.4113,-4.3375,-4.3308,-4.2997,-4.2185,-4.2117,-4.2117,-4.2117,-4.2185,-4.2523,-4.3206,-4.3341,-4.3775,-4.4513,-4.4581,-4.4615,-4.4615,-4.4615,-4.4615,-4.4305,-4.5957,-4.748,-4.7186,-4.77,-4.8746,-5.0435,-5.0692,-5.0765,-5.1426,-5.1536,-5.1499,-5.1279,-5.2747,-5.3544,-5.2232,-5.1947,-5.1871,-5.1888,-5.0868,0.0,0.0,0.0,0.0,0.0,0.0,0.0,0.0,0.0,0.0,0.0,-5.0676,-5.0168,-4.9424,-4.9424,-4.9289,-4.9018,-4.9018,-4.9018,-4.9018,-4.9018,-4.9018,-4.9018,-4.9018,-4.9018,-4.9018,-4.9018,-4.9018,-4.9018,-4.9018,-4.9018,-4.9018,-4.9018,-4.9018,-4.9018,-4.9018,-4.9018,-4.9018,-4.9018,-4.8545,-4.7906,-4.7906,-4.6921,-4.5703,-4.5703,-4.5162,-4.4615,-4.4615,-4.4615,-4.4615,-4.4615,-4.4615,-4.4615,-4.4615,-4.4615,-4.4615,-4.4615,-4.4615,-4.4615,-4.4615,-4.4615,-4.4615,-4.4615,-4.4615,-4.4615,-4.4615,-4.4615,-4.4615,-4.4615,-4.4615,-4.4615,-4.4615,-4.4615,-4.4479,-4.4181,-4.4147,-4.4012,-4.3768,-4.2828,-4.2286,-4.2286,-4.2726,-4.3132,-4.3375,-4.391,-4.4282,-4.4615,-4.4615,-4.4615,-4.4615,-4.4615,-4.4615,-4.3916,-4.548,-4.7113,-4.7113,-4.7883,-4.9077,-5.0472,-5.1022,-5.1463,-5.2234,-5.216,-5.1903,-5.161,-5.2711,-5.3353,0.0,-5.2316,-5.2156,-5.192,0.0,0.0,0.0,0.0,0.0,0.0,0.0,0.0,0.0,0.0,0.0,0.0,-4.9864,-4.9526,0.0,-4.9018,-4.9018,-4.9018,-4.9018,-4.9018,-4.9018,-4.9018,-4.9018,-4.9018,-4.9018,-4.9018,-4.9018,-4.9018,-4.9018,-4.9018,-4.9018,-4.9018,-4.9018,-4.9018,-4.9018,-4.9018,-4.9018,-4.9018,-4.9018,-4.9018,-4.868,-4.8274,-4.8274,-4.7259,-4.6041,-4.6041,-4.5365,-4.4615,-4.4615,-4.4615,-4.4615,-4.4615,-4.4615,-4.4615,-4.4615,-4.4615,-4.4615,-4.4615,-4.4615,-4.4615,-4.4615,-4.4615,-4.4615,-4.4615,-4.4615,-4.4615,-4.4615,-4.4615,-4.4615,-4.4615,-4.4615,-4.4615,-4.4615,-4.4615,-4.4615,-4.4615,-4.4615,-4.4615,-4.4615,-4.3633,-4.3058,-4.3058,-4.3504,-4.3775,-4.3775,-4.4316,-4.4615,-4.4615,-4.4615,-4.4615,-4.4615,-4.4615,-4.4615,-4.4795,-4.5865,-4.7113,-4.7113,-4.8379,-4.9831,-5.0618,-5.0178,-5.0308,-5.2711,-5.2564,-5.2234,-5.3041,-5.2527,-5.227,-5.3078,-5.2576,-5.1874,-5.1189,0.0,0.0,0.0,0.0,0.0,0.0,0.0,0.0,0.0,0.0,0.0,0.0,-4.939,-4.9018,0.0,-4.9018,-4.9018,-4.9018,-4.9018,-4.9018,-4.9018,-4.9018,-4.9018,-4.9018,-4.9018,-4.9018,-4.9018,-4.9018,-4.9018,-4.9018,-4.9018,-4.9018,-4.9018,-4.9018,-4.9018,-4.9018,-4.9018,-4.9018,-4.9018,-4.9018,-4.9018,-4.9018,-4.8984,-4.8003,-4.6786,-4.6786,-4.5737,-4.4615,-4.4615,-4.4615,-4.4615,-4.4615,-4.4615,-4.4615,-4.4615,-4.4615,-4.4615,-4.4615,-4.4615,-4.4615,-4.4615,-4.4615,-4.4615,-4.4615,-4.4615,-4.4615,-4.4615,-4.4615,-4.4615,-4.4615,-4.4615,-4.4615,-4.4615,-4.4615,-4.4615,-4.4615,-4.4615,-4.4615,-4.4615,-4.4615,-4.4615,-4.4615,-4.4615,-4.4615,-4.4615,-4.4615,-4.4615,-4.4615,-4.4615,-4.4615,-4.4615,-4.4615,-4.4615,-4.4113,-4.5443,-4.7113,-4.7113,-4.8783,-5.0655,-5.1463,-5.1463,-5.1646,-5.2931,-5.3004,-5.2747,-5.2417,-5.2637,0.0,-5.2417,-5.2213,-5.1874,0.0,0.0,0.0,0.0,0.0,0.0,0.0,0.0,0.0,0.0,0.0,0.0,0.0,-4.912,-4.9018,0.0,-4.9018,-4.9018,-4.9018,-4.9018,-4.9018,-4.9018,-4.9018,-4.9018,-4.9018,-4.9018,-4.9018,-4.9018,-4.9018,-4.9018,-4.9018,-4.9018,-4.9018,-4.9018,-4.9018,-4.9018,-4.9018,-4.9018,-4.9018,-4.9018,-4.9018,-4.9018,-4.8917,-4.8409,-4.7597,-4.6684,-4.6177,-4.5365,-4.4615,-4.4615,-4.4615,-4.4615,-4.4615,-4.4615,-4.4615,-4.4615,-4.4615,-4.4615,-4.4615,-4.4615,-4.4615,-4.4615,-4.4615,-4.4615,-4.4615,-4.4615,-4.4615,-4.4615,-4.4615,-4.4615,-4.4615,-4.4615,-4.4615,-4.4615,-4.4615,-4.4615,-4.4615,-4.4615,-4.4615,-4.4615,-4.4615,-4.4615,-4.4615,-4.4615,-4.4615,-4.4615,-4.4615,-4.4615,-4.4615,-4.4615,-4.4615,-4.4615,-4.4615,-4.4615,-4.5105,-4.625,-4.7736,-4.8397,-4.9701,-5.1096,-5.2234,-5.2491,-5.2601,-5.3093,-5.2968,-5.2674,-5.2527,-5.2601,0.0,-5.2491,-5.2521,0.0,0.0,0.0,0.0,0.0,0.0,0.0,0.0,0.0,0.0,0.0,0.0,0.0,0.0,-4.9018,0.0,0.0,-4.9018,-4.9018,-4.9018,-4.9018,-4.9018,-4.9018,-4.9018,-4.9018,-4.9018,-4.9018,-4.9018,-4.9018,-4.9018,-4.8849,-4.8612,-4.8883,-4.8646,-4.8173,-4.8443,-4.8376,-4.8139,-4.8139,-4.8139,-4.8139,-4.8139,-4.8139,-4.8037,-4.7631,-4.6955,-4.6278,-4.5838,-4.5162,-4.4615,-4.4615,-4.4615,-4.4615,-4.4615,-4.4615,-4.4615,-4.4615,-4.4615,-4.4615,-4.4615,-4.4615,-4.4615,-4.4615,-4.4615,-4.4615,-4.4615,-4.4615,-4.4615,-4.4615,-4.4615,-4.4615,-4.4615,-4.4615,-4.4615,-4.4615,-4.4615,-4.4615,-4.4615,-4.4615,-4.4615,-4.4615,-4.4615,-4.4615,-4.4615,-4.4615,-4.4615,-4.4615,-4.4615,-4.4615,-4.4615,-4.4615,-4.4615,-4.4615,-4.4615,-4.4615,-4.6943,-4.7628,-4.8731,-5.0288,-5.0875,-5.1389,-5.2894,-5.3203,-5.3203,-5.3203,-5.2637,-5.2344,-5.3078,-5.2601,-5.2344,-5.3078,0.0,0.0,0.0,0.0,0.0,0.0,0.0,0.0,0.0,0.0,0.0,0.0,0.0,0.0,0.0,-4.9018,0.0,-4.9018,-4.9018,-4.9018,-4.9018,-4.9018,-4.9018,0.0,-4.9018,-4.9018,-4.9018,-4.9018,-4.9018,-4.9018,-4.9018,-4.8578,-4.7939,-4.8714,-4.8139,-4.6853,-4.7631,-4.7462,-4.6786,-4.6786,-4.6786,-4.6786,-4.6786,-4.6786,-4.6786,-4.6718,-4.6244,-4.5703,-4.5635,-4.5128,-4.4615,-4.4615,-4.4615,-4.4615,-4.4615,-4.4615,-4.4615,-4.4615,-4.4615,-4.4615,-4.4615,-4.4615,-4.4615,-4.4615,-4.4615,-4.4615,-4.4615,-4.4615,-4.4615,-4.4615,-4.4615,-4.4615,-4.4615,-4.4615,-4.4615,-4.4615,-4.4615,-4.4615,-4.4615,-4.4615,-4.4615,-4.4615,-4.4615,-4.4615,-4.4615,-4.4615,-4.4615,-4.4615,-4.4615,-4.4615,-4.4615,-4.4615,-4.4615,-4.4615,-4.4615,-4.4615,-4.5938,-4.7164,-4.8951,-4.9671,-5.1279,-5.2763,-5.3093,-5.3203,-5.3203,-5.3203,-5.3078,-5.3004,-5.3167,-5.3078,-5.3004,0.0,0.0,0.0,0.0,0.0,0.0,0.0,0.0,0.0,0.0,0.0,0.0,0.0,0.0,0.0,-4.9018,-4.9018,0.0,-4.9018,-4.9018,-4.9018,-4.9018,-4.9018,-4.9018,0.0,-4.9018,-4.9018,-4.9018,-4.9018,-4.9018,-4.9018,-4.9018,-4.8578,-4.7939,-4.8714,-4.8139,-4.6853,-4.7631,-4.7462,-4.6786,-4.6786,-4.6786,-4.6786,-4.6786,-4.6786,-4.6684,-4.6109,-4.5838,-4.5602,-4.4993,-4.475,-4.4615,-4.4615,-4.4615,-4.4615,-4.4615,-4.4615,-4.4615,-4.4615,-4.4615,-4.4615,-4.4615,-4.4615,-4.4615,-4.4615,-4.4615,-4.4615,-4.4615,-4.4615,-4.4615,-4.4615,-4.4615,-4.4615,-4.4615,-4.4615,-4.4615,-4.4615,-4.4615,-4.4615,-4.4615,-4.4615,-4.4615,-4.4615,-4.4615,-4.4615,-4.4615,-4.4615,-4.4615,-4.4615,-4.4615,-4.4615,-4.4615,-4.4615,-4.4615,-4.4615,-4.4615,-4.4615,-4.651,-4.7334,-4.863,-4.9855,-5.1683,-5.3203,-5.3203,-5.3203,-5.3203,-5.3203,-5.3203,-5.3203,-5.3203,-5.3203,-5.3203,0.0,0.0,0.0,0.0,0.0,0.0,0.0,0.0,0.0,0.0,0.0,0.0,0.0,0.0,-4.9018,-4.9018,-4.9018,-4.9018,-4.9018,-4.9018,-4.9018,-4.9018,-4.9018,-4.9018,-4.9018,-4.9018,-4.9018,-4.9018,-4.9018,-4.9018,-4.8984,-4.8646,-4.8071,-4.7394,-4.78,-4.7056,-4.5833,-4.6549,-4.6413,-4.5766,-4.5766,-4.5766,-4.5766,-4.5766,-4.5766,-4.5698,-4.5297,-4.5162,-4.5094,-4.4716,-4.4615,-4.4615,-4.4615,-4.4615,-4.4615,-4.4615,-4.4615,-4.4615,-4.4615,-4.4615,-4.4615,-4.4615,-4.4615,-4.4615,-4.4615,-4.4615,-4.4615,-4.4615,-4.4615,-4.4615,-4.4615,-4.4615,-4.4615,-4.4615,-4.4615,-4.4615,-4.4615,-4.4615,-4.4615,-4.4615,-4.4615,-4.4615,-4.4615,-4.4615,-4.4615,-4.4615,-4.4615,-4.4615,-4.4615,-4.4615,-4.4615,-4.4615,-4.4615,-4.4615,-4.4615,-4.4615,-4.4615,-4.7185,-4.7562,-4.8323,-5.0461,-5.2013,-5.3041,-5.3167,-5.3203,-5.3203,-5.3203,-5.3203,-5.3203,-5.3203,-5.3203,0.0,0.0,0.0,0.0,0.0,0.0,0.0,0.0,0.0,0.0,0.0,0.0,0.0,0.0,0.0,-4.9018,-4.9018,-4.9018,-4.9018,-4.9018,-4.9018,-4.9018,-4.9018,-4.9018,-4.9018,-4.9018,-4.9018,-4.9018,-4.9018,-4.9018,-4.8951,-4.8781,-4.8173,-4.7428,-4.6616,-4.6752,-4.5906,-4.4682,-4.5399,-4.5229,-4.4615,-4.4615,-4.4615,-4.4615,-4.4615,-4.4615,-4.4615,-4.4615,-4.4615,-4.4615,-4.4615,-4.4615,-4.4615,-4.4615,-4.4615,-4.4615,-4.4615,-4.4615,-4.4615,-4.4615,-4.4615,-4.4615,-4.4615,-4.4615,-4.4615,-4.4615,-4.4615,-4.4615,-4.4615,-4.4615,-4.4615,-4.4615,-4.4615,-4.4615,-4.4615,-4.4615,-4.4615,-4.4615,-4.4615,-4.4615,-4.4615,-4.4615,-4.4615,-4.4615,-4.4615,-4.4615,-4.4615,-4.4615,-4.4615,-4.4615,-4.4615,-4.4615,-4.4615,-4.4615,-4.4615,-4.4615,-4.4615,-4.4615,-4.6201,-4.7132,-4.8787,-5.1226,-5.1977,-5.2344,-5.3041,-5.3203,-5.3203,-5.3203,-5.3203,-5.3203,-5.3203,-5.3203,0.0,0.0,0.0,0.0,0.0,0.0,0.0,0.0,0.0,0.0,0.0,0.0,0.0,0.0,-4.9018,-4.9018,-4.9018,-4.9018,-4.9018,-4.9018,-4.9018,-4.9018,-4.9018,-4.9018,-4.9018,-4.9018,-4.9018,-4.9018,-4.9018,-4.9018,-4.8646,-4.8041,-4.7939,-4.7094,-4.5906,-4.6549,-4.5906,-4.4682,-4.5399,-4.5229,-4.4615,-4.4615,-4.4615,-4.4615,-4.4615,-4.4615,-4.4615,-4.4615,-4.4615,-4.4615,-4.4615,-4.4615,-4.4615,-4.4615,-4.4615,-4.4615,-4.4615,-4.4615,-4.4615,-4.4615,-4.4615,-4.4615,-4.4615,-4.4615,-4.4615,-4.4615,-4.4615,-4.4615,-4.4615,-4.4615,-4.4615,-4.4615,-4.4615,-4.4615,-4.4615,-4.4615,-4.4615,-4.4615,-4.4615,-4.4615,-4.4615,-4.4615,-4.4615,-4.4615,-4.4615,-4.4615,-4.4615,-4.4615,-4.4615,-4.4615,-4.4615,-4.4615,-4.4615,-4.4615,-4.4615,-4.4615,-4.4615,-4.4615,-4.6069,-4.7208,-4.8673,-5.0271,-5.0986,-5.1536,-5.2344,-5.2527,-5.2674,-5.3115,-5.3203,-5.3203,-5.3203,0.0,0.0,0.0,0.0,0.0,0.0,0.0,0.0,0.0,0.0,0.0,0.0,0.0,0.0,0.0,-4.9018,-4.9018,-4.9018,-4.9018,-4.9018,-4.9018,-4.9018,-4.9018,-4.9018,-4.9018,-4.9018,-4.9018,-4.9018,-4.9018,-4.9018,-4.9018,-4.8612,-4.7872,-4.7462,-4.6684,-4.5703,-4.5602,-4.519,-4.4649,-4.4959,-4.4886,-4.4615,-4.4615,-4.4615,-4.4615,-4.4615,-4.4615,-4.4615,-4.4615,-4.4615,-4.4615,-4.4615,-4.4615,-4.4615,-4.4615,-4.4615,-4.4615,-4.4615,-4.4615,-4.4615,-4.4615,-4.4615,-4.4615,-4.4615,-4.4615,-4.4615,-4.4615,-4.4615,-4.4615,-4.4615,-4.4615,-4.4615,-4.4615,-4.4615,-4.4615,-4.4615,-4.4615,-4.4615,-4.4615,-4.4615,-4.4615,-4.4615,-4.4615,-4.4615,-4.4615,-4.4615,-4.4615,-4.4615,-4.4615,-4.4615,-4.4615,-4.4615,-4.4615,-4.4615,-4.4615,-4.4615,-4.4615,-4.4615,-4.4615,-4.5993,-4.6854,-4.7813,-4.9121,-4.9876,-5.0537,-5.1503,-5.1683,-5.1903,0.0,-5.2894,-5.2968,0.0,0.0,0.0,0.0,0.0,0.0,0.0,0.0,0.0,0.0,0.0,0.0,0.0,0.0,0.0,0.0,-4.9018,-4.9018,-4.9018,-4.9018,-4.9018,-4.9018,-4.9018,-4.9018,-4.9018,-4.9018,-4.9018,-4.9018,-4.9018,-4.9018,-4.8984,-4.8815,-4.8342,-4.7597,-4.7022,-4.6278,-4.5365,-4.4852,-4.4615,-4.4615,-4.4615,-4.4615,-4.4615,-4.4615,-4.4615,-4.4615,-4.4615,-4.4615,-4.4615,-4.4615,-4.4615,-4.4615,-4.4615,-4.4615,-4.4615,-4.4615,-4.4615,-4.4615,-4.4615,-4.4615,-4.4615,-4.4615,-4.4615,-4.4615,-4.4615,-4.4615,-4.4615,-4.4615,-4.4615,-4.4615,-4.4615,-4.4615,-4.4615,-4.4615,-4.4615,-4.4615,-4.4615,-4.4615,-4.4615,-4.4615,-4.4615,-4.4615,-4.4615,-4.4615,-4.4615,-4.4615,-4.4615,-4.4615,-4.4615,-4.4615,-4.4615,-4.4615,-4.4615,-4.4615,-4.4615,-4.4615,-4.4615,-4.4615,-4.4615,-4.4615,-4.5519,-4.5596,-4.5962,-4.8347,-4.8979,-4.934,-5.0571,-5.0875,-5.1096,-5.1903,-5.205,-5.2307,0.0,0.0,0.0,0.0,0.0,0.0,0.0,0.0,0.0,0.0,0.0,0.0,0.0,0.0,0.0,0.0,-4.9018,-4.9018,-4.9018,-4.9018,-4.9018,-4.9018,-4.9018,-4.9018,-4.9018,-4.9018,-4.9018,-4.9018,-4.9018,-4.9018,-4.8984,-4.8277,-4.7564,-4.6853,-4.6819,-4.5974,-4.4649,-4.4615,-4.4615,-4.4615,-4.4615,-4.4615,-4.4615,-4.4615,-4.4615,-4.4615,-4.4615,-4.4615,-4.4615,-4.4615,-4.4615,-4.4615,-4.4615,-4.4615,-4.4615,-4.4615,-4.4615,-4.4615,-4.4615,-4.4615,-4.4615,-4.4615,-4.4615,-4.4615,-4.4615,-4.4615,-4.4615,-4.4615,-4.4615,-4.4615,-4.4615,-4.4615,-4.4615,-4.4615,-4.4615,-4.4615,-4.4615,-4.4615,-4.4615,-4.4615,-4.4615,-4.4615,-4.4615,-4.4615,-4.4615,-4.4615,-4.4615,-4.4615,-4.4615,-4.4615,-4.4615,-4.4615,-4.4615,-4.4615,-4.4615,-4.4615,-4.4615,-4.4615,-4.4615,-4.4615,-4.4082,-4.4828,-4.5796,-4.6615,-4.7479,-4.8384,-4.936,-5.0209,-5.1022,-5.183,-5.2417,0.0,0.0,0.0,0.0,0.0,0.0,0.0,0.0,0.0,0.0,0.0,0.0,0.0,0.0,0.0,0.0,0.0,0.0,-4.9018,-4.9018,-4.9018,-4.9018,-4.9018,-4.9018,-4.9018,-4.9018,-4.9018,-4.9018,-4.9018,-4.9018,-4.8748,-4.8308,-4.8007,-4.7259,-4.6075,-4.6075,-4.5534,-4.4615,-4.4615,-4.4615,-4.4615,-4.4615,-4.4615,-4.4615,-4.4615,-4.4615,-4.4615,-4.4615,-4.4615,-4.4615,-4.4615,-4.4615,-4.4615,-4.4615,-4.4615,-4.4615,-4.4615,-4.4615,-4.4615,-4.4615,-4.4615,-4.4615,-4.4615,-4.4615,-4.4615,-4.4615,-4.4615,-4.4615,-4.4615,-4.4615,-4.4615,-4.4615,-4.4615,-4.4615,-4.4615,-4.4615,-4.4615,-4.4615,-4.4615,-4.4615,-4.4615,-4.4615,-4.4615,-4.4615,-4.4615,-4.4615,-4.4615,-4.4615,-4.4615,-4.4615,-4.4615,-4.4615,-4.4615,-4.4615,-4.4615,-4.4615,-4.4615,-4.4615,-4.4615,-4.4615,-4.4852,-4.3096,-4.4216,-4.5488,-4.5848,-4.6518,-4.7372,-4.8449,-4.914,-4.9958,-5.1316,-5.2013,0.0,0.0,0.0,0.0,0.0,0.0,0.0,0.0,0.0,0.0,0.0,0.0,0.0,0.0,0.0,0.0,0.0,0.0,0.0,-4.9018,-4.9018,-4.9018,-4.9018,-4.9018,-4.9018,-4.9018,-4.9018,-4.9018,-4.9018,-4.8748,-4.8376,-4.7872,-4.7365,-4.665,-4.5703,-4.5432,-4.5026,-4.4615,-4.4615,-4.4615,-4.4615,-4.4615,-4.4615,-4.4615,-4.4615,-4.4615,-4.4615,-4.4615,-4.4615,-4.4615,-4.4615,-4.4615,-4.4615,-4.4615,-4.4615,-4.4615,-4.4615,-4.4615,-4.4615,-4.4615,-4.4615,-4.4615,-4.4615,-4.4615,-4.4615,-4.4615,-4.4615,-4.4615,-4.4615,-4.4615,-4.4615,-4.4615,-4.4615,-4.4615,-4.4615,-4.4615,-4.4615,-4.4615,-4.4615,-4.4615,-4.4615,-4.4615,-4.4615,-4.4615,-4.4615,-4.4615,-4.4615,-4.4615,-4.4615,-4.4615,-4.4615,-4.4615,-4.4615,-4.4615,-4.4615,-4.4615,-4.4615,-4.4615,-4.4615,-4.4615,-4.5156,0.0,0.0,0.0,-4.6013,-4.6046,0.0,-4.7831,0.0,-4.7773,-5.0215,0.0,0.0,0.0,0.0,0.0,0.0,0.0,0.0,0.0,0.0,0.0,0.0,0.0,0.0,0.0,0.0,0.0,0.0,-4.9018,-4.9018,-4.9018,-4.8984,-4.8984,-4.8984,-4.8951,-4.8951,-4.8951,-4.8951,-4.8951,-4.8951,-4.821,-4.7838,-4.777,-4.638,-4.5703,-4.5635,-4.4891,-4.4615,-4.4615,-4.4615,-4.4615,-4.4615,-4.4615,-4.4615,-4.4615,-4.4615,-4.4615,-4.4615,-4.4615,-4.4615,-4.4615,-4.4615,-4.4615,-4.4615,-4.4615,-4.4615,-4.4615,-4.4615,-4.4615,-4.4615,-4.4615,-4.4615,-4.4615,-4.4615,-4.4615,-4.4615,-4.4615,-4.4615,-4.4615,-4.4615,-4.4615,-4.4615,-4.4615,-4.4615,-4.4615,-4.4615,-4.4615,-4.4615,-4.4615,-4.4615,-4.4615,-4.4615,-4.4615,-4.4615,-4.4615,-4.4615,-4.4615,-4.4615,-4.4615,-4.4615,-4.4615,-4.4615,-4.4615,-4.4615,-4.4615,-4.4615,-4.4615,-4.4615,-4.4615,-4.4615,-4.4649,-4.5427,-4.2355,0.0,0.0,0.0,0.0,0.0,0.0,0.0,0.0,-4.8746,0.0,0.0,0.0,0.0,0.0,0.0,0.0,0.0,0.0,0.0,0.0,0.0,0.0,0.0,0.0,0.0,0.0,0.0,-4.9018,-4.9018,-4.9018,-4.8511,-4.8176,-4.8176,-4.7699,-4.7394,-4.7394,-4.7394,-4.7394,-4.7394,-4.7192,-4.6819,-4.6312,-4.5906,-4.5399,-4.4891,-4.4716,-4.4615,-4.4615,-4.4615,-4.4615,-4.4615,-4.4615,-4.4615,-4.4615,-4.4615,-4.4615,-4.4615,-4.4615,-4.4615,-4.4615,-4.4615,-4.4615,-4.4615,-4.4615,-4.4615,-4.4615,-4.4615,-4.4615,-4.4615,-4.4615,-4.4615,-4.4615,-4.4615,-4.4615,-4.4615,-4.4615,-4.4615,-4.4615,-4.4615,-4.4615,-4.4615,-4.4615,-4.4615,-4.4615,-4.4615,-4.4615,-4.4615,-4.4615,-4.4615,-4.4615,-4.4615,-4.4615,-4.4615,-4.4615,-4.4615,-4.4615,-4.4615,-4.4615,-4.4615,-4.4615,-4.4615,-4.4615,-4.4615,-4.4615,-4.4615,-4.4615,-4.4615,-4.4615,-4.4649,-4.5669,-4.6413,-4.2253,-4.3217,-4.4252,-4.3953,0.0,0.0,-4.5786,-4.6321,0.0,0.0,0.0,0.0,0.0,0.0,0.0,0.0,0.0,0.0,0.0,0.0,0.0,0.0,0.0,0.0,0.0,-4.9018,-4.9018,-4.9018,-4.9018,-4.9018,-4.9018,-4.8308,-4.7906,-4.7906,-4.7192,-4.6786,-4.6786,-4.6786,-4.6786,-4.6786,-4.6481,-4.6109,-4.5703,-4.5365,-4.4993,-4.4615,-4.4615,-4.4615,-4.4615,-4.4615,-4.4615,-4.4615,-4.4615,-4.4615,-4.4615,-4.4615,-4.4615,-4.4615,-4.4615,-4.4615,-4.4615,-4.4615,-4.4615,-4.4615,-4.4615,-4.4615,-4.4615,-4.4615,-4.4615,-4.4615,-4.4615,-4.4615,-4.4615,-4.4615,-4.4852,-4.4959,-4.4682,-4.4852,-4.4987,-4.4682,-4.4615,-4.4615,-4.4615,-4.4615,-4.4615,-4.4615,-4.4615,-4.4615,-4.4615,-4.4615,-4.4615,-4.4615,-4.4615,-4.4615,-4.4615,-4.4857,-4.4925,-4.4615,-4.4886,-4.4919,-4.4615,-4.4615,-4.4615,-4.4615,-4.4615,-4.4615,-4.4615,-4.4615,-4.4615,-4.4649,-4.6109,-4.6786,-4.2433,-4.3155,-4.4051,-4.4466,-4.4264,0.0,-4.6287,-4.614,-4.6287,0.0,0.0,0.0,0.0,0.0,0.0,0.0,0.0,0.0,0.0,0.0,0.0,0.0,0.0,0.0,-4.924,-4.912,-4.9086,-4.9018,-4.9018,-4.9018,-4.9018,-4.824,-4.78,-4.78,-4.6989,-4.6549,-4.6549,-4.6549,-4.6549,-4.6549,-4.5872,-4.5568,-4.5568,-4.4919,-4.4615,-4.4615,-4.4615,-4.4615,-4.4615,-4.4615,-4.4615,-4.4615,-4.4615,-4.4615,-4.4615,-4.4615,-4.4615,-4.4615,-4.4615,-4.4615,-4.4615,-4.4615,-4.4615,-4.4615,-4.4615,-4.4615,-4.4615,-4.4615,-4.4615,-4.4615,-4.4615,-4.4615,-4.4615,-4.4615,-4.5162,-4.5534,-4.4857,-4.5229,-4.55,-4.4852,-4.4716,-4.4716,-4.4716,-4.4716,-4.4716,-4.4615,-4.4615,-4.4615,-4.4615,-4.4615,-4.4615,-4.4615,-4.4615,-4.4615,-4.4615,-4.5263,-4.5399,-4.4649,-4.5297,-4.5365,-4.4649,-4.4615,-4.4615,-4.4615,-4.4615,-4.4615,-4.4615,-4.4615,-4.4649,-4.4784,-4.6143,-4.6819,-4.3294,-4.3419,-4.3617,-4.3716,-4.3676,0.0,-4.412,-4.4085,-4.4268,0.0,0.0,0.0,0.0,0.0,0.0,0.0,0.0,0.0,0.0,0.0,0.0,0.0,0.0,0.0,-5.002,-4.9864,-4.9627,-4.9052,-4.9018,-4.9018,-4.9018,-4.7733,-4.7022,-4.7022,-4.5703,-4.5021,-4.5021,-4.5021,-4.5021,-4.5021,-4.4886,-4.479,-4.4818,-4.4682,-4.4615,-4.4615,-4.4615,-4.4615,-4.4615,-4.4615,-4.4615,-4.4615,-4.4615,-4.4615,-4.4615,-4.4615,-4.4615,-4.4615,-4.4615,-4.4615,-4.4615,-4.4615,-4.4615,-4.4615,-4.4615,-4.4615,-4.4615,-4.4615,-4.4615,-4.4615,-4.4615,-4.4615,-4.4615,-4.4615,-4.5162,-4.5669,-4.5534,-4.5602,-4.5669,-4.55,-4.55,-4.55,-4.55,-4.55,-4.5263,-4.4716,-4.4615,-4.4615,-4.4615,-4.4615,-4.4615,-4.4615,-4.4615,-4.4615,-4.4615,-4.5263,-4.5399,-4.4649,-4.5297,-4.5365,-4.4649,-4.4615,-4.4615,-4.4615,-4.4615,-4.4615,-4.4615,-4.4615,-4.4919,-4.55,-4.638,-4.7124,-4.3608,-4.3515,-4.3515,-4.3515,0.0,0.0,0.0,-4.4085,-4.4342,-4.5149,-4.5296,0.0,0.0,0.0,0.0,0.0,0.0,0.0,0.0,0.0,0.0,0.0,0.0,0.0,-5.1317,-5.0552,-4.9796,-4.9052,-4.9018,-4.8849,-4.8477,-4.7394,-4.6616,-4.6244,-4.519,-4.4615,-4.4615,-4.4615,-4.4615,-4.4615,-4.4615,-4.4615,-4.4615,-4.4615,-4.4615,-4.4615,-4.4615,-4.4615,-4.4615,-4.4615,-4.4615,-4.4615,-4.4615,-4.4615,-4.4615,-4.4615,-4.4615,-4.4615,-4.4615,-4.4615,-4.4615,-4.4615,-4.4615,-4.4615,-4.4615,-4.4615,-4.4615,-4.4615,-4.4615,-4.4615,-4.4615,-4.4615,-4.4615,-4.4615,-4.5162,-4.5703,-4.5703,-4.5703,-4.5805,-4.6177,-4.594,-4.5602,-4.5196,-4.5128,-4.5026,-4.4682,-4.4615,-4.4615,-4.4615,-4.4615,-4.4615,-4.4615,-4.4615,-4.4615,-4.4615,-4.5263,-4.5534,-4.5162,-4.55,-4.5534,-4.5162,-4.4818,-4.4615,-4.4615,-4.4615,-4.4784,-4.5128,-4.5128,-4.5331,-4.5737,-4.6819,-4.7564,0.0,-4.3515,-4.3515,0.0,0.0,-4.3644,0.0,0.0,0.0,-4.5296,0.0,0.0,0.0,0.0,0.0,0.0,0.0,0.0,0.0,0.0,0.0,0.0,0.0,0.0,0.0,-5.0663,-4.9492,-4.9052,-4.8883,-4.8612,-4.8142,-4.7293,-4.6515,-4.594,-4.506,-4.4615,-4.4615,-4.4615,-4.4615,-4.4615,-4.4615,-4.4615,-4.4615,-4.4615,-4.4615,-4.4615,-4.4615,-4.4615,-4.4615,-4.4615,-4.4615,-4.4615,-4.4615,-4.4615,-4.4615,-4.4615,-4.4615,-4.4615,-4.4615,-4.4615,-4.4615,-4.4615,-4.4615,-4.4615,-4.4615,-4.4615,-4.4615,-4.4615,-4.4615,-4.4615,-4.4615,-4.4615,-4.4615,-4.4615,-4.5162,-4.5737,-4.5872,-4.5906,-4.6075,-4.6684,-4.621,-4.55,-4.4891,-4.4818,-4.4784,-4.4615,-4.4615,-4.4615,-4.4615,-4.4615,-4.4615,-4.4615,-4.4615,-4.4615,-4.4615,-4.5263,-4.5703,-4.5703,-4.5838,-4.5838,-4.5703,-4.4993,-4.4615,-4.4615,-4.475,-4.5094,-4.5703,-4.6007,-4.6143,-4.6177,-4.7361,-4.7973,0.0,0.0,0.0,0.0,-4.3515,0.0,0.0,0.0,-4.3644,-4.3754,0.0,0.0,0.0,0.0,0.0,0.0,0.0,0.0,0.0,0.0,0.0,0.0,0.0,0.0,0.0,-4.9402,-4.8409,-4.8951,-4.8409,-4.8274,-4.8849,-4.7564,-4.6752,-4.6684,-4.5326,-4.4615,-4.4615,-4.4615,-4.4615,-4.4615,-4.4615,-4.4615,-4.4615,-4.4615,-4.4615,-4.4615,-4.4615,-4.4615,-4.4615,-4.4615,-4.4615,-4.4615,-4.4615,-4.4615,-4.4615,-4.4615,-4.4615,-4.4615,-4.4615,-4.4615,-4.4615,-4.4615,-4.4615,-4.4615,-4.4615,-4.4615,-4.4615,-4.4615,-4.4615,-4.4615,-4.4615,-4.4615,-4.4615,-4.4615,-4.5162,-4.5872,-4.6515,-4.6684,-4.6684,-4.6786,-4.621,-4.5669,-4.5602,-4.5568,-4.5365,-4.4716,-4.4615,-4.4615,-4.4615,-4.4615,-4.4615,-4.4615,-4.4615,-4.4615,-4.4615,-4.5263,-4.5703,-4.5703,-4.6312,-4.638,-4.5737,-4.4993,-4.4615,-4.4615,-4.5229,-4.5635,-4.5703,-4.6993,-4.7635,-4.7635,-4.7804,-4.8274,0.0,0.0,0.0,0.0,0.0,0.0,-4.3515,0.0,-4.3515,0.0,0.0,0.0,0.0,0.0,0.0,0.0,0.0,0.0,0.0,0.0,0.0,0.0,0.0,0.0,0.0,0.0,0.0,0.0,-4.8342,-4.8071,-4.8376,-4.7361,-4.6583,-4.6177,-4.5156,-4.4615,-4.4615,-4.4615,-4.4615,-4.4615,-4.4615,-4.4615,-4.4615,-4.4615,-4.4615,-4.4615,-4.4615,-4.4615,-4.4615,-4.4615,-4.4615,-4.4615,-4.4615,-4.4615,-4.4615,-4.4615,-4.4615,-4.4615,-4.4615,-4.4615,-4.4615,-4.4615,-4.4615,-4.4615,-4.4615,-4.4615,-4.4615,-4.4615,-4.4615,-4.4615,-4.4615,-4.4615,-4.4615,-4.4615,-4.4852,-4.5365,-4.6549,-4.6447,-4.6413,-4.7293,-4.6853,-4.6346,-4.6346,-4.5635,-4.4959,-4.4649,-4.4615,-4.4615,-4.4615,-4.4615,-4.4615,-4.4615,-4.4615,-4.4615,-4.4615,-4.5263,-4.5872,-4.6312,-4.6616,-4.6278,-4.5094,-4.5162,-4.5229,-4.5229,-4.5974,-4.6549,-4.6959,-4.7601,-4.8108,-4.8545,-4.8545,-4.8714,-4.3718,0.0,0.0,0.0,0.0,0.0,0.0,0.0,0.0,0.0,0.0,0.0,0.0,0.0,0.0,0.0,0.0,0.0,0.0,0.0,0.0,0.0,0.0,0.0,0.0,0.0,0.0,0.0,0.0,-4.7767,-4.8206,-4.7293,-4.6549,-4.6007,-4.506,-4.4615,-4.4615,-4.4615,-4.4615,-4.4615,-4.4615,-4.4615,-4.4615,-4.4615,-4.4615,-4.4615,-4.4615,-4.4615,-4.4615,-4.4615,-4.4615,-4.4615,-4.4615,-4.4615,-4.4615,-4.4615,-4.4615,-4.4615,-4.4615,-4.4615,-4.4615,-4.4615,-4.4615,-4.4615,-4.4615,-4.4615,-4.4615,-4.4615,-4.4615,-4.4615,-4.4615,-4.4615,-4.4615,-4.4615,-4.475,-4.5229,-4.6515,-4.6549,-4.6616,-4.7669,-4.7462,-4.7022,-4.6819,-4.5906,-4.5156,-4.4925,-4.4919,-4.4919,-4.4919,-4.4919,-4.4987,-4.519,-4.5224,-4.5224,-4.5224,-4.55,-4.6007,-4.6752,-4.6989,-4.6616,-4.5534,-4.5805,-4.6007,-4.6007,-4.6718,-4.7361,-4.7906,-4.8075,-4.8477,-4.9018,-4.9018,-4.9018,0.0,0.0,0.0,-4.3515,0.0,0.0,0.0,0.0,-4.4672,0.0,0.0,0.0,0.0,0.0,0.0,-4.6929,0.0,0.0,0.0,0.0,0.0,0.0,0.0,0.0,0.0,0.0,0.0,0.0,0.0,0.0,-4.8883,-4.7597,-4.6786,-4.6752,-4.5359,-4.4615,-4.4615,-4.4615,-4.4615,-4.4615,-4.4615,-4.4615,-4.4615,-4.4615,-4.4615,-4.4615,-4.4615,-4.4615,-4.4615,-4.4615,-4.4615,-4.4615,-4.4615,-4.4615,-4.4615,-4.4615,-4.4615,-4.4615,-4.4615,-4.4615,-4.4615,-4.4615,-4.4615,-4.4615,-4.4615,-4.4615,-4.4615,-4.4615,-4.4615,-4.4615,-4.4615,-4.4615,-4.4615,-4.4615,-4.5128,-4.5872,-4.6616,-4.7361,-4.7838,-4.7872,-4.7872,-4.7665,-4.6921,-4.6752,-4.6481,-4.5771,-4.5669,-4.5669,-4.5669,-4.5669,-4.594,-4.665,-4.6718,-4.6718,-4.6718,-4.6109,-4.6007,-4.6752,-4.7496,-4.7838,-4.7804,-4.7124,-4.6752,-4.6752,-4.7496,-4.7872,-4.7906,-4.8612,-4.8984,-4.9018,-4.9018,-4.9018,0.0,0.0,-4.3515,-4.3515,0.0,0.0,0.0,0.0,0.0,0.0,0.0,0.0,0.0,0.0,0.0,-4.6966,0.0,0.0,0.0,0.0,0.0,0.0,0.0,0.0,0.0,0.0,0.0,0.0,-4.7225,0.0,0.0,-4.7327,-4.6583,-4.6075,-4.5094,-4.4615,-4.4615,-4.4615,-4.4615,-4.4615,-4.4615,-4.4615,-4.4615,-4.4615,-4.4615,-4.4615,-4.4615,-4.4615,-4.4615,-4.4615,-4.4615,-4.4615,-4.4615,-4.4615,-4.4615,-4.4615,-4.4615,-4.4615,-4.4615,-4.4615,-4.4615,-4.4615,-4.4615,-4.4615,-4.4615,-4.4615,-4.4615,-4.4615,-4.4615,-4.4615,-4.4615,-4.4615,-4.4716,-4.5196,-4.5534,-4.6041,-4.7259,-4.7703,-4.8041,-4.8545,-4.8646,-4.8545,-4.8308,-4.8274,-4.7834,-4.6616,-4.6413,-4.6413,-4.6413,-4.6413,-4.6515,-4.6752,-4.6786,-4.6786,-4.6786,-4.7022,-4.7229,-4.753,-4.7736,-4.7699,-4.7192,-4.7394,-4.753,-4.753,-4.8274,-4.8646,-4.8646,-4.8883,-4.9018,-4.9018,-4.9018,-4.9018,-4.3515,-4.3515,0.0,-4.3515,-4.3515,0.0,-4.3864,0.0,0.0,0.0,0.0,0.0,0.0,0.0,0.0,0.0,0.0,0.0,0.0,-4.7846,0.0,0.0,0.0,0.0,0.0,0.0,-4.5805,-4.7056,-4.6921,0.0,0.0,0.0,-4.6718,-4.5737,-4.5229,-4.4886,-4.4615,-4.4615,-4.4615,-4.4615,-4.4615,-4.4615,-4.4615,-4.4615,-4.4615,-4.4615,-4.4615,-4.4615,-4.4615,-4.4615,-4.4615,-4.4615,-4.4615,-4.4615,-4.4615,-4.4615,-4.4615,-4.4615,-4.4615,-4.4615,-4.4615,-4.4615,-4.4615,-4.4615,-4.4615,-4.4615,-4.4615,-4.4615,-4.4615,-4.4615,-4.4615,-4.4818,-4.5094,-4.5602,-4.6109,-4.6722,-4.7669,-4.8139,-4.8443,-4.8917,-4.9018,-4.9018,-4.9018,-4.9018,-4.8578,-4.7361,-4.7192,-4.7192,-4.7192,-4.7192,-4.7293,-4.7564,-4.7564,-4.7462,-4.7225,-4.7868,-4.8206,-4.7906,-4.8173,-4.8105,-4.7597,-4.8037,-4.8308,-4.8308,-4.8781,-4.9018,-4.9018,-4.9018,-4.9018,-4.9018,-4.9018,-4.9018]},{"header":{"parameterUnit":"m.s-1","parameterCategory":1,"la1":30.6,"la2":29.2853,"lo1":-89.7004,"lo2":-87.6739,"dy":0.0162,"dx":0.0183,"nx":112,"ny":82,"refTime":"2026-05-24T00:00:00:Z","depth":0,"parameterNumber":3,"parameterNumberName":"V-component_of_WINDS"},"data":[0.0,0.0,0.0,0.0,0.0,0.0,0.0,0.0,0.0,0.0,0.0,0.0,0.0,0.0,0.0,0.0,0.0,0.0,0.0,0.0,0.0,0.0,0.0,0.0,0.0,0.0,0.0,0.0,0.0,0.0,0.0,0.0,0.0,0.0,0.0,0.0,0.0,0.0,0.0,0.0,0.0,0.0,0.0,0.0,0.0,0.0,0.0,0.0,0.0,0.0,0.0,0.0,0.0,0.0,0.0,0.0,0.0,0.0,0.0,0.0,0.0,0.0,0.0,0.0,0.0,0.0,0.0,0.0,0.0,0.0,0.0,0.0,0.0,0.0,0.0,0.0,0.0,0.0,0.0,0.0,0.0,0.0,0.0,0.0,0.0,0.0,0.0,0.0,0.0,0.0,1.0579,0.9396,0.9707,0.9963,0.9984,0.9869,0.9462,0.8791,0.0,0.0,0.0,0.0,0.0,0.0,0.0,0.0,0.0,0.0,0.0,0.0,0.0,0.0,0.0,0.0,0.0,0.0,0.0,0.0,0.0,0.0,0.0,0.0,0.0,0.0,0.0,0.0,0.0,0.0,0.0,0.0,0.0,0.0,0.0,0.0,0.0,0.0,0.0,0.0,0.0,0.0,0.0,0.0,0.0,0.0,0.0,0.0,0.0,0.0,0.0,0.0,0.0,0.0,0.0,0.0,0.0,0.0,0.0,0.0,0.0,0.0,0.0,0.0,0.0,0.0,0.0,0.0,0.0,0.0,0.0,0.0,0.0,0.0,0.0,0.0,0.0,0.0,0.0,0.0,0.0,0.0,0.0,0.0,0.0,0.0,0.0,0.0,0.0,0.0,0.0,0.0,0.0,0.0,0.0,0.0,0.0,0.0,0.0,0.0,0.0,0.0,0.0,0.0,1.0477,0.9765,0.9802,0.9849,0.9977,0.968,0.9293,0.8871,0.0,0.0,0.0,0.0,0.0,0.0,0.0,0.0,0.0,0.0,0.0,0.0,0.0,0.0,0.0,0.0,0.0,0.0,0.0,0.0,0.0,0.0,0.0,0.0,0.0,0.0,0.0,0.0,0.0,0.0,0.0,0.0,0.0,0.0,0.0,0.0,0.0,0.0,0.0,0.0,0.0,0.0,0.0,0.0,0.0,0.0,0.0,0.0,0.0,0.0,0.0,0.0,0.0,0.0,0.0,0.0,0.0,0.0,0.0,0.0,0.0,0.0,0.0,0.0,0.0,0.0,0.0,0.0,0.0,0.0,0.0,0.0,0.0,0.0,0.0,0.0,0.0,0.0,0.0,0.0,0.0,0.0,0.0,0.0,0.0,0.0,0.0,0.0,0.0,0.0,0.0,0.0,0.0,0.0,0.0,0.0,0.0,0.0,0.0,0.0,0.0,0.0,0.0,1.3012,1.191,1.1183,1.108,1.1111,1.1187,1.0812,1.0429,1.0202,0.9665,0.0,0.0,0.0,0.0,0.0,0.0,0.0,0.0,0.0,0.0,0.0,0.0,0.0,0.0,0.0,0.0,0.0,0.0,0.0,0.0,0.0,0.0,0.0,0.0,0.0,0.0,0.0,0.0,0.0,0.0,0.0,0.0,0.0,0.0,0.0,0.0,0.0,0.0,0.0,0.0,0.0,0.0,0.0,0.0,0.0,0.0,0.0,0.0,0.0,0.0,0.0,0.0,0.0,0.0,0.0,0.0,0.0,0.0,0.0,0.0,0.0,0.0,0.0,0.0,0.0,0.0,0.0,0.0,0.0,0.0,0.0,0.0,0.0,0.0,0.0,0.0,0.0,0.0,0.0,0.0,0.0,0.0,0.0,0.0,0.0,0.0,0.0,0.0,0.0,0.0,0.0,0.0,0.0,0.0,0.0,0.0,0.0,0.0,0.0,0.0,0.0,0.0,1.4724,1.3742,1.2875,1.2749,1.2749,1.2749,1.2293,1.1785,1.1337,1.0561,0.0,0.0,0.0,0.0,0.0,0.0,0.0,0.0,0.0,0.0,0.0,0.0,0.0,0.0,0.0,0.0,0.0,0.0,0.0,0.0,0.0,0.0,0.0,0.0,0.0,0.0,0.0,0.0,0.0,0.0,0.0,0.0,0.0,0.0,0.0,0.0,0.0,0.0,0.0,0.0,0.0,0.0,0.0,0.0,0.0,0.0,0.0,0.0,0.0,0.0,0.0,0.0,0.0,0.0,0.0,0.0,0.0,0.0,0.0,0.0,0.0,0.0,0.0,0.0,0.0,0.0,0.0,0.0,0.0,0.0,0.0,0.0,0.0,0.0,0.0,0.0,0.0,0.0,0.0,0.0,0.0,0.0,0.0,0.0,0.0,0.0,0.0,0.0,0.0,0.0,0.0,0.0,0.0,0.0,0.0,0.0,0.0,0.0,0.0,0.0,0.0,0.0,1.5649,1.5522,1.4548,1.4421,1.4421,1.4421,1.3774,1.2745,1.1383,1.039,0.0,0.0,0.0,0.0,0.0,0.0,0.0,0.0,0.0,0.0,0.0,0.0,0.0,0.0,0.0,0.0,0.0,0.0,0.0,0.0,0.0,0.0,0.0,0.0,0.0,0.0,0.0,0.0,0.0,0.0,0.0,0.0,0.0,0.0,0.0,0.0,0.0,0.0,0.0,0.0,0.0,0.0,0.0,0.0,0.0,0.0,0.0,0.0,0.0,0.0,0.0,0.0,0.0,0.0,0.0,0.0,0.0,0.0,0.0,0.0,0.0,0.0,0.0,0.0,0.0,0.0,0.0,0.0,0.0,0.0,0.0,0.0,0.0,0.0,0.0,0.0,0.0,0.0,0.0,0.0,0.0,0.0,0.0,0.0,0.0,0.0,0.0,0.0,0.0,0.0,0.0,0.0,0.0,0.0,0.0,0.0,0.0,0.0,0.0,0.0,0.0,0.0,1.6965,1.69,0.0,1.599,1.6012,1.5809,1.5399,1.4636,1.3561,0.0,0.0,0.0,0.0,0.0,0.0,0.0,0.0,0.0,0.0,0.0,0.0,0.0,0.0,0.0,0.0,0.0,0.0,0.0,0.0,0.0,0.0,0.0,0.0,0.0,0.0,0.0,0.0,0.0,0.0,0.0,0.0,0.0,0.0,0.0,0.0,0.0,0.0,0.0,0.0,0.0,0.0,0.0,0.0,0.0,0.0,0.0,0.0,0.0,0.0,0.0,0.0,0.0,0.0,0.0,0.0,0.0,0.0,0.0,0.0,0.0,0.0,0.0,0.0,0.0,0.0,0.0,0.0,0.0,0.0,0.0,0.0,0.0,0.0,0.0,0.0,0.0,0.0,0.0,0.0,0.0,0.0,0.0,0.0,0.0,0.0,0.0,0.0,0.0,0.0,0.0,0.0,0.0,0.0,0.0,0.0,0.0,0.0,0.0,0.0,0.0,0.0,1.6965,1.7622,1.7786,0.0,1.7322,1.7359,1.7175,1.6691,1.5975,1.4847,0.0,0.0,0.0,0.0,0.0,0.0,0.0,0.0,0.0,0.0,0.0,0.0,0.0,0.0,0.0,0.0,0.0,0.0,0.0,0.0,0.0,0.0,0.0,0.0,0.0,0.0,0.0,0.0,0.0,0.0,0.0,0.0,0.0,0.0,0.0,0.0,0.0,0.0,0.0,0.0,0.0,0.0,0.0,0.0,0.0,0.0,0.0,0.0,0.0,0.0,0.0,0.0,0.0,0.0,0.0,0.0,0.0,0.0,0.0,0.0,0.0,0.0,0.0,0.0,0.0,0.0,0.0,0.0,0.0,0.0,0.0,0.0,0.0,0.0,0.0,0.0,0.0,0.0,0.0,0.0,0.0,0.0,0.0,0.0,0.0,0.0,0.0,0.0,0.0,0.0,0.0,0.0,0.0,0.0,0.0,0.0,0.0,0.0,0.0,0.0,0.0,0.0,1.666,1.7436,1.8102,1.845,1.849,1.849,1.849,1.7715,1.6497,0.0,0.0,0.0,0.0,0.0,0.0,0.0,0.0,0.0,0.0,0.0,0.0,0.0,0.0,0.0,0.0,0.0,0.0,0.0,0.0,0.0,0.0,0.0,0.0,0.0,0.0,0.0,0.0,0.0,0.0,0.0,0.0,0.0,0.0,0.0,0.0,0.0,0.0,0.0,0.0,0.0,0.0,0.0,0.0,0.0,0.0,0.0,0.0,0.0,0.0,0.0,0.0,0.0,0.0,0.0,0.0,0.0,0.0,0.0,0.0,0.0,0.0,0.0,0.0,0.0,0.0,0.0,0.0,0.0,0.0,0.0,0.0,0.0,0.0,0.0,0.0,0.0,0.0,0.0,0.0,0.0,0.0,0.0,0.0,0.0,0.0,0.0,0.0,0.0,0.0,0.0,0.0,0.0,0.0,0.0,0.0,0.0,0.0,0.0,0.0,0.0,0.0,0.0,1.6366,1.7368,1.8022,1.8115,1.837,1.841,1.8196,1.7729,1.6907,1.5593,0.0,0.0,0.0,0.0,0.0,0.0,0.0,0.0,0.0,0.0,0.0,0.0,0.0,0.0,0.0,0.0,0.0,0.0,0.0,0.0,0.0,0.0,0.0,0.0,0.0,0.0,0.0,0.0,0.0,0.0,0.0,0.0,0.0,0.0,0.0,0.0,0.0,0.0,0.0,0.0,0.0,0.0,0.0,0.0,0.0,0.0,0.0,0.0,0.0,0.0,0.0,0.0,0.0,0.0,0.0,0.0,0.0,0.0,0.0,0.0,0.0,0.0,0.0,0.0,0.0,0.0,0.0,0.0,0.0,0.0,0.0,0.0,0.0,0.0,0.0,0.0,0.0,0.0,0.0,0.0,0.0,0.0,0.0,0.0,0.0,0.0,0.0,0.0,0.0,0.0,0.0,0.0,0.0,0.0,0.0,0.0,0.0,0.0,0.0,0.0,0.0,0.0,1.6072,1.7128,1.7862,1.7862,1.8023,1.8063,1.7876,1.7475,1.6834,1.5838,0.0,0.0,0.0,0.0,0.0,0.0,0.0,0.0,0.0,0.0,0.0,0.0,0.0,0.0,0.0,0.0,0.0,0.0,0.0,0.0,0.0,0.0,0.0,0.0,0.0,0.0,0.0,0.0,0.0,0.0,0.0,0.0,0.0,0.0,0.0,0.0,0.0,0.0,0.0,0.0,0.0,0.0,0.0,0.0,0.0,0.0,0.0,0.0,0.0,0.0,0.0,0.0,0.0,0.0,0.0,0.0,0.0,0.0,0.0,0.0,0.0,0.0,0.0,0.0,0.0,0.0,0.0,0.0,0.0,0.0,0.0,0.0,0.0,0.0,0.0,0.0,0.0,0.0,0.0,0.0,0.0,0.0,0.0,0.0,0.0,0.0,0.0,0.0,0.0,0.0,0.0,0.0,0.0,0.0,0.0,0.0,0.0,0.0,0.0,0.0,0.0,0.0,1.5784,1.686,1.7582,1.7582,1.7582,1.7569,1.7542,1.7021,1.646,1.5824,0.0,0.0,0.0,0.0,0.0,0.0,0.0,0.0,0.0,0.0,0.0,0.0,0.0,0.0,0.0,0.0,0.0,0.0,0.0,0.0,0.0,0.0,0.0,0.0,0.0,0.0,0.0,0.0,0.0,0.0,0.0,0.0,0.0,0.0,0.0,0.0,0.0,0.0,0.0,0.0,0.0,0.0,0.0,0.0,0.0,0.0,0.0,0.0,0.0,0.0,0.0,0.0,0.0,0.0,0.0,0.0,0.0,0.0,0.0,0.0,1.7048,0.0,0.0,0.0,0.0,0.0,0.0,0.0,0.0,0.0,0.0,0.0,0.0,0.0,0.0,0.0,0.0,0.0,0.0,0.0,0.0,0.0,0.0,0.0,0.0,0.0,0.0,0.0,0.0,0.0,0.0,0.0,0.0,0.0,0.0,0.0,0.0,0.0,0.0,0.0,0.0,0.0,1.5784,1.686,1.7582,1.7582,1.7582,1.7488,1.7313,1.6914,1.646,1.5824,1.5231,0.0,0.0,0.0,0.0,0.0,0.0,0.0,0.0,0.0,0.0,0.0,0.0,0.0,0.0,0.0,0.0,0.0,0.0,0.0,0.0,0.0,0.0,0.0,0.0,0.0,0.0,0.0,0.0,0.0,0.0,0.0,0.0,0.0,0.0,0.0,0.0,0.0,0.0,0.0,0.0,0.0,0.0,0.0,0.0,0.0,0.0,0.0,0.0,0.0,0.0,0.0,0.0,0.0,0.0,0.0,0.0,0.0,0.0,0.0,0.0,1.7515,0.0,0.0,0.0,0.0,0.0,0.0,0.0,0.0,0.0,0.0,0.0,0.0,0.0,0.0,0.0,0.0,0.0,0.0,0.0,0.0,0.0,0.0,0.0,0.0,0.0,0.0,0.0,0.0,0.0,0.0,0.0,0.0,0.0,0.0,0.0,0.0,0.0,0.0,0.0,0.0,1.5758,1.6727,1.7474,1.7569,1.7462,1.7367,1.7219,1.6754,1.6313,1.5811,1.5284,0.0,0.0,0.0,0.0,0.0,0.0,0.0,0.0,0.0,0.0,0.0,0.0,0.0,0.0,0.0,0.0,0.0,0.0,0.0,0.0,0.0,0.0,0.0,0.0,0.0,0.0,0.0,0.0,0.0,0.0,0.0,0.0,0.0,0.0,0.0,0.0,0.0,0.0,0.0,0.0,0.0,0.0,0.0,0.0,0.0,0.0,0.0,0.0,0.0,0.0,0.0,0.0,0.0,1.9011,1.9158,1.9158,1.9158,1.9118,1.9052,1.8502,1.8397,1.8464,0.0,0.0,0.0,0.0,0.0,0.0,0.0,0.0,0.0,0.0,0.0,0.0,0.0,0.0,0.0,0.0,0.0,0.0,0.0,0.0,0.0,0.0,0.0,0.0,0.0,1.6607,1.65,0.0,0.0,0.0,0.0,0.0,0.0,0.0,0.0,0.0,0.0,0.0,0.0,1.5792,1.6553,1.7219,1.7408,1.7221,1.7099,1.7045,1.6603,1.6152,1.5798,1.5337,1.4847,0.0,0.0,0.0,0.0,0.0,0.0,0.0,0.0,0.0,0.0,0.0,0.0,0.0,0.0,0.0,0.0,0.0,0.0,0.0,0.0,0.0,0.0,0.0,0.0,0.0,0.0,0.0,0.0,0.0,0.0,0.0,0.0,1.9855,2.0219,0.0,0.0,0.0,0.0,0.0,0.0,0.0,0.0,0.0,0.0,0.0,0.0,0.0,1.8865,1.8865,1.9372,1.9626,1.9626,1.992,2.0007,2.0007,2.0007,1.992,1.9679,1.9599,0.0,1.8464,1.8115,0.0,0.0,0.0,0.0,0.0,0.0,0.0,0.0,0.0,0.0,0.0,0.0,0.0,0.0,0.0,0.0,0.0,0.0,0.0,0.0,0.0,0.0,1.7341,1.7152,1.7112,1.7032,0.0,1.5912,1.5378,1.5297,1.511,0.0,0.0,0.0,0.0,0.0,0.0,0.0,1.5792,1.638,1.678,1.682,1.678,1.666,1.6455,1.6362,1.6152,1.5798,1.5524,1.519,1.4901,1.4322,0.0,0.0,0.0,0.0,0.0,0.0,0.0,0.0,0.0,0.0,0.0,0.0,0.0,0.0,0.0,0.0,0.0,0.0,0.0,0.0,0.0,0.0,0.0,0.0,0.0,0.0,0.0,0.0,0.0,2.0987,2.0375,2.0452,1.9163,1.8156,0.0,0.0,0.0,0.0,0.0,0.0,0.0,0.0,0.0,1.9212,1.9345,1.9492,1.9653,1.992,2.004,2.004,2.0347,2.0481,2.0481,2.0307,2.016,2.0027,1.9693,1.9345,1.8958,1.8664,1.8288,1.7955,0.0,0.0,0.0,0.0,1.674,1.6553,1.686,1.7005,0.0,0.0,0.0,0.0,0.0,0.0,0.0,0.0,0.0,0.0,0.0,0.0,0.0,1.7434,1.7447,1.7355,1.7221,1.6633,1.6032,0.0,1.5538,1.5257,1.4629,0.0,0.0,0.0,0.0,1.5498,1.5792,1.6206,1.6526,1.6687,1.6567,1.6406,1.6335,1.6126,1.5965,1.5784,1.5712,1.5511,1.5217,1.4847,1.4309,0.0,0.0,0.0,0.0,0.0,0.0,0.0,0.0,0.0,0.0,0.0,0.0,0.0,0.0,0.0,0.0,0.0,0.0,0.0,0.0,0.0,0.0,0.0,0.0,0.0,0.0,0.0,0.0,2.1585,2.0619,2.0617,1.9556,1.8584,0.0,0.0,0.0,0.0,0.0,0.0,1.9132,1.9145,1.9386,1.9893,1.9987,2.0134,2.0347,2.0414,2.0454,2.0454,2.0681,2.0788,2.0775,2.0481,2.0307,2.014,1.9693,1.9439,1.9345,1.9052,1.8664,1.8182,1.7929,1.7448,1.6941,1.7021,1.6994,1.6967,1.7275,1.7382,1.7382,1.7382,0.0,1.682,1.682,0.0,0.0,0.0,0.0,1.6887,1.7233,1.7313,1.7367,1.7528,1.7582,1.7582,1.7582,1.7181,1.666,0.0,1.5925,1.5545,1.487,0.0,0.0,0.0,0.0,1.5498,1.5792,1.6019,1.6246,1.646,1.6286,1.6152,1.6152,1.5952,1.5784,1.5784,1.5784,1.5725,1.5511,1.5231,1.4874,1.4322,0.0,0.0,0.0,0.0,0.0,0.0,0.0,0.0,0.0,0.0,0.0,0.0,0.0,0.0,0.0,0.0,0.0,0.0,0.0,0.0,0.0,0.0,0.0,0.0,0.0,0.0,0.0,0.0,0.0,2.1481,2.0452,0.0,0.0,0.0,0.0,1.8905,1.9158,1.9452,1.9746,1.976,1.9893,2.0201,2.0481,2.0641,2.0655,2.0922,2.1069,2.1069,2.1082,2.1082,2.1082,2.0788,2.0494,2.0153,1.9907,1.9626,1.9345,1.9052,1.8905,1.8851,1.8557,1.8076,1.7569,1.7822,1.7796,1.7582,1.7889,1.7942,1.7942,1.7942,1.7609,1.7179,1.7179,1.6927,0.0,0.0,1.7179,1.7246,1.7488,1.7555,1.7569,1.7582,1.7582,1.7582,1.7582,1.7393,1.7085,0.0,1.6206,1.5725,1.5404,0.0,1.5364,1.5351,1.5378,1.5498,1.5792,1.5798,1.5811,1.5824,1.5811,1.5845,1.5845,1.5784,1.5784,1.5784,1.5784,1.5771,1.5758,1.5524,1.5231,1.4968,1.4349,0.0,0.0,0.0,0.0,0.0,0.0,0.0,0.0,0.0,0.0,0.0,0.0,0.0,0.0,0.0,0.0,0.0,0.0,0.0,0.0,0.0,0.0,0.0,0.0,0.0,0.0,0.0,0.0,2.3415,2.1451,0.0,1.9265,1.9479,1.9599,1.9492,1.976,2.0054,2.0347,2.0361,2.0494,2.0788,2.0895,2.0949,2.0949,2.1056,2.1109,2.1109,2.1109,2.1109,2.1096,2.0815,2.0508,2.0214,1.992,1.9639,1.9417,1.9252,1.9092,1.8918,1.8811,1.8517,1.8183,1.829,1.8263,1.8183,1.829,1.833,1.8303,1.8049,1.7769,1.7474,1.7474,1.7355,1.7288,1.7395,1.7474,1.7501,1.7555,1.7582,1.7582,1.7582,1.7582,1.7582,1.7582,1.7407,1.7166,1.7058,1.6513,1.5965,1.5484,1.5551,1.5618,1.5431,1.5551,1.5712,1.5771,1.5784,1.5784,1.5784,1.5784,1.5784,1.5784,1.5784,1.5784,1.5784,1.5784,1.5784,1.5784,1.5725,1.5444,1.5022,1.4807,1.4175,0.0,0.0,0.0,0.0,0.0,0.0,0.0,0.0,0.0,0.0,0.0,0.0,0.0,0.0,0.0,0.0,0.0,0.0,0.0,0.0,0.0,0.0,0.0,0.0,0.0,0.0,2.3699,2.3873,2.1884,2.0294,1.972,2.0013,2.0201,2.0107,2.0361,2.0615,2.0815,2.0815,2.0909,2.1096,2.1109,2.1109,2.1109,2.1109,2.1109,2.1109,2.1109,2.1109,2.1096,2.0815,2.0508,2.0214,1.992,1.9639,1.943,1.943,1.9252,1.9078,1.9078,1.8891,1.8637,1.8637,1.8637,1.8637,1.8637,1.8571,1.8437,1.8089,1.7836,1.7582,1.7582,1.7582,1.7582,1.7582,1.7582,1.7582,1.7582,1.7582,1.7582,1.7582,1.7582,1.7582,1.7582,1.7487,1.7313,1.7219,1.6723,1.6152,1.5752,1.5765,1.5718,1.5578,1.5712,1.5784,1.5784,1.5784,1.5784,1.5784,1.5784,1.5784,1.5784,1.5738,1.5913,1.6433,1.6192,1.6109,1.6267,1.6123,1.575,1.5022,1.5147,1.481,1.3891,0.0,0.0,0.0,0.0,0.0,0.0,0.0,0.0,0.0,0.0,0.0,0.0,0.0,0.0,0.0,0.0,0.0,0.0,0.0,0.0,0.0,0.0,0.0,2.6409,2.4253,2.2855,2.2796,2.1849,2.0944,2.0307,2.0788,2.1002,2.0722,2.0962,2.1122,2.1122,2.1109,2.1109,2.1109,2.1109,2.1109,2.1109,2.1109,2.1109,2.1109,2.1109,2.1109,2.1096,2.0815,2.0521,2.0214,1.9933,1.9639,1.943,1.943,1.943,1.943,1.943,1.9185,1.8945,1.8945,1.8945,1.8945,1.8945,1.8744,1.845,1.8102,1.7849,1.7595,1.7582,1.7582,1.7582,1.7582,1.7582,1.7582,1.7582,1.7582,1.7582,1.7582,1.7582,1.7582,1.7582,1.7582,1.7502,1.7273,1.675,1.6348,1.6273,1.6032,1.5798,1.5784,1.5784,0.0,1.5784,1.5784,1.5784,1.5784,1.5784,1.5784,1.5784,1.5578,1.6081,1.7623,1.7026,1.6803,1.7236,1.6862,1.6183,1.5143,1.5532,1.5613,1.5353,0.0,0.0,0.0,0.0,0.0,0.0,0.0,0.0,0.0,0.0,0.0,0.0,0.0,0.0,0.0,0.0,0.0,0.0,0.0,0.0,0.0,2.8457,2.9108,2.8682,2.7344,2.6058,2.5173,2.3809,2.2395,2.1007,2.1216,2.1403,2.1387,2.1454,2.143,2.143,2.1229,2.1109,2.1109,2.1109,2.1109,2.1109,2.1109,2.1109,2.1109,2.1109,2.1109,2.1109,2.1029,2.0708,2.0227,2.0147,1.9826,1.943,1.943,1.943,1.943,1.943,1.9319,1.9239,1.9239,1.9239,1.9239,1.9239,1.9052,1.8758,1.8464,1.817,1.7876,1.7649,1.7582,1.7582,1.7582,1.7582,1.7582,1.7582,1.7582,1.7582,1.7582,1.7582,1.7582,1.7582,1.7582,1.7555,1.7475,1.7219,1.6817,1.6402,1.6206,1.6072,1.5858,1.5784,0.0,1.5784,1.5784,1.5784,1.5784,1.5784,1.5784,1.5784,1.5704,1.6256,1.7591,1.752,1.7705,1.8329,1.8233,1.7941,1.7339,1.6819,1.6605,0.0,0.0,0.0,0.0,0.0,0.0,0.0,0.0,0.0,0.0,0.0,0.0,0.0,0.0,0.0,0.0,0.0,0.0,0.0,0.0,0.0,0.0,2.9121,2.9902,3.0098,2.8348,2.6773,2.6073,2.4114,2.2349,2.1424,2.1563,2.1748,2.1628,2.1614,2.1561,2.1376,2.1203,2.1109,2.1109,2.1109,2.1109,2.1109,2.1109,2.1109,2.1109,2.1109,2.1109,2.1109,2.1109,2.0788,0.0,2.0167,1.9907,1.943,1.943,1.943,0.0,0.0,0.0,0.0,0.0,1.943,1.943,1.943,1.9092,1.8718,1.8544,1.8196,1.7822,1.7635,1.7582,1.7582,1.7582,1.7582,1.7582,1.7582,1.7582,1.7582,1.7582,1.7582,1.7582,1.7582,1.7582,1.7582,1.7582,1.7393,0.0,1.654,1.6353,1.6179,1.5872,1.5784,1.5784,1.5784,1.5784,1.5784,1.5784,1.5784,1.6021,1.6574,1.6495,0.0,0.0,0.0,1.8869,1.911,1.8529,0.0,0.0,0.0,0.0,0.0,0.0,0.0,0.0,1.5498,1.5021,0.0,0.0,0.0,0.0,0.0,0.0,0.0,0.0,0.0,0.0,0.0,0.0,0.0,0.0,0.0,0.0,2.9707,3.041,3.084,2.8247,2.6227,2.6045,2.3717,2.1988,2.1614,2.1844,2.1924,2.1735,2.1681,2.1547,2.1229,0.0,0.0,0.0,0.0,2.1109,2.1109,2.1109,2.1109,2.1109,2.1109,2.1109,2.1109,2.1082,2.0762,2.0227,2.0201,1.9867,1.943,1.943,1.943,1.943,1.943,1.943,1.943,1.943,1.943,1.943,1.943,0.0,0.0,1.8504,1.8103,1.7622,1.7595,1.7582,1.7582,1.7582,1.7582,1.7582,1.7582,1.7582,1.7582,1.7582,1.7582,1.7582,1.7582,1.7582,1.7569,1.7542,1.738,1.7099,1.6714,1.6446,1.6179,1.5872,1.5784,1.5784,1.5784,1.5784,1.5784,1.5784,0.0,0.0,1.7591,1.7537,1.855,2.1132,2.0734,2.0218,1.9871,1.8447,1.7658,1.7658,1.8678,1.9173,1.9228,1.9228,1.9304,1.9283,1.7441,1.6874,0.0,0.0,0.0,0.0,0.0,0.0,0.0,0.0,0.0,0.0,0.0,0.0,0.0,0.0,0.0,2.9355,3.0176,3.0781,3.0879,2.9157,2.7434,2.6167,2.5681,2.4464,2.1872,2.2031,2.2311,2.2258,2.2031,2.1871,2.1817,2.1363,2.1109,2.1109,2.1109,2.1109,2.1109,2.1109,2.1109,2.1109,0.0,0.0,2.1096,2.0869,2.0575,2.0214,1.9987,1.9693,1.943,1.943,1.943,1.943,1.943,1.943,1.943,1.943,1.943,1.943,1.943,1.9132,1.8798,1.8571,1.825,1.7862,1.7662,1.7582,0.0,1.7582,1.7582,1.7582,1.7582,1.7582,1.7582,1.7582,1.7582,1.7582,1.7582,1.7582,1.7515,1.7326,1.7246,1.7032,1.6446,1.6313,1.6179,1.5872,1.5784,1.5784,1.5784,1.5784,1.5784,1.5784,1.6716,1.7404,1.7684,1.8533,1.9686,2.1194,2.1457,2.1546,2.145,2.0499,1.9962,1.9962,2.0157,2.0448,2.0774,2.0774,2.0947,2.1274,1.8854,1.7771,0.0,0.0,0.0,0.0,0.0,0.0,0.0,0.0,0.0,0.0,0.0,2.7539,2.8184,0.0,2.9375,2.9805,3.0449,3.0898,3.0898,3.0216,2.8724,2.6288,2.5656,2.4468,2.2024,2.2298,2.2579,2.2432,2.2151,2.1924,2.1842,2.1349,2.1109,2.1109,2.1109,2.1109,2.1109,2.1109,2.1109,2.1109,2.1109,2.1109,2.1096,2.0815,2.0508,2.0214,1.992,1.9639,1.943,1.943,1.943,1.943,1.943,1.943,1.943,1.943,1.943,1.943,1.943,1.9078,1.8677,1.8544,1.8183,1.7782,1.7622,1.7582,1.7582,1.7582,1.7582,1.7582,1.7582,1.7582,1.7582,1.7582,1.7582,1.7582,1.7582,1.7462,1.738,1.7233,1.6965,1.667,1.6375,1.6152,1.6005,1.5845,1.5784,1.5784,1.5784,1.5784,1.6055,1.6669,1.7311,1.8195,1.9405,2.0629,2.1543,2.2164,2.2178,2.2109,2.1894,2.125,2.0898,2.0898,2.0898,2.1113,2.1562,2.1562,2.168,2.1875,2.0755,2.0123,0.0,0.0,0.0,0.0,0.0,0.0,0.0,2.6699,2.6973,2.7754,2.8022,2.8262,2.9023,2.9453,2.9824,3.0254,3.0644,3.0898,3.0898,3.0898,2.9667,2.6409,2.5313,2.4301,2.2769,2.2755,2.2766,2.2525,2.2178,2.1884,2.1722,2.1296,2.1109,2.1109,2.1109,2.1109,2.1109,2.1109,2.1109,2.1109,2.1109,2.1082,2.1015,2.0722,2.0428,2.0134,1.984,1.9586,1.943,1.943,1.943,1.943,1.943,1.943,1.943,1.943,1.943,1.9417,1.9305,1.8931,1.8477,1.8424,1.8036,1.7582,1.7582,1.7582,1.7582,1.7582,1.7582,1.7582,1.7582,1.7582,1.7582,1.7582,1.7582,1.7582,1.7582,1.7407,1.7179,1.7125,1.6683,1.6308,1.6192,1.5992,1.5784,1.5784,1.5784,1.5784,1.5784,1.6021,1.6574,1.7591,1.8102,1.9268,2.148,2.2536,2.3062,2.2984,2.2617,2.2207,2.1777,2.1385,2.119,2.119,2.1268,2.1582,2.2012,2.2012,2.2051,2.2129,2.248,2.2402,2.5791,2.5693,2.5791,2.6211,2.6348,2.6582,0.0,2.7812,2.8203,2.8672,2.9082,2.9492,2.9961,3.0098,3.0273,3.0742,3.0859,3.0898,3.0898,3.0898,2.9667,2.6409,2.6395,2.6135,2.4883,2.366,2.2846,2.2887,2.2298,2.1977,2.1937,2.1416,2.1109,2.1109,2.1109,2.1109,2.1109,2.1109,2.1109,2.1109,2.1109,2.0975,2.0722,2.0414,2.012,1.9826,1.9546,1.9457,1.943,1.943,1.943,1.943,1.943,1.943,1.943,1.943,1.943,1.939,1.9065,1.8758,1.845,1.8129,1.7862,1.7582,1.7582,1.7582,1.7582,1.7582,1.7582,1.7582,1.7582,1.7582,1.7582,1.7582,1.7582,1.7582,1.7582,1.7407,1.7125,1.6807,1.65,1.6192,1.5925,1.5798,1.5784,1.5784,1.5784,1.5784,1.5784,1.681,1.7544,1.7684,1.9604,2.1427,2.2775,2.2994,2.2945,2.2598,2.2187,2.1758,2.1288,2.121,2.119,2.119,2.1621,2.2012,2.2441,2.2441,2.2637,2.2964,2.3003,2.2808,2.5732,2.5918,2.6152,2.6348,2.6562,2.6914,2.7519,2.7865,2.8184,2.9101,2.9453,2.9785,3.0469,3.0605,3.0664,3.0859,3.1094,3.1172,3.0918,3.1094,3.0382,2.8086,2.7277,2.5944,2.3511,2.3052,2.2928,2.2928,2.2311,2.1991,2.1991,2.143,2.1109,2.1109,2.1109,2.1109,2.1109,2.1109,2.1109,2.1109,2.1109,2.1042,2.0909,2.0441,1.9987,1.9546,1.9426,1.943,1.943,1.943,1.943,1.943,1.943,1.943,1.943,1.943,1.943,1.9319,1.9025,1.8731,1.8437,1.8089,1.7836,1.7582,1.7582,1.7582,1.7582,1.7582,1.7582,1.7582,1.7582,1.7582,1.7582,1.7582,1.8199,1.8551,1.7793,1.7877,1.7789,1.6877,1.6326,1.5979,1.5798,1.5784,1.5784,1.5784,1.6433,1.6904,1.6904,1.7994,1.8993,1.9724,2.132,2.2555,2.3057,2.3101,2.3023,2.2847,2.248,2.2051,2.1641,2.1327,2.119,2.119,2.166,2.209,2.2519,2.2754,2.2925,2.3101,2.3101,2.3003,2.5693,2.5977,2.6211,2.6211,2.6523,2.6953,2.7383,2.7676,2.8144,2.918,2.957,2.9941,3.0586,3.0801,3.0937,3.1055,3.1328,3.1445,3.1269,3.1406,3.0746,2.8799,2.7554,2.5671,2.2415,2.2565,2.2928,2.2928,2.2311,2.1991,2.1991,2.143,2.1109,2.1109,2.1109,2.1109,2.1109,2.1109,2.1109,2.1109,2.1109,2.1069,2.0962,2.0374,1.984,1.943,1.943,1.943,1.943,1.943,1.943,1.943,1.943,1.943,1.943,1.943,1.943,1.9319,1.9025,1.8784,1.8544,1.8115,1.7889,1.7689,1.7609,1.7582,1.7582,1.7582,1.7582,1.7582,1.7582,1.7582,1.7582,1.7582,1.8603,1.9228,1.7884,1.8173,1.8311,1.695,1.6233,1.5784,1.5784,1.5784,1.5927,1.6244,1.7404,1.8102,1.7731,1.9039,2.0449,2.1658,2.258,2.3101,2.3101,2.3101,2.3003,2.2769,2.25,2.209,2.1543,2.1348,2.119,2.119,2.1777,2.2207,2.2519,2.2886,2.3101,2.3101,2.3101,2.3101,2.5693,2.5693,2.5713,2.5713,2.6094,2.6523,2.6934,2.7676,2.8398,2.8848,2.959,3.0176,3.0215,3.0586,3.1016,3.1426,3.1504,3.166,3.207,3.1777,3.0419,2.7546,2.7027,2.5701,2.27,2.2686,2.2928,2.2928,2.2311,2.1991,2.1991,2.143,2.1109,2.1109,2.1109,2.1109,2.1109,2.1109,2.1109,2.1109,2.1109,2.0962,2.0668,2.008,1.9653,1.943,1.943,1.943,1.943,1.943,1.943,1.943,1.943,1.943,1.943,1.943,1.943,1.9319,1.9025,1.8918,1.8811,1.8182,1.7982,1.7916,1.7675,1.7582,1.7582,1.7582,1.7582,1.7582,1.7582,1.7582,1.7582,1.7582,1.8603,1.9228,1.7884,1.8173,1.8311,1.695,1.6233,1.5784,1.5784,1.5784,1.6197,1.7451,1.8688,1.8993,1.787,1.977,2.1702,2.2906,2.3101,2.3101,2.3101,2.3101,2.275,2.1973,2.1914,2.1504,2.0683,2.1016,2.119,2.119,2.2029,2.25,2.2519,2.2886,2.3101,2.3101,2.3101,2.3101,2.5693,2.5693,2.5752,2.6094,2.6289,2.6504,2.6914,2.7461,2.7988,2.8418,2.8945,2.9434,2.9726,3.0137,3.0586,3.1035,3.1582,3.2012,3.2148,3.2285,3.0987,2.7181,2.7076,2.5921,2.2456,2.2392,0.0,2.2846,2.2204,2.1777,2.1977,2.143,2.1109,2.1109,2.1109,2.1109,2.1109,2.1109,2.1109,2.1109,2.1109,2.0962,2.0668,2.0267,1.9933,1.9639,1.9511,1.943,1.943,1.943,1.943,1.943,1.943,1.943,1.943,1.943,1.943,1.9319,1.9025,1.8918,1.8824,1.8182,1.7995,1.7942,1.7675,1.7582,1.7582,1.7582,1.7582,1.7582,1.7582,1.7582,1.7845,1.8708,1.9973,2.0896,2.0436,2.108,2.1096,1.8784,1.7876,1.7156,1.6319,1.6667,1.7498,1.8734,1.9906,2.0854,2.123,2.1987,2.2624,2.3057,2.3101,2.3101,2.3101,2.3101,2.2984,2.2691,2.2461,2.2051,2.1505,2.1309,2.119,2.119,2.1797,2.2227,2.2519,2.2886,2.3101,2.3101,2.3101,2.3101,2.5693,2.5693,2.5752,2.6094,2.6152,2.6269,2.6699,2.7012,2.7324,2.7754,2.8164,2.8555,2.8883,2.8947,2.9298,3.0489,3.0932,3.1222,3.1446,3.1713,3.0445,2.6695,2.6439,2.5454,2.2565,2.2285,0.0,2.2901,2.2217,2.179,2.1977,2.143,2.1109,2.1109,2.1109,2.1109,2.1109,2.1109,2.1109,2.1109,2.1109,2.0909,2.0508,2.0321,2.0013,1.9639,1.9452,1.943,1.943,1.943,1.943,1.943,1.943,1.943,1.943,1.943,1.943,1.9345,1.9145,1.9407,1.9765,1.9319,1.9082,1.8928,1.866,1.8124,1.7582,1.7582,1.7582,1.7582,1.7582,1.7937,1.8551,1.942,2.1049,2.2265,2.1794,2.2522,2.2474,1.9737,1.8709,1.8019,1.7085,1.8082,1.9268,2.0042,2.1168,2.2076,2.2403,2.2818,2.3101,2.3101,2.3101,2.3101,2.3101,2.3101,2.3042,2.2886,2.2656,2.2324,2.1894,2.1621,2.1465,2.1465,2.1894,2.2246,2.2519,2.2886,2.3101,2.3101,2.3101,2.3101,2.5713,2.5713,2.5693,2.5693,2.5693,2.5791,2.625,2.6317,2.6404,2.6894,2.7273,2.7584,2.7637,2.7116,2.7436,2.9831,2.9605,2.9451,3.0122,3.0149,2.8931,2.5844,2.5167,2.439,2.3011,2.2352,0.0,2.2887,0.0,2.1951,2.1991,2.143,2.1109,2.1109,2.1109,2.1109,2.1109,2.1109,2.1109,2.1109,2.1109,2.0815,2.0281,2.018,1.9933,1.947,1.9386,1.943,1.943,1.943,1.943,1.943,1.943,1.943,1.943,1.943,1.943,1.9417,1.9475,2.0429,2.1583,2.1324,2.0993,2.0677,2.0491,1.9122,1.7648,1.7687,1.7635,1.7582,1.7582,1.8603,1.9627,1.9679,2.176,2.3384,2.2165,2.2687,2.2638,1.9969,1.8901,1.8399,1.8321,1.9975,2.1364,2.1391,2.2359,2.2687,2.1525,2.2403,2.3101,2.3101,2.3101,2.3101,2.3101,2.3101,2.2925,2.2559,2.2539,2.2363,2.1934,2.1914,2.1914,2.1914,2.2305,2.2519,2.2539,2.2906,2.3101,2.3101,2.3101,2.3101,2.6133,2.5996,2.5693,2.5693,2.5693,2.5713,2.583,2.537,2.5144,2.6303,2.6072,2.5993,2.7014,2.6821,2.738,2.9831,2.8751,2.8346,3.0391,2.9531,2.7834,2.5504,2.5293,2.4602,2.2674,2.2592,0.0,0.0,2.1911,2.1523,2.1964,2.143,2.1109,2.1109,2.1109,2.1109,2.1109,2.1109,2.1109,2.1109,2.1109,2.1029,2.0869,2.0366,2.0147,1.9987,1.9559,1.943,1.943,1.943,1.943,1.943,1.943,1.943,1.943,1.943,1.943,1.9533,2.0644,2.1316,2.1583,2.1324,2.1158,2.1143,2.1666,1.997,1.8036,1.8883,1.8356,1.7582,1.7582,1.8603,1.9886,2.0947,2.2466,2.3899,2.4559,2.4895,2.4605,2.2877,2.1394,2.0572,2.0938,2.1458,2.198,2.2549,2.2906,2.2994,2.2687,2.2906,2.3101,2.3101,2.3101,2.3101,2.3101,2.3101,2.3042,2.2945,2.2945,2.275,2.2363,2.2363,2.2363,2.2363,2.2461,2.2676,2.2945,2.3042,2.3101,2.3101,2.3101,2.3101,2.6602,2.6484,2.62,2.6074,2.6016,2.5977,2.5732,2.529,2.4946,2.5164,2.5233,2.5352,2.5503,2.5236,2.5722,2.8108,2.7004,2.6407,2.8012,2.7522,2.6311,2.4343,2.4285,2.3922,2.2768,2.2645,2.2726,0.0,2.2017,2.1643,2.1964,2.143,2.1109,2.1109,2.1109,2.1109,2.1109,2.1109,2.1109,2.1109,2.1109,2.1042,2.0909,2.0575,2.0361,2.0214,0.0,1.9559,1.9546,1.9426,1.943,1.943,1.943,1.943,1.943,1.943,1.943,1.9591,2.1088,2.204,2.267,2.3204,2.3245,2.3086,2.2868,2.1412,1.9735,1.9084,1.9121,1.9265,1.8655,1.9937,2.1608,2.2416,2.3583,2.4756,2.5528,2.5693,2.5275,2.3828,2.2695,2.2,2.2013,2.2437,2.2851,2.3071,2.3101,2.3101,2.3101,2.3101,2.3101,2.3101,2.3101,2.3101,2.3101,2.3101,2.3101,2.3101,2.3101,2.2984,2.275,2.275,2.275,2.275,2.275,2.2867,2.3101,2.3101,2.3101,2.3101,2.3101,2.3101,2.7012,2.6973,2.6836,2.6406,2.6309,2.6211,2.5771,2.5577,2.5118,2.3949,2.4461,2.4805,2.3633,2.3024,2.347,2.5677,2.4775,2.404,2.4803,2.5011,2.4545,2.3051,2.2928,2.2928,2.2928,2.2632,2.2565,2.2792,2.2298,2.1991,2.1991,2.143,2.1109,2.1109,2.1109,2.1109,2.1109,2.1109,2.1109,2.1109,2.1109,2.0975,2.0735,2.0655,2.0481,2.0214,0.0,0.0,1.972,1.9506,1.9399,1.943,1.943,1.943,1.943,1.9649,1.9707,1.9924,2.1586,2.3039,2.4322,2.5663,2.5919,2.5451,2.4341,2.3188,2.1852,1.9512,2.0247,2.144,2.0179,2.176,2.3683,2.3683,2.4707,2.5693,2.5693,2.5693,2.5266,2.3899,2.3487,2.3135,2.2547,2.3207,2.373,2.3257,2.314,2.3101,2.3101,2.3101,2.3101,2.3101,2.3101,2.3101,2.3101,2.3101,2.3101,2.3101,2.3101,2.3101,2.3101,2.3101,2.3101,2.3101,2.3101,2.3101,2.3101,2.3101,2.3101,2.3101,2.3101,2.3101,2.7012,2.6758,2.6387,2.5957,2.581,2.5791,2.5713,2.4824,2.3998,2.3732,2.3018,2.2316,2.2097,2.1634,2.2029,2.4421,2.3021,2.2418,2.4773,2.3837,2.2917,2.2901,2.2928,2.2928,2.2928,2.2887,0.0,0.0,2.2178,2.1991,2.1991,2.143,2.1109,2.1109,2.1109,2.1109,2.1109,2.1109,2.1109,2.1109,2.1109,2.1082,2.1015,2.0535,2.0281,2.0214,1.992,0.0,1.9452,1.9653,1.9586,1.943,1.943,1.943,1.9533,2.0759,2.1202,2.1586,2.4378,2.548,2.5772,2.5991,2.6046,2.61,2.6767,2.4933,2.2689,2.3117,2.2486,2.1643,2.1389,2.2517,2.3683,2.3683,2.4707,2.5693,2.5693,2.5693,2.5625,2.5334,2.5266,2.5112,2.4639,2.4392,2.416,2.375,2.3379,2.3101,2.3101,2.3101,2.3101,2.3101,2.3101,2.3101,2.3101,2.3101,2.3101,2.3101,2.3101,2.3101,2.3101,2.3101,2.3101,2.3101,2.3101,2.3101,2.3101,2.3101,2.3101,2.3101,2.3101,2.3101,2.6688,2.6825,2.6953,2.6504,2.623,2.5957,2.5488,2.4508,2.3628,2.3381,2.2479,2.1693,2.1693,2.1703,2.2261,2.3802,2.2749,2.2415,2.4361,2.3224,2.2365,2.2806,2.2928,2.2928,2.2928,2.2928,2.2739,2.2445,2.2151,2.1924,2.1764,2.1349,2.1109,2.1109,2.1109,2.1109,2.1109,2.1109,2.1109,2.1109,2.1109,2.1109,2.1096,2.0668,2.0468,2.0502,2.0795,0.0,1.9645,2.0422,2.0222,1.943,1.943,1.9866,2.0644,2.1358,2.2096,2.3095,2.5333,2.6118,2.6209,2.6987,2.7222,2.7185,2.6943,2.5943,2.4733,2.3739,2.3626,2.3633,2.2918,2.3732,2.4756,2.4756,2.5216,2.5693,2.5693,2.5693,2.5693,2.5693,2.5693,2.5586,2.5184,2.4707,2.4277,2.3848,2.3418,2.3101,2.3101,2.3101,2.3101,2.3101,2.3101,2.3101,2.3101,2.3101,2.3101,2.3101,2.3101,2.3101,2.3101,2.3101,2.3101,2.3101,2.3101,2.3101,2.3101,2.3101,2.3101,2.3101,2.3101,2.3101,2.6117,2.6312,2.6769,2.6858,2.6148,2.5358,2.489,2.4005,2.3097,2.2435,2.1712,2.1135,2.088,2.1197,2.1751,2.2497,2.2321,2.2465,2.3391,2.2874,2.2495,2.2767,2.2887,2.2928,2.2928,2.2874,0.0,2.2352,2.2004,0.0,2.147,2.1229,2.1109,2.1109,2.1109,2.1109,2.1109,2.1109,2.1109,2.1109,2.1109,2.1082,2.1002,2.108,2.1026,2.1052,2.2068,0.0,0.0,2.1378,2.0989,1.9809,1.9533,2.0314,2.1643,2.1983,2.3039,2.4488,2.6009,2.6572,2.6771,2.7906,2.8301,2.8067,2.6933,2.6763,2.6532,2.4245,2.4619,2.5479,2.4412,2.4922,2.5693,2.5693,2.5693,2.5693,2.5693,2.5693,2.5654,2.5557,2.5586,2.5449,2.5,2.457,2.418,2.3848,2.3418,2.3101,2.3101,2.3101,2.3101,2.3101,2.3101,2.3101,2.3101,2.3101,2.3101,2.3101,2.3101,2.3101,2.3101,2.3101,2.3101,2.3101,2.3101,2.3101,2.3101,2.3101,2.3101,2.3101,2.3101,2.3101,2.5165,2.4557,2.4044,2.5965,2.4485,2.274,2.3637,2.285,2.1491,2.02,1.9855,1.942,1.8199,1.8223,1.8591,1.9246,2.0615,2.1628,2.1393,2.2666,2.3336,2.2526,2.2699,2.2928,2.2928,2.2619,2.2338,2.2044,0.0,0.0,2.1149,2.1122,2.1109,2.1109,2.1109,2.1109,2.1109,2.1109,2.1109,2.1109,2.1109,2.0975,2.077,2.1847,2.2171,2.1979,2.3425,0.0,0.0,2.2375,2.174,2.1259,1.9924,2.0314,2.1756,2.3095,2.4544,2.61,2.7565,2.8121,2.8121,2.8247,2.8301,2.8281,2.8121,2.7591,2.6961,2.6686,2.6187,2.5693,2.5528,2.5577,2.5693,2.5693,2.5693,2.5693,2.5693,2.5693,2.5557,2.5215,2.5184,2.498,2.4551,2.4121,2.3828,2.3789,2.3418,2.3101,2.3101,2.3101,2.3101,2.3101,2.3101,2.3101,2.3101,2.3101,2.3101,2.3101,2.3101,2.3101,2.3101,2.3101,2.3101,2.3101,2.3101,2.3101,2.3101,2.3101,2.3101,2.3101,2.3101,2.3101,2.283,2.3004,2.334,2.3983,2.3099,2.2107,2.2062,2.1242,2.0425,2.0424,1.9339,1.8499,1.876,1.886,1.9478,2.103,2.183,2.2784,2.4375,2.4455,2.4101,2.3579,2.3624,2.3451,0.0,0.0,2.2231,2.1764,0.0,0.0,2.1109,2.1109,2.1109,2.1109,2.1109,2.1109,2.1109,2.1109,2.1029,2.0855,2.0855,2.1177,2.1772,2.2083,2.2607,2.3435,2.4811,0.0,0.0,2.4306,2.3825,2.287,2.2266,2.2983,2.4361,2.4986,2.61,2.7511,2.8121,2.8301,2.8301,2.8301,2.8301,2.8242,2.7988,2.75,2.6973,2.6699,2.6211,2.5693,2.5693,2.5693,2.5693,2.5693,2.5693,2.5693,2.5693,2.5527,2.5273,2.5145,2.4863,2.4609,2.4453,2.4062,2.3789,2.3789,2.3418,2.3101,2.3101,2.3101,2.3101,2.3101,2.3101,2.3101,2.3101,2.3101,2.3101,2.3101,2.3101,2.3101,2.3101,2.3101,2.3101,2.3101,2.3101,2.3101,2.3101,2.3101,2.3101,2.3101,2.3101,2.3237,2.1163,2.1536,2.2065,2.2564,2.1879,2.0934,2.0639,1.9755,1.9206,1.9872,1.8706,1.7884,1.8812,1.902,1.965,2.1746,2.2081,2.3015,2.5552,2.5225,2.4611,2.4466,2.4568,2.4213,2.3276,2.2552,2.1951,0.0,0.0,0.0,2.1109,2.1109,2.1109,2.1109,2.1109,2.1109,2.1109,2.1109,2.0962,2.0681,2.0681,2.131,2.2379,2.2592,2.3445,2.4935,0.0,0.0,0.0,2.5827,2.5426,2.4433,2.3989,2.4765,2.61,2.61,2.706,2.8301,2.8301,2.8301,2.8301,2.8301,2.8301,2.8184,2.7637,2.7266,2.6934,2.6504,2.6074,2.5693,2.5693,2.5693,2.5693,2.5693,2.5693,2.5654,2.5566,2.5293,2.5047,2.4793,2.4434,2.4199,2.4062,2.3789,2.3594,2.3594,2.3296,2.3101,2.3101,2.3101,2.3101,2.3101,2.3101,2.3101,2.3101,2.3101,2.3101,2.3101,2.3101,2.3101,2.3101,2.3101,2.3101,2.3101,2.3101,2.3101,2.3101,2.3101,2.3101,2.3101,2.3218,2.3633,2.0564,2.0131,1.9556,2.2081,2.0614,1.8755,1.9464,1.8603,1.7635,1.7635,1.7635,1.7582,1.7635,1.7635,1.8151,1.9864,2.0443,2.137,2.335,2.422,2.4809,2.5049,2.5408,2.5105,2.3911,2.2438,2.1443,0.0,0.0,0.0,2.1109,2.1109,2.1109,2.1109,2.1109,2.1109,2.1109,2.1109,2.0962,2.0681,2.0681,2.1124,2.2064,2.3566,2.4957,0.0,0.0,0.0,0.0,2.6717,2.61,2.5936,2.4378,2.4765,2.61,2.61,2.706,2.8301,2.8301,2.8301,2.8301,2.8301,2.8301,2.8144,2.7285,2.7012,2.6934,2.6504,2.6074,2.5693,2.5693,2.5693,2.5693,2.5693,2.5693,2.5557,2.5176,2.5125,2.4824,2.3965,2.3809,2.3652,2.3179,2.3101,2.3101,2.3101,2.3101,2.3101,2.3101,2.3101,2.3101,2.3101,2.3101,2.3101,2.3101,2.3101,2.3101,2.3101,2.3101,2.3101,2.3101,2.3101,2.3101,2.3101,2.3101,2.3101,2.3101,2.3101,2.3101,2.3101,2.3574,2.4238,1.8767,1.8851,1.8766,1.9365,1.8822,1.8185,1.8243,1.7884,1.7582,1.7582,1.7582,1.7582,1.7582,1.7582,1.8576,2.1518,2.2135,2.3265,2.6389,2.7234,2.7375,2.6865,2.6644,2.5817,0.0,0.0,2.2681,0.0,0.0,0.0,2.1109,2.1109,2.1109,2.1109,2.1109,2.1109,2.1109,2.1109,2.0855,2.0374,2.1455,2.2393,2.3255,2.4825,0.0,0.0,0.0,0.0,0.0,2.778,2.7618,2.7565,2.706,2.7168,2.7618,2.7618,2.7887,2.8301,2.8301,2.8301,2.8301,2.8301,2.8105,2.7754,2.7187,2.7012,2.6855,2.6152,2.5791,2.5693,2.5693,2.5693,2.5693,2.5693,2.5508,2.5234,2.5145,2.4609,2.4121,2.3848,2.3555,2.3257,2.312,2.3101,2.3101,2.3101,2.3101,2.3101,2.3101,2.3101,2.3101,2.3101,2.3101,2.3101,2.3101,2.3101,2.3101,2.3101,2.3101,2.3101,2.3101,2.3101,2.3101,2.3101,2.3101,2.3101,2.3101,2.3101,2.3257,2.3594,2.4023,2.4531,1.7876,1.8129,1.8277,1.8035,1.7995,1.7916,1.7649,1.7582,1.7582,1.7582,1.7582,1.7582,1.7582,1.7989,1.9284,2.2189,2.2756,2.412,2.7791,2.8144,2.8163,2.8309,2.7674,0.0,0.0,2.503,0.0,0.0,0.0,0.0,2.1109,2.1109,2.1109,2.1109,2.1109,2.1056,2.0949,2.0949,2.095,2.0879,2.1876,2.3137,2.471,2.5663,0.0,0.0,0.0,0.0,0.0,2.8301,2.8301,2.8301,2.8301,2.8301,2.8301,2.8301,2.8301,2.8301,2.8301,2.8301,2.8301,2.8301,2.7891,2.7344,2.6914,2.666,2.6426,2.583,2.5693,2.5693,2.5693,2.5693,2.5693,2.5693,2.5391,2.5067,2.4863,2.4277,2.375,2.3574,2.3276,2.3101,2.3101,2.3101,2.3101,2.3101,2.3101,2.3101,2.3101,2.3101,2.3101,2.3101,2.3101,2.3101,2.3101,2.3101,2.3101,2.3101,2.3101,2.3101,2.3101,2.3101,2.3101,2.3101,2.3101,2.3101,2.3101,2.3257,2.3594,2.4043,2.4453,2.4902,0.0,1.7955,1.7955,1.7955,1.7955,1.7889,1.7649,1.7582,0.0,1.7582,1.7582,1.7595,1.7609,1.8722,2.0162,2.1876,2.2587,2.412,2.7626,2.7434,2.7605,2.9497,2.8726,0.0,2.7885,2.6807,0.0,0.0,0.0,0.0,2.1538,2.1348,2.1362,2.1411,2.1335,2.1074,2.0681,2.0779,2.1245,2.2006,2.2238,2.3658,2.61,2.6209,0.0,0.0,0.0,0.0,0.0,2.8301,2.8301,2.8301,2.8301,2.8301,2.8301,2.8301,2.8301,2.8301,2.8301,2.8301,2.8281,2.8223,2.7656,2.6934,2.6484,2.6055,2.5693,2.5693,2.5693,2.5693,2.5693,2.5693,2.5693,2.5693,2.5391,2.4941,2.4512,2.4082,2.3672,2.3218,2.314,2.314,2.314,2.314,2.314,2.3101,2.3101,2.3101,2.3101,2.3101,2.3101,2.3101,2.3101,2.3101,2.3101,2.3101,2.3101,2.3101,2.3101,2.3101,2.3101,2.3101,2.3101,2.3101,2.312,2.312,2.3101,2.3613,2.4043,2.4434,2.4863,2.5312,1.7649,0.0,1.7689,1.7689,1.7689,1.7675,0.0,1.7582,1.7582,1.7582,1.7582,1.7649,1.7889,1.8826,1.9926,2.0926,2.3001,2.4878,2.6056,2.7765,2.935,3.0488,3.0374,2.9693,2.84,0.0,0.0,0.0,0.0,2.5253,2.4885,2.3683,2.3559,2.4824,2.332,2.1897,2.0743,2.1647,2.2023,2.2006,2.4367,2.5663,2.6136,2.7295,0.0,0.0,0.0,0.0,2.8301,2.8301,2.8301,2.8301,2.8301,2.8301,2.8301,2.8301,2.8301,2.8301,2.8301,2.8301,2.8184,2.7519,2.7187,2.6875,2.6113,2.5771,2.5693,2.5693,2.5693,2.5693,2.5693,2.5693,2.5693,2.5693,2.5391,2.4941,2.4512,2.4082,2.3769,2.3652,2.3633,2.3633,2.3633,2.3633,2.3516,2.314,2.3101,2.3101,2.3101,2.3101,2.3101,2.3101,2.3101,2.3101,2.3101,2.3101,2.3101,2.3101,2.3101,2.3101,2.3101,2.3101,2.3101,2.3101,2.3457,2.3477,2.3101,2.3906,2.4316,2.4434,2.4863,2.5312,1.7582,1.7689,1.7796,1.7796,1.7796,1.7796,1.7796,1.7689,1.7582,1.7582,1.7582,1.7635,1.7809,1.8897,2.0227,2.1478,2.3681,2.566,2.691,2.8545,2.9824,3.0488,3.0566,3.0296,0.0,0.0,0.0,0.0,0.0,2.6772,2.6045,2.5192,2.5005,2.5677,2.4496,2.3426,2.2601,2.3104,2.3504,2.3877,2.552,2.661,2.7133,2.796,2.8301,0.0,0.0,0.0,2.8301,2.8301,2.8301,2.8301,2.8301,2.8301,2.8301,2.8301,2.8301,2.8301,2.8301,2.8301,2.8144,2.7285,2.7012,2.6855,2.5947,2.5693,2.5693,2.5693,2.5693,2.5693,2.5693,2.5693,2.5693,2.5693,2.5391,2.5047,2.4766,2.4375,2.4082,2.4082,2.4082,2.4082,2.4082,2.4082,2.4004,2.3705,2.3686,2.3608,2.3457,2.3437,2.3315,2.312,2.3101,2.3101,2.3101,2.3101,2.3101,2.3101,2.3101,2.3101,2.3101,2.3101,2.3101,2.3101,2.3574,2.3672,2.3437,2.4297,2.4707,2.4727,2.5176,2.5508,1.7569,1.7849,1.8035,1.7942,1.7955,1.7982,1.7929,1.7769,1.7582,1.7582,1.7582,1.7609,1.7702,1.9035,2.056,2.2071,2.3886,2.6026,2.8649,2.9336,2.9746,3.0234,3.0293,0.0,0.0,0.0,0.0,0.0,0.0,2.817,2.6832,2.653,2.6301,2.6033,2.5503,2.5343,2.5507,2.4865,2.5091,2.61,2.6318,2.7114,2.8301,2.8301,2.8301,0.0,0.0,0.0,2.8301,2.8301,2.8301,2.8301,2.8301,2.8301,2.8301,2.8301,2.8301,2.8301,2.8301,2.8262,2.8066,2.7266,2.6973,2.6777,2.5927,2.5693,2.5693,2.5693,2.5693,2.5693,2.5693,2.5693,2.5693,2.5693,2.5449,2.5156,2.5125,2.4785,2.4512,2.4512,2.4512,2.4512,2.4512,2.4512,2.4492,2.4434,2.4414,2.4277,2.3926,2.3887,2.375,2.3335,2.3296,2.3296,2.3296,2.3237,2.3198,2.3198,2.314,2.3101,2.3101,2.3101,2.312,2.3198,2.3672,2.3887,2.3887,2.4746,2.5184,2.5125,2.5527,2.5693,1.7515,1.7996,1.8303,1.7782,1.7849,1.7929,1.7716,1.7622,1.7582,1.7582,1.7582,1.7742,1.825,1.928,1.9955,1.9584,2.1892,2.5086,0.0,0.0,2.9883,3.0684,0.0,0.0,0.0,0.0,0.0,0.0,0.0,3.0392,3.0157,2.8783,2.8464,2.9432,2.7682,2.7244,2.827,2.6665,2.5935,2.61,2.7384,2.8067,2.8301,2.8301,2.8301,0.0,0.0,2.8301,2.8301,2.8301,2.8301,2.8301,2.8301,2.8301,2.8301,2.8301,2.8301,2.8301,2.8301,2.8066,2.7676,2.7187,2.6777,2.6387,2.5849,2.5693,2.5693,2.5693,2.5693,2.5693,2.5693,2.5693,2.5693,2.5693,2.5635,2.5527,2.5156,2.5067,2.4961,2.4961,2.4961,2.4961,2.4961,2.4961,2.4844,2.4473,2.4414,2.4394,2.4336,2.4316,2.4297,2.4219,2.4219,2.4219,2.4219,2.3887,2.3691,2.3691,2.3296,2.3101,2.3101,2.3101,2.332,2.3691,2.4102,2.4316,2.4316,2.5148,2.5449,2.5125,2.5527,2.5693,1.7074,1.7542,1.7929,1.7649,1.805,1.8422,1.8343,1.8183,1.8023,1.7862,1.7836,1.7916,1.8196,1.8796,1.9814,2.1609,2.3704,2.6149,2.9155,2.9375,2.9531,0.0,0.0,0.0,0.0,0.0,0.0,0.0,0.0,0.0,3.0527,2.9775,2.9412,2.9475,2.8574,2.8214,2.8594,2.7714,2.7276,2.7276,2.796,2.8301,2.8301,2.8301,2.8301,2.8301,0.0,2.8301,2.8301,2.8301,2.8301,2.8301,2.8301,2.8301,2.8301,2.8301,2.8301,2.8301,2.8301,2.8027,2.7598,2.7148,2.6738,2.6309,2.581,2.5693,2.5693,2.5693,2.5693,2.5693,2.5693,2.5693,2.5693,2.5693,2.5693,2.5635,2.5469,2.543,2.543,2.543,2.543,2.543,2.543,2.543,2.5352,2.5109,2.5089,2.5039,2.4805,2.4766,2.4668,2.4434,2.4414,2.4414,2.4414,2.4238,2.3926,2.3477,2.3198,2.3101,2.3101,2.3315,2.3574,2.3789,2.4434,2.4766,2.4766,2.541,2.5577,2.543,2.5596,2.5693,1.6687,1.7128,1.7569,1.7502,1.805,1.8651,1.8784,1.8544,1.825,1.8115,1.8102,1.8115,1.8182,1.849,1.985,2.3253,2.4986,2.6603,2.8612,2.8901,2.9238,3.0098,0.0,0.0,0.0,0.0,0.0,0.0,0.0,0.0,3.0215,3.0098,2.9707,2.8945,2.8926,2.8711,2.8301,2.8301,2.8301,2.8301,2.8301,2.8301,2.8301,2.8301,2.8301,2.8301,2.8301,2.8301,2.8301,2.8301,2.8301,2.8301,2.8301,2.8301,2.8301,2.8301,2.8301,2.8301,2.8301,2.8027,2.7669,2.7285,2.6816,2.6328,2.5996,2.5771,2.5693,2.5693,2.5693,2.5693,2.5693,2.5693,2.5693,2.5693,2.5693,2.5693,2.5693,2.5693,2.5693,2.5693,2.5693,2.5693,2.5693,2.5693,2.5693,2.5693,2.5693,2.5557,2.5273,2.5215,2.5098,2.4766,2.468,2.4687,2.457,2.457,2.4238,2.3432,2.3393,2.3393,2.3393,2.3769,2.3984,2.4082,2.4773,2.5165,2.5215,2.5566,2.5693,2.5693,2.5693,2.5693,1.6633,1.7128,1.7515,1.73,1.7487,1.7822,1.8397,1.8063,1.7796,1.8343,1.8464,1.8544,1.8811,1.9105,1.9883,2.1559,2.3015,2.4658,2.6641,0.0,2.9238,0.0,0.0,0.0,0.0,0.0,0.0,0.0,0.0,0.0,3.0195,2.9824,0.0,2.8926,2.8926,2.8711,2.8301,2.8301,2.8301,2.8301,2.8301,2.8301,2.8301,2.8301,2.8301,2.8301,2.8301,2.8301,2.8301,2.8301,2.8301,2.8301,2.8301,2.8301,2.8301,2.8301,2.8301,2.8301,2.8301,2.8027,2.7708,2.7689,2.707,2.6387,2.6348,2.6055,2.5693,2.5693,2.5693,2.5693,2.5693,2.5693,2.5693,2.5693,2.5693,2.5693,2.5693,2.5693,2.5693,2.5693,2.5693,2.5693,2.5693,2.5693,2.5693,2.5693,2.5693,2.5674,2.5635,2.5635,2.5635,2.5596,2.5596,2.5469,2.5106,2.5067,2.4824,2.4355,2.4316,2.4316,2.4316,2.4355,2.4551,2.5008,2.5086,2.5273,2.5635,2.5674,2.5693,2.5693,2.5693,2.5693,1.6126,1.6727,1.734,1.7233,1.742,1.7742,1.8357,1.845,1.8477,1.8718,1.8758,1.8744,1.8664,1.9199,2.0086,2.1502,2.3061,2.4811,2.6796,2.8124,0.0,0.0,0.0,0.0,0.0,0.0,0.0,0.0,0.0,0.0,0.0,2.9258,2.8965,2.8535,2.8535,2.8457,2.8301,2.8301,2.8301,2.8301,2.8301,2.8301,2.8301,2.8301,2.8301,2.8301,2.8301,2.8301,2.8301,2.8301,2.8301,2.8301,2.8301,2.8301,2.8301,2.8301,2.8301,2.8301,2.8301,2.8027,2.7728,2.7728,2.709,2.6387,2.6387,2.6074,2.5693,2.5693,2.5693,2.5693,2.5693,2.5693,2.5693,2.5693,2.5693,2.5693,2.5693,2.5693,2.5693,2.5693,2.5693,2.5693,2.5693,2.5693,2.5693,2.5693,2.5693,2.5693,2.5693,2.5693,2.5693,2.5693,2.5693,2.5615,2.5508,2.5488,2.541,2.5206,2.4727,2.4414,2.4414,2.4668,2.4902,2.5106,2.5352,2.5566,2.5693,2.5693,2.5693,2.5693,2.5693,2.5693,1.5822,1.6553,1.7206,1.7206,1.7487,1.7862,1.837,1.8571,1.8731,1.9011,1.8985,1.8891,1.8784,1.9185,1.9815,0.0,2.2409,2.4113,2.5957,0.0,0.0,0.0,0.0,0.0,0.0,0.0,0.0,0.0,0.0,0.0,0.0,2.8789,2.8594,0.0,2.8301,2.8301,2.8301,2.8301,2.8301,2.8301,2.8301,2.8301,2.8301,2.8301,2.8301,2.8301,2.8301,2.8301,2.8301,2.8301,2.8301,2.8301,2.8301,2.8301,2.8301,2.8301,2.8301,2.8301,2.8301,2.8105,2.7871,2.7871,2.7285,2.6582,2.6582,2.6191,2.5693,2.5693,2.5693,2.5693,2.5693,2.5693,2.5693,2.5693,2.5693,2.5693,2.5693,2.5693,2.5693,2.5693,2.5693,2.5693,2.5693,2.5693,2.5693,2.5693,2.5693,2.5693,2.5693,2.5693,2.5693,2.5693,2.5693,2.5693,2.5693,2.5693,2.5693,2.5693,2.5128,2.4797,2.4797,2.5117,2.5273,2.5273,2.5586,2.5693,2.5693,2.5693,2.5693,2.5693,2.5693,2.5693,1.5918,1.675,1.7206,1.7206,1.7609,1.8075,1.8424,1.8263,1.8249,1.9185,1.9132,1.9011,1.9305,1.9118,1.9025,1.9319,2.0644,2.2153,2.3599,0.0,0.0,0.0,0.0,0.0,0.0,0.0,0.0,0.0,0.0,0.0,0.0,2.8516,2.8301,0.0,2.8301,2.8301,2.8301,2.8301,2.8301,2.8301,2.8301,2.8301,2.8301,2.8301,2.8301,2.8301,2.8301,2.8301,2.8301,2.8301,2.8301,2.8301,2.8301,2.8301,2.8301,2.8301,2.8301,2.8301,2.8301,2.8301,2.8301,2.8281,2.7715,2.7012,2.7012,2.6406,2.5693,2.5693,2.5693,2.5693,2.5693,2.5693,2.5693,2.5693,2.5693,2.5693,2.5693,2.5693,2.5693,2.5693,2.5693,2.5693,2.5693,2.5693,2.5693,2.5693,2.5693,2.5693,2.5693,2.5693,2.5693,2.5693,2.5693,2.5693,2.5693,2.5693,2.5693,2.5693,2.5693,2.5693,2.5693,2.5693,2.5693,2.5693,2.5693,2.5693,2.5693,2.5693,2.5693,2.5693,2.5693,2.5693,1.5621,1.654,1.7206,1.7206,1.7756,1.8437,1.8731,1.8731,1.8798,1.9265,1.9292,1.9199,1.9078,1.9158,0.0,1.9078,2.0501,2.2153,0.0,0.0,0.0,0.0,0.0,0.0,0.0,0.0,0.0,0.0,0.0,0.0,0.0,2.8359,2.8301,0.0,2.8301,2.8301,2.8301,2.8301,2.8301,2.8301,2.8301,2.8301,2.8301,2.8301,2.8301,2.8301,2.8301,2.8301,2.8301,2.8301,2.8301,2.8301,2.8301,2.8301,2.8301,2.8301,2.8301,2.8301,2.8301,2.8301,2.8242,2.7949,2.748,2.6953,2.666,2.6191,2.5693,2.5693,2.5693,2.5693,2.5693,2.5693,2.5693,2.5693,2.5693,2.5693,2.5693,2.5693,2.5693,2.5693,2.5693,2.5693,2.5693,2.5693,2.5693,2.5693,2.5693,2.5693,2.5693,2.5693,2.5693,2.5693,2.5693,2.5693,2.5693,2.5693,2.5693,2.5693,2.5693,2.5693,2.5693,2.5693,2.5693,2.5693,2.5693,2.5693,2.5693,2.5693,2.5693,2.5693,2.5693,2.5693,1.5862,1.6834,1.7434,1.7675,1.809,1.8597,1.9011,1.9105,1.9145,1.939,1.9279,1.9172,1.9118,1.9145,0.0,1.9105,2.003,0.0,0.0,0.0,0.0,0.0,0.0,0.0,0.0,0.0,0.0,0.0,0.0,0.0,0.0,2.8301,0.0,0.0,2.8301,2.8301,2.8301,2.8301,2.8301,2.8301,2.8301,2.8301,2.8301,2.8301,2.8301,2.8301,2.8301,2.8203,2.8066,2.8223,2.8086,2.7812,2.7969,2.793,2.7793,2.7793,2.7793,2.7793,2.7793,2.7793,2.7734,2.75,2.7109,2.6719,2.6465,2.6074,2.5693,2.5693,2.5693,2.5693,2.5693,2.5693,2.5693,2.5693,2.5693,2.5693,2.5693,2.5693,2.5693,2.5693,2.5693,2.5693,2.5693,2.5693,2.5693,2.5693,2.5693,2.5693,2.5693,2.5693,2.5693,2.5693,2.5693,2.5693,2.5693,2.5693,2.5693,2.5693,2.5693,2.5693,2.5693,2.5693,2.5693,2.5693,2.5693,2.5693,2.5693,2.5693,2.5693,2.5693,2.5693,2.5693,1.6164,1.7159,1.7556,1.8303,1.8517,1.8704,1.9252,1.943,1.943,1.943,1.9158,1.9052,1.9319,1.9145,1.9052,1.9319,0.0,0.0,0.0,0.0,0.0,0.0,0.0,0.0,0.0,0.0,0.0,0.0,0.0,0.0,0.0,2.8301,0.0,2.8301,2.8301,2.8301,2.8301,2.8301,2.8301,0.0,2.8301,2.8301,2.8301,2.8301,2.8301,2.8301,2.8301,2.8047,2.7748,2.8125,2.7793,2.7051,2.75,2.7402,2.7012,2.7012,2.7012,2.7012,2.7012,2.7012,2.7012,2.6973,2.6699,2.6387,2.6348,2.6055,2.5693,2.5693,2.5693,2.5693,2.5693,2.5693,2.5693,2.5693,2.5693,2.5693,2.5693,2.5693,2.5693,2.5693,2.5693,2.5693,2.5693,2.5693,2.5693,2.5693,2.5693,2.5693,2.5693,2.5693,2.5693,2.5693,2.5693,2.5693,2.5693,2.5693,2.5693,2.5693,2.5693,2.5693,2.5693,2.5693,2.5693,2.5693,2.5693,2.5693,2.5693,2.5693,2.5693,2.5693,2.5693,2.5693,1.4209,1.5382,1.6201,1.7711,1.8664,1.9269,1.939,1.943,1.943,1.943,1.9319,1.9292,1.9417,1.9319,1.9292,0.0,0.0,0.0,0.0,0.0,0.0,0.0,0.0,0.0,0.0,0.0,0.0,0.0,0.0,0.0,2.8301,2.8301,0.0,2.8301,2.8301,2.8301,2.8301,2.8301,2.8301,0.0,2.8301,2.8301,2.8301,2.8301,2.8301,2.8301,2.8301,2.8047,2.7748,2.8125,2.7793,2.7051,2.75,2.7402,2.7012,2.7012,2.7012,2.7012,2.7012,2.7012,2.6953,2.6621,2.6465,2.6328,2.5977,2.5771,2.5693,2.5693,2.5693,2.5693,2.5693,2.5693,2.5693,2.5693,2.5693,2.5693,2.5693,2.5693,2.5693,2.5693,2.5693,2.5693,2.5693,2.5693,2.5693,2.5693,2.5693,2.5693,2.5693,2.5693,2.5693,2.5693,2.5693,2.5693,2.5693,2.5693,2.5693,2.5693,2.5693,2.5693,2.5693,2.5693,2.5693,2.5693,2.5693,2.5693,2.5693,2.5693,2.5693,2.5693,2.5693,2.5693,1.3943,1.4981,1.5801,1.7777,1.8811,1.943,1.943,1.943,1.943,1.943,1.943,1.943,1.943,1.943,1.943,0.0,0.0,0.0,0.0,0.0,0.0,0.0,0.0,0.0,0.0,0.0,0.0,0.0,0.0,2.8301,2.8301,2.8301,2.8301,2.8301,2.8301,2.8301,2.8301,2.8301,2.8301,2.8301,2.8301,2.8301,2.8301,2.8301,2.8301,2.8281,2.8086,2.7754,2.7363,2.7598,2.7168,2.6395,2.6875,2.6797,2.6356,2.6356,2.6356,2.6356,2.6356,2.6356,2.6317,2.6152,2.6074,2.6035,2.5752,2.5693,2.5693,2.5693,2.5693,2.5693,2.5693,2.5693,2.5693,2.5693,2.5693,2.5693,2.5693,2.5693,2.5693,2.5693,2.5693,2.5693,2.5693,2.5693,2.5693,2.5693,2.5693,2.5693,2.5693,2.5693,2.5693,2.5693,2.5693,2.5693,2.5693,2.5693,2.5693,2.5693,2.5693,2.5693,2.5693,2.5693,2.5693,2.5693,2.5693,2.5693,2.5693,2.5693,2.5693,2.5693,2.5693,2.5693,1.3865,1.5167,1.611,1.8055,1.8931,1.9305,1.9417,1.943,1.943,1.943,1.943,1.943,1.943,1.943,0.0,0.0,0.0,0.0,0.0,0.0,0.0,0.0,0.0,0.0,0.0,0.0,0.0,0.0,0.0,2.8301,2.8301,2.8301,2.8301,2.8301,2.8301,2.8301,2.8301,2.8301,2.8301,2.8301,2.8301,2.8301,2.8301,2.8301,2.8262,2.8164,2.7812,2.7383,2.6914,2.6992,2.6504,2.5732,2.6211,2.6113,2.5693,2.5693,2.5693,2.5693,2.5693,2.5693,2.5693,2.5693,2.5693,2.5693,2.5693,2.5693,2.5693,2.5693,2.5693,2.5693,2.5693,2.5693,2.5693,2.5693,2.5693,2.5693,2.5693,2.5693,2.5693,2.5693,2.5693,2.5693,2.5693,2.5693,2.5693,2.5693,2.5693,2.5693,2.5693,2.5693,2.5693,2.5693,2.5693,2.5693,2.5693,2.5693,2.5693,2.5693,2.5693,2.5693,2.5693,2.5693,2.5693,2.5693,2.5693,2.5693,2.5693,2.5693,2.5693,2.5693,2.5693,2.5693,1.2002,1.4974,1.7516,1.8582,1.8918,1.9052,1.9305,1.943,1.943,1.943,1.943,1.943,1.943,1.943,0.0,0.0,0.0,0.0,0.0,0.0,0.0,0.0,0.0,0.0,0.0,0.0,0.0,0.0,2.8301,2.8301,2.8301,2.8301,2.8301,2.8301,2.8301,2.8301,2.8301,2.8301,2.8301,2.8301,2.8301,2.8301,2.8301,2.8301,2.8086,2.7806,2.7748,2.7258,2.6504,2.6875,2.6504,2.5732,2.6211,2.6113,2.5693,2.5693,2.5693,2.5693,2.5693,2.5693,2.5693,2.5693,2.5693,2.5693,2.5693,2.5693,2.5693,2.5693,2.5693,2.5693,2.5693,2.5693,2.5693,2.5693,2.5693,2.5693,2.5693,2.5693,2.5693,2.5693,2.5693,2.5693,2.5693,2.5693,2.5693,2.5693,2.5693,2.5693,2.5693,2.5693,2.5693,2.5693,2.5693,2.5693,2.5693,2.5693,2.5693,2.5693,2.5693,2.5693,2.5693,2.5693,2.5693,2.5693,2.5693,2.5693,2.5693,2.5693,2.5693,2.5693,2.5693,2.5693,1.2939,1.5624,1.7716,1.8235,1.8557,1.8758,1.9052,1.9118,1.9172,1.9332,1.943,1.943,1.943,0.0,0.0,0.0,0.0,0.0,0.0,0.0,0.0,0.0,0.0,0.0,0.0,0.0,0.0,0.0,2.8301,2.8301,2.8301,2.8301,2.8301,2.8301,2.8301,2.8301,2.8301,2.8301,2.8301,2.8301,2.8301,2.8301,2.8301,2.8301,2.8066,2.7708,2.7402,2.6953,2.6387,2.6328,2.6025,2.5713,2.5957,2.5849,2.5693,2.5693,2.5693,2.5693,2.5693,2.5693,2.5693,2.5693,2.5693,2.5693,2.5693,2.5693,2.5693,2.5693,2.5693,2.5693,2.5693,2.5693,2.5693,2.5693,2.5693,2.5693,2.5693,2.5693,2.5693,2.5693,2.5693,2.5693,2.5693,2.5693,2.5693,2.5693,2.5693,2.5693,2.5693,2.5693,2.5693,2.5693,2.5693,2.5693,2.5693,2.5693,2.5693,2.5693,2.5693,2.5693,2.5693,2.5693,2.5693,2.5693,2.5693,2.5693,2.5693,2.5693,2.5693,2.5693,2.5693,2.5693,1.3624,1.545,1.6873,1.7274,1.7601,1.7958,1.8619,1.8811,1.8891,0.0,1.9252,1.9279,0.0,0.0,0.0,0.0,0.0,0.0,0.0,0.0,0.0,0.0,0.0,0.0,0.0,0.0,0.0,0.0,2.8301,2.8301,2.8301,2.8301,2.8301,2.8301,2.8301,2.8301,2.8301,2.8301,2.8301,2.8301,2.8301,2.8301,2.8281,2.8184,2.791,2.748,2.7148,2.6719,2.6191,2.583,2.5693,2.5693,2.5693,2.5693,2.5693,2.5693,2.5693,2.5693,2.5693,2.5693,2.5693,2.5693,2.5693,2.5693,2.5693,2.5693,2.5693,2.5693,2.5693,2.5693,2.5693,2.5693,2.5693,2.5693,2.5693,2.5693,2.5693,2.5693,2.5693,2.5693,2.5693,2.5693,2.5693,2.5693,2.5693,2.5693,2.5693,2.5693,2.5693,2.5693,2.5693,2.5693,2.5693,2.5693,2.5693,2.5693,2.5693,2.5693,2.5693,2.5693,2.5693,2.5693,2.5693,2.5693,2.5693,2.5693,2.5693,2.5693,2.5693,2.5693,2.5693,2.5693,1.273,1.3452,1.4657,1.5534,1.5737,1.627,1.8095,1.8517,1.8597,1.8891,1.8945,1.9038,0.0,0.0,0.0,0.0,0.0,0.0,0.0,0.0,0.0,0.0,0.0,0.0,0.0,0.0,0.0,0.0,2.8301,2.8301,2.8301,2.8301,2.8301,2.8301,2.8301,2.8301,2.8301,2.8301,2.8301,2.8301,2.8301,2.8301,2.8281,2.7943,2.7461,2.7051,2.7031,2.6543,2.5713,2.5693,2.5693,2.5693,2.5693,2.5693,2.5693,2.5693,2.5693,2.5693,2.5693,2.5693,2.5693,2.5693,2.5693,2.5693,2.5693,2.5693,2.5693,2.5693,2.5693,2.5693,2.5693,2.5693,2.5693,2.5693,2.5693,2.5693,2.5693,2.5693,2.5693,2.5693,2.5693,2.5693,2.5693,2.5693,2.5693,2.5693,2.5693,2.5693,2.5693,2.5693,2.5693,2.5693,2.5693,2.5693,2.5693,2.5693,2.5693,2.5693,2.5693,2.5693,2.5693,2.5693,2.5693,2.5693,2.5693,2.5693,2.5693,2.5693,2.5693,2.5693,2.5693,2.5693,1.1915,1.259,1.3186,1.3587,1.4516,1.5546,1.6456,1.7595,1.8571,1.8865,1.9078,0.0,0.0,0.0,0.0,0.0,0.0,0.0,0.0,0.0,0.0,0.0,0.0,0.0,0.0,0.0,0.0,0.0,0.0,2.8301,2.8301,2.8301,2.8301,2.8301,2.8301,2.8301,2.8301,2.8301,2.8301,2.8301,2.8301,2.8144,2.7891,2.7787,2.7285,2.6602,2.6602,2.6289,2.5693,2.5693,2.5693,2.5693,2.5693,2.5693,2.5693,2.5693,2.5693,2.5693,2.5693,2.5693,2.5693,2.5693,2.5693,2.5693,2.5693,2.5693,2.5693,2.5693,2.5693,2.5693,2.5693,2.5693,2.5693,2.5693,2.5693,2.5693,2.5693,2.5693,2.5693,2.5693,2.5693,2.5693,2.5693,2.5693,2.5693,2.5693,2.5693,2.5693,2.5693,2.5693,2.5693,2.5693,2.5693,2.5693,2.5693,2.5693,2.5693,2.5693,2.5693,2.5693,2.5693,2.5693,2.5693,2.5693,2.5693,2.5693,2.5693,2.5693,2.5693,2.5693,2.5693,2.583,1.2256,1.2314,1.2401,1.3147,1.3779,1.4596,1.5976,1.7221,1.8183,1.8677,1.8931,0.0,0.0,0.0,0.0,0.0,0.0,0.0,0.0,0.0,0.0,0.0,0.0,0.0,0.0,0.0,0.0,0.0,0.0,0.0,2.8301,2.8301,2.8301,2.8301,2.8301,2.8301,2.8301,2.8301,2.8301,2.8301,2.8144,2.793,2.7708,2.7415,2.6934,2.6387,2.623,2.5996,2.5693,2.5693,2.5693,2.5693,2.5693,2.5693,2.5693,2.5693,2.5693,2.5693,2.5693,2.5693,2.5693,2.5693,2.5693,2.5693,2.5693,2.5693,2.5693,2.5693,2.5693,2.5693,2.5693,2.5693,2.5693,2.5693,2.5693,2.5693,2.5693,2.5693,2.5693,2.5693,2.5693,2.5693,2.5693,2.5693,2.5693,2.5693,2.5693,2.5693,2.5693,2.5693,2.5693,2.5693,2.5693,2.5693,2.5693,2.5693,2.5693,2.5693,2.5693,2.5693,2.5693,2.5693,2.5693,2.5693,2.5693,2.5693,2.5693,2.5693,2.5693,2.5693,2.5693,2.6005,0.0,0.0,0.0,1.4232,1.3585,0.0,1.6703,0.0,1.7447,1.8277,0.0,0.0,0.0,0.0,0.0,0.0,0.0,0.0,0.0,0.0,0.0,0.0,0.0,0.0,0.0,0.0,0.0,0.0,2.8301,2.8301,2.8301,2.8281,2.8281,2.8281,2.8262,2.8262,2.8262,2.8262,2.8262,2.8262,2.7904,2.7689,2.765,2.6777,2.6387,2.6348,2.5918,2.5693,2.5693,2.5693,2.5693,2.5693,2.5693,2.5693,2.5693,2.5693,2.5693,2.5693,2.5693,2.5693,2.5693,2.5693,2.5693,2.5693,2.5693,2.5693,2.5693,2.5693,2.5693,2.5693,2.5693,2.5693,2.5693,2.5693,2.5693,2.5693,2.5693,2.5693,2.5693,2.5693,2.5693,2.5693,2.5693,2.5693,2.5693,2.5693,2.5693,2.5693,2.5693,2.5693,2.5693,2.5693,2.5693,2.5693,2.5693,2.5693,2.5693,2.5693,2.5693,2.5693,2.5693,2.5693,2.5693,2.5693,2.5693,2.5693,2.5693,2.5693,2.5693,2.5693,2.5713,2.6161,1.2145,0.0,0.0,0.0,0.0,0.0,0.0,0.0,0.0,1.7742,0.0,0.0,0.0,0.0,0.0,0.0,0.0,0.0,0.0,0.0,0.0,0.0,0.0,0.0,0.0,0.0,0.0,0.0,2.8301,2.8301,2.8301,2.8008,2.7885,2.7885,2.7539,2.7363,2.7363,2.7363,2.7363,2.7363,2.7246,2.7031,2.6738,2.6504,2.6211,2.5918,2.5752,2.5693,2.5693,2.5693,2.5693,2.5693,2.5693,2.5693,2.5693,2.5693,2.5693,2.5693,2.5693,2.5693,2.5693,2.5693,2.5693,2.5693,2.5693,2.5693,2.5693,2.5693,2.5693,2.5693,2.5693,2.5693,2.5693,2.5693,2.5693,2.5693,2.5693,2.5693,2.5693,2.5693,2.5693,2.5693,2.5693,2.5693,2.5693,2.5693,2.5693,2.5693,2.5693,2.5693,2.5693,2.5693,2.5693,2.5693,2.5693,2.5693,2.5693,2.5693,2.5693,2.5693,2.5693,2.5693,2.5693,2.5693,2.5693,2.5693,2.5693,2.5693,2.5693,2.5713,2.6367,2.6797,1.317,1.2955,1.2898,1.349,0.0,0.0,1.532,1.6289,0.0,0.0,0.0,0.0,0.0,0.0,0.0,0.0,0.0,0.0,0.0,0.0,0.0,0.0,0.0,0.0,0.0,2.8301,2.8301,2.8301,2.8301,2.8301,2.8301,2.7891,2.7728,2.7728,2.7246,2.7012,2.7012,2.7012,2.7012,2.7012,2.6836,2.6621,2.6387,2.6191,2.5977,2.5693,2.5693,2.5693,2.5693,2.5693,2.5693,2.5693,2.5693,2.5693,2.5693,2.5693,2.5693,2.5693,2.5693,2.5693,2.5693,2.5693,2.5693,2.5693,2.5693,2.5693,2.5693,2.5693,2.5693,2.5693,2.5693,2.5693,2.5693,2.5693,2.583,2.5957,2.5732,2.583,2.5908,2.5732,2.5693,2.5693,2.5693,2.5693,2.5693,2.5693,2.5693,2.5693,2.5693,2.5693,2.5693,2.5693,2.5693,2.5693,2.5693,2.5898,2.5937,2.5693,2.5849,2.5869,2.5693,2.5693,2.5693,2.5693,2.5693,2.5693,2.5693,2.5693,2.5693,2.5713,2.6621,2.7012,1.5444,1.4807,1.4472,1.591,1.5187,0.0,1.6619,1.6794,1.6847,0.0,0.0,0.0,0.0,0.0,0.0,0.0,0.0,0.0,0.0,0.0,0.0,0.0,0.0,0.0,2.8072,2.8359,2.834,2.8301,2.8301,2.8301,2.8301,2.7851,2.7598,2.7598,2.7129,2.6875,2.6875,2.6875,2.6875,2.6875,2.6484,2.6309,2.6309,2.5869,2.5693,2.5693,2.5693,2.5693,2.5693,2.5693,2.5693,2.5693,2.5693,2.5693,2.5693,2.5693,2.5693,2.5693,2.5693,2.5693,2.5693,2.5693,2.5693,2.5693,2.5693,2.5693,2.5693,2.5693,2.5693,2.5693,2.5693,2.5693,2.5693,2.5693,2.6074,2.6289,2.5898,2.6113,2.6269,2.583,2.5752,2.5752,2.5752,2.5752,2.5752,2.5693,2.5693,2.5693,2.5693,2.5693,2.5693,2.5693,2.5693,2.5693,2.5693,2.6133,2.6211,2.5713,2.6152,2.6191,2.5713,2.5693,2.5693,2.5693,2.5693,2.5693,2.5693,2.5693,2.5713,2.5791,2.6641,2.7031,1.5704,1.5589,1.5499,1.5803,1.5681,0.0,1.5949,1.6046,1.6112,0.0,0.0,0.0,0.0,0.0,0.0,0.0,0.0,0.0,0.0,0.0,0.0,0.0,0.0,0.0,2.8517,2.8789,2.8652,2.832,2.8301,2.8301,2.8301,2.7559,2.7148,2.7148,2.6387,2.5927,2.5927,2.5927,2.5927,2.5927,2.5849,2.5859,2.581,2.5732,2.5693,2.5693,2.5693,2.5693,2.5693,2.5693,2.5693,2.5693,2.5693,2.5693,2.5693,2.5693,2.5693,2.5693,2.5693,2.5693,2.5693,2.5693,2.5693,2.5693,2.5693,2.5693,2.5693,2.5693,2.5693,2.5693,2.5693,2.5693,2.5693,2.5693,2.6074,2.6367,2.6289,2.6328,2.6367,2.6269,2.6269,2.6269,2.6269,2.6269,2.6133,2.5752,2.5693,2.5693,2.5693,2.5693,2.5693,2.5693,2.5693,2.5693,2.5693,2.6133,2.6211,2.5713,2.6152,2.6191,2.5713,2.5693,2.5693,2.5693,2.5693,2.5693,2.5693,2.5693,2.5869,2.6269,2.6777,2.7207,1.5872,1.5784,1.5784,1.5784,0.0,0.0,0.0,1.6046,1.6139,1.6433,1.6486,0.0,0.0,0.0,0.0,0.0,0.0,0.0,0.0,0.0,0.0,0.0,0.0,0.0,2.7791,2.8528,2.875,2.832,2.8301,2.8203,2.7988,2.7363,2.6914,2.6699,2.6025,2.5693,2.5693,2.5693,2.5693,2.5693,2.5693,2.5693,2.5693,2.5693,2.5693,2.5693,2.5693,2.5693,2.5693,2.5693,2.5693,2.5693,2.5693,2.5693,2.5693,2.5693,2.5693,2.5693,2.5693,2.5693,2.5693,2.5693,2.5693,2.5693,2.5693,2.5693,2.5693,2.5693,2.5693,2.5693,2.5693,2.5693,2.5693,2.5693,2.6074,2.6387,2.6387,2.6387,2.6445,2.666,2.6523,2.6328,2.6094,2.6055,2.5996,2.5732,2.5693,2.5693,2.5693,2.5693,2.5693,2.5693,2.5693,2.5693,2.5693,2.6133,2.6289,2.6074,2.6269,2.6289,2.6074,2.581,2.5693,2.5693,2.5693,2.5791,2.6055,2.6055,2.6172,2.6406,2.7031,2.7461,0.0,1.5784,1.5784,0.0,0.0,1.5885,0.0,0.0,0.0,1.6486,0.0,0.0,0.0,0.0,0.0,0.0,0.0,0.0,0.0,0.0,0.0,0.0,0.0,0.0,0.0,2.8011,2.8574,2.832,2.8223,2.8066,2.7865,2.7305,2.6855,2.6523,2.6016,2.5693,2.5693,2.5693,2.5693,2.5693,2.5693,2.5693,2.5693,2.5693,2.5693,2.5693,2.5693,2.5693,2.5693,2.5693,2.5693,2.5693,2.5693,2.5693,2.5693,2.5693,2.5693,2.5693,2.5693,2.5693,2.5693,2.5693,2.5693,2.5693,2.5693,2.5693,2.5693,2.5693,2.5693,2.5693,2.5693,2.5693,2.5693,2.5693,2.6074,2.6406,2.6484,2.6504,2.6602,2.6953,2.668,2.6269,2.5918,2.581,2.5791,2.5693,2.5693,2.5693,2.5693,2.5693,2.5693,2.5693,2.5693,2.5693,2.5693,2.6133,2.6387,2.6387,2.6465,2.6465,2.6387,2.5977,2.5693,2.5693,2.5771,2.6035,2.6387,2.6562,2.6641,2.666,2.7344,2.7767,0.0,0.0,0.0,0.0,1.5784,0.0,0.0,0.0,1.5885,1.5925,0.0,0.0,0.0,0.0,0.0,0.0,0.0,0.0,0.0,0.0,0.0,0.0,0.0,0.0,0.0,2.7384,2.7949,2.8262,2.7949,2.7871,2.8203,2.7461,2.6992,2.6953,2.6103,2.5693,2.5693,2.5693,2.5693,2.5693,2.5693,2.5693,2.5693,2.5693,2.5693,2.5693,2.5693,2.5693,2.5693,2.5693,2.5693,2.5693,2.5693,2.5693,2.5693,2.5693,2.5693,2.5693,2.5693,2.5693,2.5693,2.5693,2.5693,2.5693,2.5693,2.5693,2.5693,2.5693,2.5693,2.5693,2.5693,2.5693,2.5693,2.5693,2.6074,2.6484,2.6855,2.6953,2.6953,2.7012,2.668,2.6367,2.6328,2.6309,2.6191,2.5752,2.5693,2.5693,2.5693,2.5693,2.5693,2.5693,2.5693,2.5693,2.5693,2.6133,2.6387,2.6387,2.6738,2.6777,2.6406,2.5977,2.5693,2.5693,2.6113,2.6348,2.6387,2.72,2.7571,2.7571,2.7669,2.7871,0.0,0.0,0.0,0.0,0.0,0.0,1.5784,0.0,1.5784,0.0,0.0,0.0,0.0,0.0,0.0,0.0,0.0,0.0,0.0,0.0,0.0,0.0,0.0,0.0,0.0,0.0,0.0,0.0,2.791,2.7754,2.793,2.7344,2.6894,2.666,2.6005,2.5693,2.5693,2.5693,2.5693,2.5693,2.5693,2.5693,2.5693,2.5693,2.5693,2.5693,2.5693,2.5693,2.5693,2.5693,2.5693,2.5693,2.5693,2.5693,2.5693,2.5693,2.5693,2.5693,2.5693,2.5693,2.5693,2.5693,2.5693,2.5693,2.5693,2.5693,2.5693,2.5693,2.5693,2.5693,2.5693,2.5693,2.5693,2.5693,2.583,2.6191,2.6875,2.6816,2.6797,2.7305,2.7051,2.6758,2.6758,2.6348,2.5957,2.5713,2.5693,2.5693,2.5693,2.5693,2.5693,2.5693,2.5693,2.5693,2.5693,2.6133,2.6484,2.6738,2.6914,2.6719,2.6035,2.6074,2.6113,2.6113,2.6543,2.6875,2.718,2.7552,2.7845,2.8027,2.8027,2.8125,1.5912,0.0,0.0,0.0,0.0,0.0,0.0,0.0,0.0,0.0,0.0,0.0,0.0,0.0,0.0,0.0,0.0,0.0,0.0,0.0,0.0,0.0,0.0,0.0,0.0,0.0,0.0,0.0,0.0,2.7578,2.7832,2.7305,2.6875,2.6562,2.6016,2.5693,2.5693,2.5693,2.5693,2.5693,2.5693,2.5693,2.5693,2.5693,2.5693,2.5693,2.5693,2.5693,2.5693,2.5693,2.5693,2.5693,2.5693,2.5693,2.5693,2.5693,2.5693,2.5693,2.5693,2.5693,2.5693,2.5693,2.5693,2.5693,2.5693,2.5693,2.5693,2.5693,2.5693,2.5693,2.5693,2.5693,2.5693,2.5693,2.5771,2.6113,2.6855,2.6875,2.6914,2.7591,2.7402,2.7148,2.7031,2.6504,2.6005,2.5937,2.5869,2.5869,2.5869,2.5869,2.5908,2.6025,2.6044,2.6044,2.6044,2.6269,2.6562,2.6992,2.7129,2.6914,2.6289,2.6445,2.6562,2.6562,2.6973,2.7344,2.7728,2.7826,2.7988,2.8301,2.8301,2.8301,0.0,0.0,0.0,1.5784,0.0,0.0,0.0,0.0,1.6259,0.0,0.0,0.0,0.0,0.0,0.0,1.7139,0.0,0.0,0.0,0.0,0.0,0.0,0.0,0.0,0.0,0.0,0.0,0.0,0.0,0.0,2.8223,2.748,2.7012,2.6992,2.6122,2.5693,2.5693,2.5693,2.5693,2.5693,2.5693,2.5693,2.5693,2.5693,2.5693,2.5693,2.5693,2.5693,2.5693,2.5693,2.5693,2.5693,2.5693,2.5693,2.5693,2.5693,2.5693,2.5693,2.5693,2.5693,2.5693,2.5693,2.5693,2.5693,2.5693,2.5693,2.5693,2.5693,2.5693,2.5693,2.5693,2.5693,2.5693,2.5693,2.6055,2.6484,2.6914,2.7344,2.7689,2.7708,2.7708,2.7519,2.709,2.6992,2.6836,2.6426,2.6367,2.6367,2.6367,2.6367,2.6523,2.6934,2.6973,2.6973,2.6973,2.6621,2.6562,2.6992,2.7422,2.7689,2.7669,2.7207,2.6992,2.6992,2.7422,2.7708,2.7728,2.8066,2.8281,2.8301,2.8301,2.8301,0.0,0.0,1.5784,1.5784,0.0,0.0,0.0,0.0,0.0,0.0,0.0,0.0,0.0,0.0,0.0,1.7152,0.0,0.0,0.0,0.0,0.0,0.0,0.0,0.0,0.0,0.0,0.0,0.0,2.7266,0.0,0.0,2.7324,2.6894,2.6602,2.6035,2.5693,2.5693,2.5693,2.5693,2.5693,2.5693,2.5693,2.5693,2.5693,2.5693,2.5693,2.5693,2.5693,2.5693,2.5693,2.5693,2.5693,2.5693,2.5693,2.5693,2.5693,2.5693,2.5693,2.5693,2.5693,2.5693,2.5693,2.5693,2.5693,2.5693,2.5693,2.5693,2.5693,2.5693,2.5693,2.5693,2.5693,2.5752,2.6094,2.6289,2.6582,2.7285,2.7611,2.7806,2.8027,2.8086,2.8027,2.7891,2.7871,2.7617,2.6914,2.6797,2.6797,2.6797,2.6797,2.6855,2.6992,2.7012,2.7012,2.7012,2.7148,2.7337,2.7441,2.763,2.7539,2.7246,2.7363,2.7441,2.7441,2.7871,2.8086,2.8086,2.8223,2.8301,2.8301,2.8301,2.8301,1.5784,1.5784,0.0,1.5784,1.5784,0.0,1.5965,0.0,0.0,0.0,0.0,0.0,0.0,0.0,0.0,0.0,0.0,0.0,0.0,1.7474,0.0,0.0,0.0,0.0,0.0,0.0,2.6445,2.7168,2.709,0.0,0.0,0.0,2.6973,2.6406,2.6113,2.5849,2.5693,2.5693,2.5693,2.5693,2.5693,2.5693,2.5693,2.5693,2.5693,2.5693,2.5693,2.5693,2.5693,2.5693,2.5693,2.5693,2.5693,2.5693,2.5693,2.5693,2.5693,2.5693,2.5693,2.5693,2.5693,2.5693,2.5693,2.5693,2.5693,2.5693,2.5693,2.5693,2.5693,2.5693,2.5693,2.581,2.6035,2.6328,2.6621,2.7043,2.7591,2.7793,2.7969,2.8242,2.8301,2.8301,2.8301,2.8301,2.8047,2.7344,2.7246,2.7246,2.7246,2.7246,2.7305,2.7461,2.7461,2.7402,2.7266,2.7637,2.7832,2.7728,2.7812,2.7773,2.748,2.7734,2.7891,2.7891,2.8164,2.8301,2.8301,2.8301,2.8301,2.8301,2.8301,2.8301]}]]